[[{"header":{"parameterUnit":"m.s-1","parameterCategory":1,"la1":30.6,"la2":29.2853,"lo1":-89.7004,"lo2":-87.6739,"dy":0.0162,"dx":0.0183,"nx":112,"ny":82,"refTime":"2026-05-18T12:00:00:Z","depth":0,"parameterNumber":2,"parameterNumberName":"U-component_of_WINDS"},"data":[0.0,0.0,0.0,0.0,0.0,0.0,0.0,0.0,0.0,0.0,0.0,0.0,0.0,0.0,0.0,0.0,0.0,0.0,0.0,0.0,0.0,0.0,0.0,0.0,0.0,0.0,0.0,0.0,0.0,0.0,0.0,0.0,0.0,0.0,0.0,0.0,0.0,0.0,0.0,0.0,0.0,0.0,0.0,0.0,0.0,0.0,0.0,0.0,0.0,0.0,0.0,0.0,0.0,0.0,0.0,0.0,0.0,0.0,0.0,0.0,0.0,0.0,0.0,0.0,0.0,0.0,0.0,0.0,0.0,0.0,0.0,0.0,0.0,0.0,0.0,0.0,0.0,0.0,0.0,0.0,0.0,0.0,0.0,0.0,0.0,0.0,0.0,0.0,0.0,0.0,-1.9528,-2.2253,-2.5815,-2.7262,-2.5445,-2.5052,-2.3747,-2.1017,0.0,0.0,0.0,0.0,0.0,0.0,0.0,0.0,0.0,0.0,0.0,0.0,0.0,0.0,0.0,0.0,0.0,0.0,0.0,0.0,0.0,0.0,0.0,0.0,0.0,0.0,0.0,0.0,0.0,0.0,0.0,0.0,0.0,0.0,0.0,0.0,0.0,0.0,0.0,0.0,0.0,0.0,0.0,0.0,0.0,0.0,0.0,0.0,0.0,0.0,0.0,0.0,0.0,0.0,0.0,0.0,0.0,0.0,0.0,0.0,0.0,0.0,0.0,0.0,0.0,0.0,0.0,0.0,0.0,0.0,0.0,0.0,0.0,0.0,0.0,0.0,0.0,0.0,0.0,0.0,0.0,0.0,0.0,0.0,0.0,0.0,0.0,0.0,0.0,0.0,0.0,0.0,0.0,0.0,0.0,0.0,0.0,0.0,0.0,0.0,0.0,0.0,0.0,0.0,-2.1612,-2.5456,-2.7647,-2.8116,-2.6348,-2.5998,-2.4498,-2.1259,0.0,0.0,0.0,0.0,0.0,0.0,0.0,0.0,0.0,0.0,0.0,0.0,0.0,0.0,0.0,0.0,0.0,0.0,0.0,0.0,0.0,0.0,0.0,0.0,0.0,0.0,0.0,0.0,0.0,0.0,0.0,0.0,0.0,0.0,0.0,0.0,0.0,0.0,0.0,0.0,0.0,0.0,0.0,0.0,0.0,0.0,0.0,0.0,0.0,0.0,0.0,0.0,0.0,0.0,0.0,0.0,0.0,0.0,0.0,0.0,0.0,0.0,0.0,0.0,0.0,0.0,0.0,0.0,0.0,0.0,0.0,0.0,0.0,0.0,0.0,0.0,0.0,0.0,0.0,0.0,0.0,0.0,0.0,0.0,0.0,0.0,0.0,0.0,0.0,0.0,0.0,0.0,0.0,0.0,0.0,0.0,0.0,0.0,0.0,0.0,0.0,0.0,0.0,-2.1143,-2.4043,-2.6345,-2.8033,-2.8311,-2.6604,-2.5888,-2.4303,-2.133,-1.8604,0.0,0.0,0.0,0.0,0.0,0.0,0.0,0.0,0.0,0.0,0.0,0.0,0.0,0.0,0.0,0.0,0.0,0.0,0.0,0.0,0.0,0.0,0.0,0.0,0.0,0.0,0.0,0.0,0.0,0.0,0.0,0.0,0.0,0.0,0.0,0.0,0.0,0.0,0.0,0.0,0.0,0.0,0.0,0.0,0.0,0.0,0.0,0.0,0.0,0.0,0.0,0.0,0.0,0.0,0.0,0.0,0.0,0.0,0.0,0.0,0.0,0.0,0.0,0.0,0.0,0.0,0.0,0.0,0.0,0.0,0.0,0.0,0.0,0.0,0.0,0.0,0.0,0.0,0.0,0.0,0.0,0.0,0.0,0.0,0.0,0.0,0.0,0.0,0.0,0.0,0.0,0.0,0.0,0.0,0.0,0.0,0.0,0.0,0.0,0.0,0.0,0.0,-2.3657,-2.5925,-2.6528,-2.8033,-2.8322,-2.6658,-2.5687,-2.3977,-2.1154,-1.8715,0.0,0.0,0.0,0.0,0.0,0.0,0.0,0.0,0.0,0.0,0.0,0.0,0.0,0.0,0.0,0.0,0.0,0.0,0.0,0.0,0.0,0.0,0.0,0.0,0.0,0.0,0.0,0.0,0.0,0.0,0.0,0.0,0.0,0.0,0.0,0.0,0.0,0.0,0.0,0.0,0.0,0.0,0.0,0.0,0.0,0.0,0.0,0.0,0.0,0.0,0.0,0.0,0.0,0.0,0.0,0.0,0.0,0.0,0.0,0.0,0.0,0.0,0.0,0.0,0.0,0.0,0.0,0.0,0.0,0.0,0.0,0.0,0.0,0.0,0.0,0.0,0.0,0.0,0.0,0.0,0.0,0.0,0.0,0.0,0.0,0.0,0.0,0.0,0.0,0.0,0.0,0.0,0.0,0.0,0.0,0.0,0.0,0.0,0.0,0.0,0.0,0.0,-2.452,-2.6539,-2.6583,-2.8033,-2.8345,-2.673,-2.585,-2.3929,-2.059,-1.86,0.0,0.0,0.0,0.0,0.0,0.0,0.0,0.0,0.0,0.0,0.0,0.0,0.0,0.0,0.0,0.0,0.0,0.0,0.0,0.0,0.0,0.0,0.0,0.0,0.0,0.0,0.0,0.0,0.0,0.0,0.0,0.0,0.0,0.0,0.0,0.0,0.0,0.0,0.0,0.0,0.0,0.0,0.0,0.0,0.0,0.0,0.0,0.0,0.0,0.0,0.0,0.0,0.0,0.0,0.0,0.0,0.0,0.0,0.0,0.0,0.0,0.0,0.0,0.0,0.0,0.0,0.0,0.0,0.0,0.0,0.0,0.0,0.0,0.0,0.0,0.0,0.0,0.0,0.0,0.0,0.0,0.0,0.0,0.0,0.0,0.0,0.0,0.0,0.0,0.0,0.0,0.0,0.0,0.0,0.0,0.0,0.0,0.0,0.0,0.0,0.0,0.0,-2.4924,-2.6796,0.0,-2.8345,-2.8345,-2.673,-2.5401,-2.3427,-2.0543,0.0,0.0,0.0,0.0,0.0,0.0,0.0,0.0,0.0,0.0,0.0,0.0,0.0,0.0,0.0,0.0,0.0,0.0,0.0,0.0,0.0,0.0,0.0,0.0,0.0,0.0,0.0,0.0,0.0,0.0,0.0,0.0,0.0,0.0,0.0,0.0,0.0,0.0,0.0,0.0,0.0,0.0,0.0,0.0,0.0,0.0,0.0,0.0,0.0,0.0,0.0,0.0,0.0,0.0,0.0,0.0,0.0,0.0,0.0,0.0,0.0,0.0,0.0,0.0,0.0,0.0,0.0,0.0,0.0,0.0,0.0,0.0,0.0,0.0,0.0,0.0,0.0,0.0,0.0,0.0,0.0,0.0,0.0,0.0,0.0,0.0,0.0,0.0,0.0,0.0,0.0,0.0,0.0,0.0,0.0,0.0,0.0,0.0,0.0,0.0,0.0,0.0,-2.2602,-2.5116,-2.6906,0.0,-2.851,-2.8345,-2.673,-2.5364,-2.3381,-2.0576,0.0,0.0,0.0,0.0,0.0,0.0,0.0,0.0,0.0,0.0,0.0,0.0,0.0,0.0,0.0,0.0,0.0,0.0,0.0,0.0,0.0,0.0,0.0,0.0,0.0,0.0,0.0,0.0,0.0,0.0,0.0,0.0,0.0,0.0,0.0,0.0,0.0,0.0,0.0,0.0,0.0,0.0,0.0,0.0,0.0,0.0,0.0,0.0,0.0,0.0,0.0,0.0,0.0,0.0,0.0,0.0,0.0,0.0,0.0,0.0,0.0,0.0,0.0,0.0,0.0,0.0,0.0,0.0,0.0,0.0,0.0,0.0,0.0,0.0,0.0,0.0,0.0,0.0,0.0,0.0,0.0,0.0,0.0,0.0,0.0,0.0,0.0,0.0,0.0,0.0,0.0,0.0,0.0,0.0,0.0,0.0,0.0,0.0,0.0,0.0,0.0,0.0,-2.2694,-2.5116,-2.6924,-2.7732,-2.8539,-2.8345,-2.673,-2.587,-2.3969,0.0,0.0,0.0,0.0,0.0,0.0,0.0,0.0,0.0,0.0,0.0,0.0,0.0,0.0,0.0,0.0,0.0,0.0,0.0,0.0,0.0,0.0,0.0,0.0,0.0,0.0,0.0,0.0,0.0,0.0,0.0,0.0,0.0,0.0,0.0,0.0,0.0,0.0,0.0,0.0,0.0,0.0,0.0,0.0,0.0,0.0,0.0,0.0,0.0,0.0,0.0,0.0,0.0,0.0,0.0,0.0,0.0,0.0,0.0,0.0,0.0,0.0,0.0,0.0,0.0,0.0,0.0,0.0,0.0,0.0,0.0,0.0,0.0,0.0,0.0,0.0,0.0,0.0,0.0,0.0,0.0,0.0,0.0,0.0,0.0,0.0,0.0,0.0,0.0,0.0,0.0,0.0,0.0,0.0,0.0,0.0,0.0,0.0,0.0,0.0,0.0,0.0,0.0,-2.3529,-2.5952,-2.775,-2.8565,-2.8858,-2.8345,-2.673,-2.587,-2.3978,-2.0681,0.0,0.0,0.0,0.0,0.0,0.0,0.0,0.0,0.0,0.0,0.0,0.0,0.0,0.0,0.0,0.0,0.0,0.0,0.0,0.0,0.0,0.0,0.0,0.0,0.0,0.0,0.0,0.0,0.0,0.0,0.0,0.0,0.0,0.0,0.0,0.0,0.0,0.0,0.0,0.0,0.0,0.0,0.0,0.0,0.0,0.0,0.0,0.0,0.0,0.0,0.0,0.0,0.0,0.0,0.0,0.0,0.0,0.0,0.0,0.0,0.0,0.0,0.0,0.0,0.0,0.0,0.0,0.0,0.0,0.0,0.0,0.0,0.0,0.0,0.0,0.0,0.0,0.0,0.0,0.0,0.0,0.0,0.0,0.0,0.0,0.0,0.0,0.0,0.0,0.0,0.0,0.0,0.0,0.0,0.0,0.0,0.0,0.0,0.0,0.0,0.0,0.0,-2.3878,-2.63,-2.8117,-2.8913,-2.9005,-2.8473,-2.72,-2.6337,-2.463,-2.1686,0.0,0.0,0.0,0.0,0.0,0.0,0.0,0.0,0.0,0.0,0.0,0.0,0.0,0.0,0.0,0.0,0.0,0.0,0.0,0.0,0.0,0.0,0.0,0.0,0.0,0.0,0.0,0.0,0.0,0.0,0.0,0.0,0.0,0.0,0.0,0.0,0.0,0.0,0.0,0.0,0.0,0.0,0.0,0.0,0.0,0.0,0.0,0.0,0.0,0.0,0.0,0.0,0.0,0.0,0.0,0.0,0.0,0.0,0.0,0.0,0.0,0.0,0.0,0.0,0.0,0.0,0.0,0.0,0.0,0.0,0.0,0.0,0.0,0.0,0.0,0.0,0.0,0.0,0.0,0.0,0.0,0.0,0.0,0.0,0.0,0.0,0.0,0.0,0.0,0.0,0.0,0.0,0.0,0.0,0.0,0.0,0.0,0.0,0.0,0.0,0.0,0.0,-2.3896,-2.6374,-2.8191,-2.8932,-2.9005,-2.8675,-2.786,-2.7053,-2.5574,-2.3153,0.0,0.0,0.0,0.0,0.0,0.0,0.0,0.0,0.0,0.0,0.0,0.0,0.0,0.0,0.0,0.0,0.0,0.0,0.0,0.0,0.0,0.0,0.0,0.0,0.0,0.0,0.0,0.0,0.0,0.0,0.0,0.0,0.0,0.0,0.0,0.0,0.0,0.0,0.0,0.0,0.0,0.0,0.0,0.0,0.0,0.0,0.0,0.0,0.0,0.0,0.0,0.0,0.0,0.0,0.0,0.0,0.0,0.0,0.0,0.0,-2.4593,0.0,0.0,0.0,0.0,0.0,0.0,0.0,0.0,0.0,0.0,0.0,0.0,0.0,0.0,0.0,0.0,0.0,0.0,0.0,0.0,0.0,0.0,0.0,0.0,0.0,0.0,0.0,0.0,0.0,0.0,0.0,0.0,0.0,0.0,0.0,0.0,0.0,0.0,0.0,0.0,0.0,-2.3969,-2.6869,-2.8803,-2.8987,-2.9005,-2.8675,-2.786,-2.7053,-2.5574,-2.3153,-1.9924,0.0,0.0,0.0,0.0,0.0,0.0,0.0,0.0,0.0,0.0,0.0,0.0,0.0,0.0,0.0,0.0,0.0,0.0,0.0,0.0,0.0,0.0,0.0,0.0,0.0,0.0,0.0,0.0,0.0,0.0,0.0,0.0,0.0,0.0,0.0,0.0,0.0,0.0,0.0,0.0,0.0,0.0,0.0,0.0,0.0,0.0,0.0,0.0,0.0,0.0,0.0,0.0,0.0,0.0,0.0,0.0,0.0,0.0,0.0,0.0,-2.6521,0.0,0.0,0.0,0.0,0.0,0.0,0.0,0.0,0.0,0.0,0.0,0.0,0.0,0.0,0.0,0.0,0.0,0.0,0.0,0.0,0.0,0.0,0.0,0.0,0.0,0.0,0.0,0.0,0.0,0.0,0.0,0.0,0.0,0.0,0.0,0.0,0.0,0.0,0.0,0.0,-2.4566,-2.7255,-2.9005,-2.9005,-2.9005,-2.8822,-2.84,-2.7281,-2.5897,-2.4263,-2.1061,0.0,0.0,0.0,0.0,0.0,0.0,0.0,0.0,0.0,0.0,0.0,0.0,0.0,0.0,0.0,0.0,0.0,0.0,0.0,0.0,0.0,0.0,0.0,0.0,0.0,0.0,0.0,0.0,0.0,0.0,0.0,0.0,0.0,0.0,0.0,0.0,0.0,0.0,0.0,0.0,0.0,0.0,0.0,0.0,0.0,0.0,0.0,0.0,0.0,0.0,0.0,0.0,0.0,-3.2896,-3.3222,-3.2713,-3.3366,-3.3647,-3.3555,-3.1702,-3.0491,-2.9776,-2.898,0.0,0.0,0.0,0.0,0.0,0.0,0.0,0.0,0.0,0.0,0.0,0.0,0.0,0.0,0.0,0.0,0.0,0.0,0.0,0.0,0.0,0.0,0.0,0.0,-2.6237,-2.565,-2.352,0.0,0.0,0.0,0.0,0.0,0.0,0.0,0.0,0.0,0.0,0.0,-2.5191,-2.7512,-2.9005,-2.9005,-2.9005,-2.9005,-2.9005,-2.7537,-2.6264,-2.5448,-2.2318,-2.0144,0.0,0.0,0.0,0.0,0.0,0.0,0.0,0.0,0.0,0.0,0.0,0.0,0.0,0.0,0.0,0.0,0.0,0.0,0.0,0.0,0.0,0.0,0.0,0.0,0.0,0.0,0.0,0.0,0.0,0.0,0.0,0.0,-1.7446,-1.8549,0.0,0.0,0.0,0.0,0.0,0.0,0.0,0.0,0.0,0.0,0.0,0.0,0.0,-3.1999,-3.2848,-3.4309,-3.5382,-3.6055,-3.6705,-3.7317,-3.7834,-3.7875,-3.79,-3.7918,-3.8303,0.0,-3.3109,-3.2289,0.0,0.0,0.0,0.0,0.0,0.0,0.0,0.0,0.0,0.0,0.0,0.0,0.0,0.0,0.0,0.0,0.0,0.0,0.0,0.0,0.0,0.0,-2.9696,-2.9586,-2.9567,-2.9292,0.0,-2.6392,-2.4475,-2.2951,-2.2492,0.0,0.0,0.0,0.0,0.0,0.0,0.0,-2.5191,-2.7512,-2.9005,-2.9005,-2.9005,-2.9005,-2.9005,-2.7537,-2.6264,-2.5448,-2.2318,-2.0144,-1.9334,-1.7649,0.0,0.0,0.0,0.0,0.0,0.0,0.0,0.0,0.0,0.0,0.0,0.0,0.0,0.0,0.0,0.0,0.0,0.0,0.0,0.0,0.0,0.0,0.0,0.0,0.0,0.0,0.0,0.0,0.0,-1.7747,-2.0335,-2.1705,-2.2201,-2.2601,0.0,0.0,0.0,0.0,0.0,0.0,0.0,0.0,0.0,-3.3107,-3.4307,-3.5729,-3.7453,-3.8442,-3.9272,-3.9924,-3.9925,-4.0014,-4.027,-4.0107,-4.0049,-4.0068,-4.0432,-3.957,-3.7771,-3.6064,-3.3917,-3.1537,0.0,0.0,0.0,0.0,-2.9053,-2.9567,-3.0375,-3.065,-3.0705,-3.1054,0.0,0.0,0.0,0.0,0.0,0.0,0.0,0.0,0.0,0.0,-3.087,-3.087,-3.087,-3.0779,-3.0411,-2.9512,-2.8165,0.0,-2.4961,-2.3859,-2.2326,0.0,0.0,0.0,0.0,-2.4934,-2.6549,-2.8081,-2.9005,-2.9005,-2.9005,-2.9005,-2.9005,-2.7537,-2.6447,-2.6098,-2.3446,-2.174,-2.14,-1.9363,-1.7704,0.0,0.0,0.0,0.0,0.0,0.0,0.0,0.0,0.0,0.0,0.0,0.0,0.0,0.0,0.0,0.0,0.0,0.0,0.0,0.0,0.0,0.0,0.0,0.0,0.0,0.0,0.0,0.0,-2.0869,-2.312,-2.4875,-2.5245,-2.5702,0.0,0.0,0.0,0.0,0.0,0.0,-3.2231,-3.2968,-3.4487,-3.7038,-3.7692,-3.8989,-4.1055,-4.1705,-4.2242,-4.2678,-4.2444,-4.2267,-4.2144,-4.1939,-4.1832,-4.1834,-4.1801,-4.1656,-4.1273,-3.9035,-3.689,-3.489,-3.3275,-3.2522,-3.232,-3.232,-3.2706,-3.3335,-3.4156,-3.4431,-3.4468,-3.4669,-3.3642,-3.2027,-3.0399,0.0,0.0,0.0,0.0,-3.1164,-3.1372,-3.188,-3.232,-3.232,-3.232,-3.221,-3.1788,-3.1715,-3.098,0.0,-2.7145,-2.5925,-2.4732,0.0,0.0,0.0,0.0,-2.6219,-2.7633,-2.8503,-2.9005,-2.9005,-2.9005,-2.9005,-2.9005,-2.7537,-2.6602,-2.6602,-2.4327,-2.3006,-2.3006,-2.0813,-1.9234,-1.8427,0.0,0.0,0.0,0.0,0.0,0.0,0.0,0.0,0.0,0.0,0.0,0.0,0.0,0.0,0.0,0.0,0.0,0.0,0.0,0.0,0.0,0.0,0.0,0.0,0.0,0.0,0.0,0.0,0.0,-2.7511,-2.8376,0.0,0.0,0.0,0.0,-3.2468,-3.3391,-3.4975,-3.7488,-3.7661,-3.8854,-4.1404,-4.1519,-4.1964,-4.2853,-4.3589,-4.3873,-4.3721,-4.4146,-4.4271,-4.4148,-4.3949,-4.3831,-4.3754,-4.3691,-4.3148,-4.22,-4.0499,-3.9258,-3.8303,-3.6688,-3.555,-3.4821,-3.4821,-3.4839,-3.5004,-3.5862,-3.6156,-3.6303,-3.707,-3.6174,-3.4527,-3.2913,-3.2362,0.0,0.0,-3.2981,-3.3788,-3.4564,-3.4802,-3.4821,-3.4821,-3.4821,-3.4399,-3.2876,-3.2528,-3.183,0.0,-2.8877,-2.8069,-2.5742,0.0,-2.5246,-2.5319,-2.6025,-2.6851,-2.7688,-2.8503,-2.9005,-2.9005,-2.9005,-2.9005,-2.9005,-2.7537,-2.6602,-2.6602,-2.4327,-2.3006,-2.3006,-2.1355,-2.0052,-1.926,-1.6873,0.0,0.0,0.0,0.0,0.0,0.0,0.0,0.0,0.0,0.0,0.0,0.0,0.0,0.0,0.0,0.0,0.0,0.0,0.0,0.0,0.0,0.0,0.0,0.0,0.0,0.0,0.0,0.0,-3.091,-3.1878,0.0,-3.3596,-3.3179,-3.3776,-3.6007,-3.6988,-3.8354,-4.0335,-4.0989,-4.1931,-4.3355,-4.3412,-4.3808,-4.4664,-4.4937,-4.4997,-4.4832,-4.4874,-4.4812,-4.4676,-4.4479,-4.4318,-4.4206,-4.4026,-4.3706,-4.3319,-4.2533,-4.1442,-4.0141,-3.9038,-3.8744,-3.8857,-3.834,-3.8472,-3.8967,-3.9279,-3.9056,-3.8487,-3.7749,-3.6758,-3.5734,-3.5165,-3.4582,-3.427,-3.4816,-3.5183,-3.5477,-3.5771,-3.5844,-3.5844,-3.5844,-3.5408,-3.4839,-3.427,-3.3738,-3.2963,-3.1574,-3.0473,-2.9512,-2.8631,-2.7622,-2.7119,-2.764,-2.753,-2.7658,-2.8473,-2.8822,-2.9005,-2.9005,-2.9005,-2.9005,-2.9005,-2.7537,-2.6602,-2.6602,-2.4832,-2.3768,-2.3768,-2.2208,-2.1206,-2.0913,-1.85,-1.686,0.0,0.0,0.0,0.0,0.0,0.0,0.0,0.0,0.0,0.0,0.0,0.0,0.0,0.0,0.0,0.0,0.0,0.0,0.0,0.0,0.0,0.0,0.0,0.0,0.0,0.0,-3.2295,-3.3987,-3.5199,-3.6142,-3.6738,-3.6776,-3.7469,-3.9161,-4.0085,-4.1181,-4.2566,-4.3181,-4.3874,-4.4701,-4.5028,-4.5451,-4.6028,-4.6297,-4.6396,-4.6311,-4.5827,-4.5546,-4.5426,-4.4976,-4.4669,-4.4517,-4.4227,-4.4042,-4.3913,-4.3615,-4.2873,-4.1827,-4.102,-4.1038,-4.1407,-4.0598,-4.0653,-4.1095,-4.1095,-4.0763,-4.012,-3.9056,-3.8175,-3.7514,-3.7514,-3.6927,-3.6362,-3.6945,-3.711,-3.711,-3.711,-3.711,-3.7037,-3.6776,-3.6064,-3.5353,-3.5059,-3.4362,-3.3642,-3.3109,-3.1922,-3.0925,-3.065,-2.9714,-2.909,-2.9372,-2.8962,-2.8705,-2.8968,-2.9005,-2.9005,-2.9005,-2.9005,-2.9005,-2.9005,-2.7537,-2.6602,-2.6602,-2.5089,-2.419,-2.419,-2.2923,-2.2189,-2.2189,-1.9767,-1.7839,-1.6493,0.0,0.0,0.0,0.0,0.0,0.0,0.0,0.0,0.0,0.0,0.0,0.0,0.0,0.0,0.0,0.0,0.0,0.0,0.0,0.0,0.0,0.0,0.0,-3.0365,-3.2718,-3.4968,-3.6615,-3.8354,-3.9419,-3.9419,-4.0893,-4.1846,-4.1885,-4.2662,-4.3489,-4.4297,-4.4335,-4.4739,-4.5614,-4.6471,-4.6904,-4.6942,-4.7721,-4.8097,-4.8087,-4.7096,-4.6604,-4.6522,-4.5581,-4.506,-4.4833,-4.4486,-4.4229,-4.3989,-4.3632,-4.3515,-4.3423,-4.2635,-4.2341,-4.2249,-4.1462,-4.1168,-4.1168,-4.115,-4.1132,-4.1132,-4.1113,-4.0579,-3.9937,-3.9937,-3.9386,-3.8781,-3.8744,-3.8744,-3.8726,-3.8707,-3.8707,-3.8505,-3.7731,-3.6923,-3.6101,-3.5224,-3.4399,-3.3825,-3.3807,-3.3183,-3.2381,-3.158,-3.1415,-3.114,-3.0356,-3.0228,0.0,-2.9133,-2.9023,-2.9005,-2.9005,-2.9005,-2.9005,-2.9005,-2.7537,-2.6602,-2.6602,-2.5089,-2.419,-2.419,-2.3437,-2.2988,-2.2951,-2.0574,-1.8177,-1.5808,0.0,0.0,0.0,0.0,0.0,0.0,0.0,0.0,0.0,0.0,0.0,0.0,0.0,0.0,0.0,0.0,0.0,0.0,0.0,0.0,0.0,-3.005,-3.1948,-3.2179,-3.5488,-3.8284,-3.9335,-4.0989,-4.2066,-4.2066,-4.247,-4.2989,-4.3566,-4.3835,-4.4335,-4.521,-4.5248,-4.5643,-4.6528,-4.6778,-4.7173,-4.7759,-4.799,-4.8096,-4.8087,-4.7232,-4.7117,-4.7617,-4.6781,-4.6259,-4.6016,-4.5577,-4.4914,-4.4106,-4.3681,-4.3515,-4.3478,-4.3259,-4.3167,-4.313,-4.291,-4.2837,-4.2763,-4.2176,-4.1974,-4.1882,-4.1279,-4.0948,-4.0781,-4.0781,-4.0618,-4.0322,-3.9735,-3.957,-3.9441,-3.8854,-3.8707,-3.8652,-3.8414,-3.7768,-3.6942,-3.6119,-3.5261,-3.4491,-3.3917,-3.3623,-3.322,-3.2412,-3.1788,-3.1323,-3.1103,-3.0577,0.0,-2.9898,-2.9354,-2.9005,-2.9005,-2.9005,-2.9005,-2.9005,-2.7537,-2.6602,-2.6602,-2.5089,-2.419,-2.419,-2.3437,-2.274,-2.2143,-2.0849,-1.9565,0.0,0.0,0.0,0.0,0.0,0.0,0.0,0.0,0.0,0.0,0.0,0.0,0.0,0.0,0.0,0.0,0.0,0.0,0.0,0.0,0.0,0.0,-3.3372,-3.5276,-3.5968,-3.8226,-4.0112,-4.095,-4.2566,-4.3605,-4.3605,-4.4259,-4.4893,-4.5355,-4.5701,-4.6105,-4.6624,-4.6644,-4.6874,-4.7394,-4.7759,-4.8163,-4.8644,-4.9009,-4.9183,-4.9183,-4.8355,-4.8183,-4.8568,-4.7713,-4.7162,-4.6824,-4.605,-4.5293,-4.456,-4.3812,-4.3515,0.0,0.0,0.0,0.0,0.0,-4.3515,-4.3441,-4.2947,-4.28,-4.2727,-4.2268,-4.1882,-4.159,-4.159,-4.137,-4.093,-4.012,-3.99,-3.9698,-3.8909,-3.8707,-3.8707,-3.8707,-3.8098,-3.7364,-3.6905,-3.5862,-3.4857,-3.438,-3.4027,0.0,-3.3183,-3.2706,-3.2284,-3.1953,-3.1219,-3.0577,-3.0246,-2.95,-2.9005,-2.9005,-2.9005,-2.9005,-2.9005,-2.7831,0.0,0.0,0.0,-2.4548,-2.4208,-2.3749,0.0,0.0,0.0,0.0,0.0,0.0,0.0,0.0,-1.8578,-1.8894,0.0,0.0,0.0,0.0,0.0,0.0,0.0,0.0,0.0,0.0,0.0,0.0,0.0,0.0,0.0,0.0,-3.6565,-3.8796,-4.0285,-4.0746,-4.1227,-4.1989,-4.3489,-4.4451,-4.4451,-4.5932,-4.6904,-4.6904,-4.7663,-4.8105,-4.8105,0.0,0.0,0.0,0.0,-4.9452,-4.9548,-5.0308,-5.0712,-5.0693,-4.9817,-4.9404,-4.9392,-4.8438,-4.7823,-4.7454,-4.6327,-4.5641,-4.5238,-4.4093,-4.3588,-4.3515,-4.3515,-4.3515,-4.3515,-4.3515,-4.3515,-4.3515,-4.3515,0.0,0.0,-4.3515,-4.302,-4.2433,-4.2433,-4.1937,-4.1168,-4.0286,-4.0029,-3.9827,-3.8927,-3.8707,-3.8707,-3.8707,-3.8138,-3.7621,-3.7529,-3.6266,-3.5133,-3.5023,-3.4344,-3.3807,-3.3807,-3.3807,-3.3568,-3.2839,-3.1971,-3.114,-3.043,-2.9537,-2.9005,-2.9005,0.0,0.0,-2.9005,-2.8264,-2.7493,-2.6778,-2.598,-2.5227,-2.4502,-2.4465,-2.4135,-2.3428,-2.341,-2.3052,-2.2345,-2.307,-2.341,-2.3391,-2.2428,-2.2248,0.0,0.0,0.0,0.0,0.0,0.0,0.0,0.0,0.0,0.0,0.0,0.0,0.0,0.0,0.0,-3.4904,-3.793,-4.0131,-4.0458,-4.2266,-4.3624,-4.3797,-4.472,-4.5344,-4.5344,-4.6297,-4.6904,-4.6904,-4.7663,-4.8105,-4.8105,-4.8105,-4.8413,-4.9125,-4.9317,-4.974,-5.0442,-5.0616,-5.0712,-5.0693,0.0,0.0,-5.0223,-4.9121,-4.8497,-4.8264,-4.7575,-4.6818,-4.601,-4.4906,-4.4085,-4.3515,-4.3515,-4.3515,-4.3515,-4.3515,-4.3515,-4.3515,-4.3515,-4.3515,-4.3515,-4.3515,-4.3404,-4.3276,-4.3276,-4.3149,0.0,-4.1277,-4.0873,-4.0526,-3.9093,-3.8707,-3.8707,-3.8707,-3.8579,-3.8285,-3.7639,-3.6725,-3.5844,-3.5151,-3.4344,-3.3807,-3.3807,-3.3807,-3.3752,-3.3587,-3.232,-3.1342,-3.1195,-2.9898,-2.9005,-2.9005,-2.9005,-2.9005,-2.9005,-2.8264,-2.7732,-2.7585,-2.6814,-2.63,-2.6153,-2.6135,-2.6051,-2.5905,-2.5905,-2.5841,-2.5676,-2.5841,-2.5905,-2.5886,-2.4949,-2.4464,0.0,0.0,0.0,0.0,0.0,0.0,0.0,0.0,0.0,0.0,0.0,-2.8635,-3.1185,0.0,-3.5507,-3.7642,-3.9777,-4.1431,-4.2285,-4.3489,-4.4297,-4.4297,-4.5075,-4.5594,-4.5594,-4.6759,-4.7509,-4.7509,-4.8682,-4.9394,-4.9394,-4.9394,-4.9606,-5.0029,-5.0048,-5.0269,-5.0712,-5.0712,-5.0673,-5.0643,-5.0171,-5.0078,-5.0271,-4.9569,-4.9097,-4.8766,-4.7958,-4.7302,-4.6723,-4.5717,-4.5057,-4.4654,-4.425,-4.3846,-4.3515,-4.3515,-4.3515,-4.3515,-4.3515,-4.3515,-4.3515,-4.3515,-4.3515,-4.3515,-4.3515,-4.3515,-4.324,-4.2047,-4.1407,-4.082,-3.9606,-3.9001,-3.8707,-3.8707,-3.8707,-3.8597,-3.8193,-3.7147,-3.6174,-3.5752,-3.4651,-3.3807,-3.3807,-3.3807,-3.3807,-3.3807,-3.2779,-3.1861,-3.1452,-3.0356,-2.9445,-2.9042,-2.9005,-2.9005,-2.9005,-2.8264,-2.7798,-2.7798,-2.7034,-2.6602,-2.6602,-2.6602,-2.6602,-2.6602,-2.6602,-2.6602,-2.6602,-2.6998,-2.72,-2.72,-2.7094,-2.6688,0.0,0.0,0.0,0.0,0.0,0.0,0.0,0.0,-2.5606,-2.8319,-3.0083,-3.1872,-3.4257,-3.6065,-3.793,-4.015,-4.1373,-4.2585,-4.4085,-4.4451,-4.4547,-4.4547,-4.5171,-4.5594,-4.5594,-4.7124,-4.8105,-4.8105,-4.9702,-5.0712,-5.0712,-5.0712,-5.0712,-5.0712,-5.0712,-5.0712,-5.0712,-5.0712,-5.0653,-5.0582,-5.047,-5.0283,-5.0012,-4.9698,-4.9336,-4.8984,-4.8044,-4.7499,-4.7206,-4.6452,-4.6049,-4.5847,-4.5186,-4.4433,-4.3699,-4.357,-4.3515,-4.3515,-4.3515,-4.3515,-4.3515,-4.3515,-4.3515,-4.3515,-4.3515,-4.3515,-4.3331,-4.2525,-4.1735,-4.0912,-4.0102,-3.9294,-3.8707,-3.8707,-3.8707,-3.8707,-3.8707,-3.7551,-3.6486,-3.6321,-3.5073,-3.399,-3.3825,-3.3807,-3.3807,-3.3807,-3.3128,-3.2375,-3.1715,-3.0797,-2.9941,-2.9299,-2.9097,-2.9005,-2.9005,-2.8411,-2.8026,-2.8026,-2.742,-2.706,-2.706,-2.706,-2.706,-2.706,-2.706,-2.706,-2.706,-2.7714,-2.8026,-2.8044,-2.8805,-2.8634,-2.2643,-2.3601,-2.4904,-2.5,-2.5519,-2.6274,0.0,0.0,-2.8396,-3.166,-3.3103,-3.4314,-3.6084,-3.7834,-3.9342,-4.0342,-4.1873,-4.3278,-4.4162,-4.4979,-4.546,-4.546,-4.5537,-4.5594,-4.5594,-4.7124,-4.8105,-4.8105,-4.9702,-5.0712,-5.0712,-5.0712,-5.0712,-5.0712,-5.0712,-5.0712,-5.0712,-5.0712,-5.0633,-5.0511,-5.0268,-5.0,-4.9726,-4.9224,-4.8898,-4.873,-4.8366,-4.7793,-4.7113,-4.7003,-4.6526,-4.5883,-4.5792,-4.5278,-4.4488,-4.3754,-4.3515,-4.3515,-4.3515,-4.3515,-4.3515,-4.3515,-4.3515,-4.3515,-4.3515,-4.3515,-4.3331,-4.2525,-4.1735,-4.0912,-4.0102,-3.9294,-3.8707,-3.8707,-3.8707,-3.8707,-3.8707,-3.7991,-3.7144,-3.6431,-3.5532,-3.4637,-3.3917,-3.3807,-3.3807,-3.3807,-3.3128,-3.2564,-3.2472,-3.1146,-3.0173,-3.0081,-2.9427,-2.9005,-2.9005,-2.8932,-2.8877,-2.8877,-2.8785,-2.873,-2.873,-2.873,-2.873,-2.873,-2.873,-2.873,-2.873,-2.8822,-2.8877,-2.8877,-2.9684,-2.9899,-2.5741,-2.6621,-2.7755,0.0,-2.966,-3.0487,-3.1377,-3.1968,-3.2852,-3.4737,-3.6199,-3.738,-3.8084,-3.9188,-4.0439,0.0,-4.2624,-4.3566,-4.4874,-4.494,-4.5037,-4.5537,-4.5152,-4.5037,-4.5556,-4.7124,-4.8105,-4.8105,-4.9702,-5.0712,-5.0712,-5.0712,-5.0712,-5.0712,-5.0712,-5.0712,-5.0712,-5.0712,-5.0633,-5.05,-5.0264,-4.9968,-4.9627,-4.9166,-4.8782,-4.8458,-4.8363,-4.8122,-4.7791,-4.7791,-4.7609,-4.726,-4.6783,-4.6379,-4.5938,-4.4672,-4.3901,-4.3515,-4.3515,-4.3515,-4.3515,-4.3515,-4.3515,-4.3515,-4.3515,-4.3515,-4.3441,-4.3075,-4.2084,-4.1022,-4.0689,-3.9662,-3.8707,-3.8707,-3.8707,-3.8707,-3.8707,-3.8065,-3.7254,-3.645,-3.5591,-3.4747,-3.3935,-3.3807,-3.3807,-3.3807,-3.3513,-3.3115,-3.2656,-3.2014,-3.1225,-3.0301,-2.9482,-2.9005,-2.9005,-2.9005,-2.9005,-2.9005,-2.9005,-2.9005,-2.9005,-2.9005,-2.9005,-2.9005,-2.9005,-2.9005,-2.9005,-2.9005,-2.9244,-2.9702,-3.0044,-3.0668,-2.8236,-2.9006,0.0,-3.1602,-3.2641,-3.3487,-3.4353,-3.5218,-3.6058,-3.6885,-3.8065,-3.9015,-3.9265,-3.9785,-4.0727,-4.247,-4.2931,-4.3605,-4.5037,-4.4893,-4.4893,-4.5518,-4.5037,-4.4921,-4.5537,-4.7124,-4.8105,-4.8105,-4.9702,-5.0712,-5.0712,-5.0712,-5.0712,-5.0712,-5.0712,-5.0712,-5.0712,-5.0712,-5.0633,-5.05,-5.0283,-4.9987,-4.9612,-4.912,-4.8695,-4.8306,-4.8306,-4.8306,-4.8306,-4.8306,-4.8306,-4.8251,-4.7663,-4.7296,-4.6966,-4.5792,-4.4709,-4.3791,-4.3588,-4.3515,-4.3515,-4.3515,-4.3515,-4.3515,-4.3515,-4.3515,-4.3515,-4.3515,-4.2506,-4.137,-4.115,-4.0068,-3.8982,-3.8762,-3.8707,-3.8707,-3.8707,-3.823,-3.7603,-3.678,-3.5936,-3.5096,-3.4284,-3.3954,-3.3807,-3.3807,-3.3807,-3.3587,-3.3005,-3.2729,-3.1977,-3.0375,-2.9684,-2.9244,-2.9023,-2.9005,-2.9005,-2.9005,-2.9005,-2.9005,-2.9005,-2.9005,-2.9005,-2.9005,-2.9005,-2.9005,-2.9005,-2.9225,-2.9629,-3.021,-3.0668,-3.1494,-2.9654,0.0,-3.075,-3.2449,-3.3526,-3.4391,-3.525,-3.6077,-3.6904,-3.7777,-3.8007,-3.8296,-3.915,-3.9323,-3.9892,-4.1566,-4.2547,-4.3393,-4.422,-4.5037,-4.5575,-4.5594,-4.5575,-4.5575,-4.5594,-4.7124,-4.8105,-4.8105,-4.9702,-5.0712,-5.0712,-5.0712,-5.0712,-5.0712,-5.0712,-5.0712,-5.0712,-5.0712,-5.0633,-5.05,-5.0225,-4.9962,-4.9684,-4.9003,-4.855,-4.8306,-4.8306,-4.8306,-4.8306,-4.8306,-4.8306,-4.8306,-4.8269,-4.7791,-4.7094,-4.7058,-4.6012,-4.4562,-4.3754,-4.3515,-4.3515,-4.3515,-4.3515,-4.3515,-4.3515,-4.3515,-4.3515,-4.3515,-4.2892,-4.2084,-4.1297,-4.0487,-3.9662,-3.8891,-3.8707,-3.8707,-3.8707,-3.8689,-3.8432,-3.7621,-3.6813,-3.5973,-3.5114,-3.4307,-3.3807,-3.3807,-3.3807,-3.3788,-3.377,-3.3091,-3.1977,-3.0375,-3.0173,-2.9861,-2.9078,-2.9005,-2.9005,-2.9005,-2.9005,-2.9005,-2.9005,-2.9005,-2.9005,-2.9005,-2.9005,-2.9005,-2.9005,-2.9776,-3.0173,-3.0246,-3.1794,-3.2546,-2.9865,0.0,-3.3199,-3.4346,-3.6122,-3.7668,-3.795,-3.8238,-3.8507,-3.8796,-3.795,-3.7411,-3.8277,-3.7969,-3.8315,-4.0566,-4.1662,-4.272,-4.4105,-4.4547,-4.496,-4.5537,-4.5094,0.0,-4.5537,-4.7124,0.0,-4.8105,-4.9702,-5.0712,-5.0712,-5.0712,-5.0712,-5.0712,-5.0712,-5.0712,-5.0712,-5.0712,-5.0633,-5.05,-5.0006,-4.9579,-4.922,-4.8818,-4.8514,-4.8306,-4.8306,-4.8306,-4.8306,-4.8306,-4.8306,-4.8306,-4.8306,-4.8141,-4.7828,-4.7296,-4.6415,-4.5388,-4.458,-4.3956,-4.3515,-4.3515,-4.3515,-4.3515,-4.3515,-4.3515,-4.3515,-4.3515,-4.291,-4.2249,-4.1974,-4.0891,-3.9827,-3.9551,-3.9093,-3.8707,-3.8707,-3.8707,-3.8469,-3.7658,-3.685,-3.6028,-3.5151,-3.4325,-3.3807,-3.3807,-3.3807,-3.3807,-3.3807,-3.3096,-3.2381,-3.1849,-3.1311,-3.0889,-3.0613,-3.0595,-3.0595,-3.0595,-3.0099,-2.9794,-2.9794,-2.928,-2.9244,-2.9787,-2.9794,-3.0063,-3.0595,-3.0852,-3.1274,-3.1812,-3.2344,-3.2894,-3.1596,-3.343,-3.4949,-3.6096,-3.7623,-3.8834,-3.8834,-3.8834,-3.8661,-3.8065,-3.7046,-3.6442,-3.7007,-3.6654,-3.7103,-3.9669,-4.1046,-4.2277,-4.3682,-4.4393,-4.4979,-4.5537,-4.5114,-4.4979,0.0,0.0,0.0,-4.8105,-4.9702,-5.0712,-5.0712,-5.0712,-5.0712,-5.0712,-5.0712,-5.0712,-5.0712,-5.0712,-5.0584,-5.0344,-4.9876,-4.9386,-4.8954,-4.873,-4.8514,-4.8306,-4.8306,-4.8306,-4.8306,-4.8306,-4.8306,-4.8306,-4.8306,-4.8306,-4.8251,-4.7718,-4.6838,-4.5773,-4.4984,-4.4176,-4.3515,-4.3515,-4.3515,-4.3515,-4.3515,-4.3515,-4.3515,-4.3515,-4.313,-4.2653,-4.2378,-4.1534,-4.0598,-4.0029,-3.9515,-3.9056,-3.8762,-3.8707,-3.856,-3.8028,-3.729,-3.645,-3.561,-3.4541,-3.3807,-3.3807,-3.3807,-3.3807,-3.3807,-3.3348,-3.2913,-3.2619,-3.2137,-3.1715,-3.1415,-3.1397,-3.1397,-3.1397,-3.0907,-3.0503,-3.021,-2.9989,-2.9971,-3.021,-3.0485,-3.087,-3.1397,-3.1678,-3.21,-3.2601,-3.2894,-3.3311,-3.4615,-3.5596,-3.6077,-3.7603,-3.8027,-3.8046,-3.8007,-3.793,-3.743,-3.5827,-3.5365,-3.5269,-3.5346,0.0,-3.6154,-3.8738,-4.0604,-4.2047,-4.297,-4.4528,-4.5594,0.0,0.0,0.0,0.0,0.0,0.0,-4.8163,0.0,-5.0712,-5.0712,-5.0712,-5.0712,-5.0712,-5.0712,-5.0712,-5.0683,-5.0673,-5.0472,-5.0087,-4.9803,-4.9397,-4.888,-4.8746,-4.855,-4.8306,-4.8306,-4.8306,-4.8306,-4.8306,-4.8306,-4.8306,-4.8306,-4.8306,-4.8306,-4.8306,-4.7315,-4.5847,-4.5039,-4.4213,-4.3515,-4.3515,-4.3515,-4.3515,-4.3515,-4.3515,-4.3515,-4.3515,-4.3515,-4.3331,-4.2561,-4.2323,-4.1901,-4.0322,-3.9918,-3.968,-3.8872,-3.8707,-3.8707,-3.8707,-3.801,-3.718,-3.6376,-3.4871,-3.3807,-3.3807,-3.3807,-3.3807,-3.3807,-3.3807,-3.3513,-3.2729,-3.2656,-3.2357,-3.1599,-3.1525,-3.1525,-3.1525,-3.1488,-3.1109,-3.0356,-3.1029,-3.1054,-3.0338,-3.1072,-3.1488,-3.1525,-3.2302,-3.2656,-3.2674,-3.344,-3.3807,-3.5096,-3.6892,-3.8277,-3.8065,-3.8488,-3.8796,-3.8142,-3.7026,-3.6019,-3.5596,-3.3462,-3.2077,-3.3333,-3.3064,0.0,-3.6853,-3.9315,0.0,-4.2893,-4.4528,0.0,-4.5594,0.0,-4.5864,-4.6509,-4.7509,0.0,0.0,-5.0067,-5.0712,-5.0712,-5.0712,-5.0712,-5.0712,-5.0712,-5.0692,-5.0623,-5.0371,-5.0095,-4.979,-4.9431,-4.9085,-4.8746,-4.8624,-4.8457,-4.8306,-4.8306,-4.8306,-4.8306,-4.8306,-4.8306,-4.8306,-4.8306,-4.8306,-4.8306,-4.8306,-4.7645,-4.6672,-4.5883,-4.4672,-4.3515,-4.3515,-4.3515,-4.3515,-4.3515,-4.3515,-4.3515,-4.3515,-4.3515,-4.346,-4.324,-4.2745,-4.2047,-4.1022,-4.0341,-3.968,-3.8872,-3.8707,-3.8707,-3.8707,-3.7569,-3.6321,-3.5481,-3.4486,-3.3807,-3.3807,-3.3807,-3.3807,-3.3807,-3.3807,-3.3715,-3.3532,-3.3495,-3.3403,-3.3201,-3.3183,-3.3183,-3.3183,-3.2632,-3.2197,-3.1995,-3.1604,-3.1586,-3.1977,-3.2179,-3.2596,-3.3183,-3.3385,-3.3495,-3.3495,-3.3697,-3.3807,-3.6257,-3.7911,-3.9188,-3.8681,-3.8642,-3.8411,-3.718,-3.5577,-3.4154,-3.3404,-3.1423,-3.0237,-3.1564,-3.1423,0.0,0.0,0.0,0.0,-4.2239,-4.397,-4.5171,0.0,-4.5932,0.0,-4.6846,-4.7971,-4.8875,0.0,-5.0212,-5.0712,-5.0712,-5.0712,-5.0712,-5.0712,-5.0712,-5.0594,-5.0377,-5.0082,-4.9726,-4.9352,-4.9069,-4.8782,-4.8514,-4.8457,-4.8363,-4.8306,0.0,-4.8306,-4.8306,-4.8306,-4.8306,-4.8306,-4.8306,-4.8306,-4.8306,-4.8306,-4.7791,-4.7039,-4.6581,-4.5369,-4.3975,-4.3608,-4.3515,-4.3515,-4.3515,-4.3515,-4.3515,-4.3515,-4.3515,-4.3515,-4.3515,-4.3167,-4.2616,-4.1827,-4.102,-4.0212,-3.9405,-3.8946,-3.8707,-3.8707,-3.7679,-3.656,-3.5734,-3.4876,-3.4211,-3.3844,-3.3807,-3.3807,-3.3807,-3.3807,-3.3807,-3.3807,-3.3807,-3.3807,-3.3807,-3.3807,-3.3807,-3.3807,-3.3385,-3.2981,-3.2601,-3.2504,-3.2504,-3.2601,-3.2949,-3.3348,-3.3807,-3.3807,-3.3807,-3.3807,-3.3807,-3.3807,-3.7757,-3.8719,-3.9265,-3.9169,-3.8392,-3.7238,-3.5538,-3.3718,-3.1948,-3.0385,0.0,-2.8742,-2.9712,-2.9904,-3.1058,-3.4577,0.0,-3.8719,-4.1277,-4.3162,-4.4586,-4.5344,-4.6297,-4.6942,-4.7038,-4.849,-4.9452,-4.9548,-5.0269,-5.0712,-5.0712,-5.0712,-5.0683,-5.0673,-5.0643,-5.044,-5.0043,-4.9762,-4.9367,-4.8863,-4.8747,-4.8532,-4.8306,-4.8306,-4.8306,-4.8306,-4.8306,-4.8306,-4.8306,-4.8306,-4.8306,-4.8306,-4.8306,-4.8306,-4.8306,-4.8306,-4.7846,-4.7241,-4.7131,-4.6122,-4.4727,-4.392,-4.3589,-4.3515,-4.3515,-4.3515,-4.3515,-4.3515,-4.3515,-4.3515,-4.3515,-4.3515,-4.3313,-4.2488,-4.1682,-4.0875,-4.0065,-3.9276,-3.8707,-3.8707,-3.8046,-3.729,-3.6593,-3.5752,-3.4894,-3.4082,-3.3972,-3.3917,-3.3807,-3.3807,-3.3807,-3.3807,-3.3807,-3.3807,-3.3807,-3.3807,-3.3807,-3.3807,-3.3807,-3.3495,-3.2784,-3.344,-3.3476,-3.2766,-3.344,-3.3807,-3.3807,-3.3807,-3.3807,-3.3807,-3.3807,-3.3807,-3.8796,-3.9188,-3.913,-3.8411,-3.7065,-3.5481,-3.3757,-3.1487,0.0,0.0,-2.6549,-2.5433,-2.6986,-2.7255,-2.8602,-3.2699,0.0,0.0,0.0,0.0,-4.4355,0.0,0.0,0.0,0.0,0.0,0.0,0.0,-5.0616,-5.0712,-5.0712,-5.0712,-5.0653,-5.0532,-5.0314,-5.0057,-4.9762,-4.9401,-4.9052,-4.8729,-4.8605,-4.8457,-4.8306,-4.8306,-4.8306,-4.8306,-4.8306,0.0,-4.8306,-4.8306,-4.8306,-4.8306,-4.8306,-4.8306,-4.8306,-4.8306,-4.8214,-4.8012,-4.7333,-4.647,-4.5553,-4.4745,-4.4048,-4.3515,-4.3515,-4.3515,-4.3515,-4.3515,-4.3515,-4.3515,-4.3515,-4.3515,-4.3313,-4.2488,-4.1682,-4.0875,-4.0065,-3.9276,-3.8707,-3.8707,-3.8046,-3.7456,-3.7327,-3.6615,-3.5789,-3.4931,-3.4784,-3.4546,-3.3899,-3.3807,-3.3807,-3.3807,-3.3807,-3.3807,-3.3807,-3.3807,-3.3807,-3.3807,-3.3807,-3.3733,-3.3605,-3.3733,-3.3733,-3.3587,-3.3733,-3.3807,-3.3807,-3.3807,-3.3807,-3.3807,-3.3807,-3.3807,-3.8507,-3.895,-3.9092,-3.8219,-3.6738,-3.4923,-3.2776,0.0,0.0,0.0,-2.487,-2.3932,-2.5615,-2.5923,0.0,0.0,0.0,0.0,0.0,0.0,0.0,0.0,0.0,0.0,0.0,0.0,0.0,-5.0673,-5.0712,-5.0712,-5.0712,-5.0633,-5.0502,-5.0291,-5.0025,-4.9698,-4.9287,-4.9017,-4.8747,-4.8495,-4.8438,-4.8363,-4.8306,-4.8306,-4.8306,-4.8306,-4.8306,-4.8306,-4.8306,-4.8306,-4.8306,-4.8306,-4.8306,-4.8306,-4.8306,-4.8306,-4.8306,-4.8251,-4.7846,-4.6929,-4.5847,-4.5461,-4.4507,-4.3515,-4.3515,-4.3515,-4.3515,-4.3515,-4.3515,-4.3515,-4.3515,-4.3515,-4.3387,-4.302,-4.1992,-4.0747,-3.9533,-3.8964,-3.8707,-3.8707,-3.8395,-3.7988,-3.7566,-3.718,-3.6633,-3.5807,-3.5298,-3.4857,-3.4472,-3.4064,-3.3807,-3.3807,-3.3807,-3.3807,-3.3807,-3.3807,-3.3807,-3.3807,-3.3807,-3.3807,-3.3807,-3.3807,-3.3807,-3.3807,-3.3807,-3.3807,-3.3807,-3.3807,-3.3807,-3.3807,-3.3807,-3.3807,-3.8238,-3.8642,-3.8854,-3.8161,-3.6469,-3.4327,-3.1962,-2.9313,0.0,0.0,-2.3428,-2.2716,-2.4212,0.0,-2.5615,0.0,-3.1154,0.0,0.0,0.0,0.0,0.0,0.0,0.0,0.0,0.0,0.0,0.0,-5.0673,-5.0653,-5.0653,-5.05,-5.0287,-5.0019,-4.9735,-4.9336,-4.8864,-4.873,-4.8532,-4.8306,-4.8306,-4.8306,-4.8306,-4.8306,-4.8306,-4.8306,-4.8306,-4.8306,-4.8306,-4.8306,-4.8306,-4.8306,-4.8306,-4.8306,-4.8306,-4.8306,-4.8306,-4.8306,-4.8306,-4.726,-4.5902,-4.5902,-4.48,-4.3515,-4.3515,-4.3515,-4.3515,-4.3515,-4.3515,-4.3515,-4.3515,-4.3515,-4.3423,-4.3057,-4.2029,-4.0655,-3.9056,-3.8707,-3.8707,-3.8707,-3.8707,-3.8505,-3.7878,-3.7768,-3.7492,-3.667,-3.5973,-3.5408,-3.5059,-3.4454,-3.399,-3.3825,-3.3807,-3.3807,-3.3807,-3.3807,-3.3807,-3.3807,-3.3807,-3.3807,-3.3807,-3.3807,-3.3807,-3.3807,-3.3807,-3.3807,-3.3807,-3.3807,-3.3807,-3.3807,-3.3807,-3.3807,-3.8977,-3.8661,-3.8104,-3.8027,-3.5545,-3.2679,-3.0923,0.0,0.0,-2.337,-2.1696,-2.0808,-2.1696,-2.185,-2.2966,-2.639,-2.9019,-3.1827,0.0,0.0,0.0,0.0,0.0,0.0,0.0,0.0,0.0,-5.0712,-5.0593,-5.0521,-5.0521,-5.0278,-5.0006,-4.9754,-4.9355,-4.9003,-4.873,-4.8587,-4.8438,-4.8306,-4.8306,-4.8306,-4.8306,-4.8306,-4.8306,-4.8306,-4.8306,-4.8306,0.0,-4.8306,-4.8306,-4.8306,-4.8306,-4.8306,-4.8306,-4.8306,-4.8306,-4.8306,-4.8306,-4.726,-4.5902,-4.5902,-4.48,-4.3515,-4.3515,-4.3515,-4.3515,-4.3515,-4.3515,-4.3515,-4.3515,-4.3515,-4.313,-4.168,-4.1205,-4.0655,-3.9056,-3.8707,-3.8707,-3.8707,-3.8707,-3.8689,-3.8597,-3.8597,-3.8322,-3.7511,-3.7327,-3.6707,-3.5206,-3.4949,-3.4619,-3.388,-3.3807,-3.3807,-3.3807,-3.3807,-3.3807,-3.3807,-3.3807,-3.3807,-3.3807,-3.3807,-3.3807,-3.3807,-3.3807,-3.3807,-3.3807,-3.3807,-3.3807,-3.3807,-3.3807,-3.3807,-3.7507,-3.7488,-3.7103,-3.6615,-3.468,-3.2314,-3.0121,0.0,-2.4827,-2.3139,-2.1466,-2.0558,-2.135,-2.1504,-2.2447,-2.5346,-2.7544,-3.0083,-3.3468,0.0,0.0,0.0,0.0,0.0,0.0,0.0,0.0,-5.0554,-5.0371,-5.0188,-5.0025,-4.9922,-4.9651,-4.924,-4.8967,-4.873,-4.8476,-4.8401,-4.8363,-4.8306,-4.8306,-4.8306,-4.8306,-4.8306,-4.8306,-4.8306,-4.8306,-4.8306,0.0,-4.8306,-4.8306,-4.8306,-4.8306,-4.8306,-4.8306,-4.8306,-4.7975,-4.7571,-4.7571,-4.6526,-4.5186,-4.5186,-4.4415,-4.3515,-4.3515,-4.3515,-4.3515,-4.3515,-4.3515,-4.3515,-4.3515,-4.3515,-4.3222,-4.2084,-4.1444,-4.0783,-3.9662,-3.9038,-3.8707,-3.8707,-3.8707,-3.8707,-3.8707,-3.8707,-3.8597,-3.8267,-3.7823,-3.7088,-3.5936,-3.5316,-3.4692,-3.3899,-3.3807,-3.3807,-3.3807,-3.3807,-3.3807,-3.3807,-3.3807,-3.3807,-3.3807,-3.3807,-3.3807,-3.3807,-3.3807,-3.3807,-3.3807,-3.3807,-3.3807,-3.3807,-3.4289,-3.4509,-3.6115,-3.6519,-3.65,-3.5692,-3.4,-3.1948,0.0,-2.6948,-2.4543,-2.3105,-2.1466,-2.0462,-2.1038,-2.135,-2.2177,-2.4231,-2.6447,-2.8986,-3.2102,-3.5468,0.0,0.0,0.0,0.0,0.0,0.0,-4.9623,-5.032,-5.0132,-4.9828,-4.9472,-4.9431,-4.9227,-4.8847,-4.8712,-4.8532,-4.8306,-4.8306,-4.8306,-4.8306,-4.8306,-4.8306,-4.8306,-4.8306,-4.8306,-4.8306,-4.8306,-4.8306,0.0,-4.8306,-4.8306,-4.8306,-4.8306,-4.8306,-4.8306,-4.8306,-4.7791,-4.7094,-4.7094,-4.6049,-4.4691,-4.4691,-4.4158,-4.3515,-4.3515,-4.3515,-4.3515,-4.3515,-4.3515,-4.3515,-4.3515,-4.3515,-4.3313,-4.2488,-4.1682,-4.0875,-4.0065,-3.9276,-3.8707,-3.8707,-3.8707,-3.8707,-3.8707,-3.8707,-3.8707,-3.8707,-3.8212,-3.7477,-3.6431,-3.5756,-3.4968,-3.3917,-3.3807,-3.3807,-3.3807,-3.3807,-3.3807,-3.3807,-3.3807,-3.3807,-3.3807,-3.3807,-3.3807,-3.3807,-3.3807,-3.3807,-3.3807,-3.3807,-3.3917,-3.4174,-3.4747,-3.5205,-3.5269,-3.6096,-3.65,-3.5692,-3.3596,-3.1256,-2.9492,-2.651,-2.386,-2.299,-2.1466,-2.0308,-2.0308,-2.0962,-2.1793,-2.2682,-2.5683,-2.8794,-3.1352,-3.4596,0.0,0.0,0.0,0.0,0.0,0.0,-4.9447,-5.0059,-4.9857,0.0,-4.8947,-4.8763,-4.8694,-4.8694,-4.8569,-4.8438,-4.8306,-4.8306,-4.8306,-4.8306,-4.8306,-4.8306,-4.8306,-4.8306,-4.8306,-4.8306,-4.8306,-4.8306,0.0,-4.8306,-4.8306,-4.8306,-4.8306,-4.8306,-4.8306,-4.8306,-4.7791,-4.7094,-4.7094,-4.6049,-4.4691,-4.4691,-4.4158,-4.3515,-4.3515,-4.3515,-4.3515,-4.3515,-4.3515,-4.3515,-4.3515,-4.3515,-4.3313,-4.2488,-4.1682,-4.0875,-4.0065,-3.9276,-3.8707,-3.8707,-3.8707,-3.8707,-3.8707,-3.8707,-3.8707,-3.8707,-3.8689,-3.812,-3.6505,-3.6285,-3.5642,-3.3972,-3.3807,-3.3807,-3.3807,-3.3807,-3.3807,-3.3807,-3.3807,-3.3807,-3.3807,-3.3807,-3.3807,-3.3807,-3.3807,-3.3807,-3.3807,-3.3807,-3.4211,-3.4986,-3.5004,-3.5692,-3.2673,-3.3487,-3.3776,-3.2365,-3.1404,-3.0212,-2.7909,-2.5683,-2.386,-2.299,-2.1466,-2.0308,-2.0308,-2.0962,-2.1793,-2.2663,-2.5178,-2.7909,0.0,0.0,0.0,0.0,0.0,0.0,0.0,0.0,-4.8766,-4.9873,-4.967,-4.928,-4.8799,-4.8641,-4.8513,-4.842,-4.8382,-4.8325,-4.8306,-4.8306,-4.8306,-4.8306,-4.8306,-4.8306,-4.8306,-4.8306,-4.8306,-4.8306,-4.8306,-4.8306,-4.8306,-4.8306,-4.8306,-4.8306,-4.8306,-4.7957,-4.748,-4.748,-4.6617,-4.5461,-4.5461,-4.4782,-4.3883,-4.3883,-4.3699,-4.3515,-4.3515,-4.3515,-4.3515,-4.3515,-4.3515,-4.3515,-4.3515,-4.3515,-4.3441,-4.3167,-4.2084,-4.1022,-4.0781,-3.9662,-3.8707,-3.8707,-3.8707,-3.8707,-3.8707,-3.8707,-3.8707,-3.8707,-3.8707,-3.8322,-3.7272,-3.7125,-3.6721,-3.5624,-3.4981,-3.4399,-3.3844,-3.3807,-3.3807,-3.3807,-3.3807,-3.3807,-3.3807,-3.3807,-3.3807,-3.3807,-3.3807,-3.3807,-3.3807,-3.4344,-3.5349,-3.6707,-3.6707,-3.7077,-3.0314,-3.1314,-3.1641,-3.0256,-2.9679,-2.8865,-2.6615,-2.4812,-2.3355,-2.2489,-2.1235,-2.0385,-2.0692,-2.1427,-2.2274,-2.3144,-2.5433,-2.7986,0.0,0.0,0.0,0.0,0.0,0.0,0.0,-4.8227,-4.8712,-4.9671,-4.9461,-4.9073,-4.8569,-4.8458,-4.8382,-4.8306,-4.8306,-4.8306,-4.8306,-4.8306,-4.8306,-4.8306,-4.8306,-4.8306,-4.8306,-4.8306,-4.8306,-4.8306,-4.8306,-4.8306,0.0,-4.8306,-4.8306,-4.8306,-4.8306,-4.781,-4.7094,-4.7094,-4.6085,-4.4691,-4.4691,-4.4176,-4.3515,-4.3515,-4.348,-4.3445,-4.341,-4.3427,-4.3515,-4.3515,-4.3515,-4.3515,-4.3515,-4.3515,-4.3515,-4.3515,-4.2506,-4.1462,-4.1168,-4.0068,-3.9056,-3.8762,-3.8707,-3.8707,-3.8707,-3.8707,-3.8707,-3.8707,-3.8707,-3.8414,-3.7603,-3.7492,-3.7199,-3.6376,-3.5807,-3.5279,-3.4798,-3.4156,-3.3807,-3.3807,-3.3807,-3.3807,-3.3807,-3.3807,-3.3807,-3.3807,-3.3807,-3.3954,-3.4266,-3.5404,-3.6486,-3.7511,-3.7823,-3.8024,0.0,-2.9467,-3.0,-2.9146,-2.8357,-2.7351,-2.5615,-2.3966,0.0,-2.1677,-2.0904,-2.0615,-2.137,-2.2312,-2.324,-2.4048,-2.6376,-2.8948,0.0,-3.4135,0.0,0.0,0.0,0.0,-4.8019,-4.8654,-4.9118,-4.9461,-4.9243,-4.8852,-4.8325,-4.8306,-4.8269,-4.8233,-4.8214,-4.8214,-4.8214,-4.8269,-4.8269,-4.8233,-4.8269,-4.8306,-4.8306,-4.8306,-4.8269,0.0,-4.8214,-4.8196,-4.8141,-4.8196,-4.8214,-4.8233,-4.8288,-4.7755,-4.7003,-4.7003,-4.5993,-4.4617,-4.4617,-4.4121,-4.3515,-4.3515,-4.3464,-4.3358,-4.3214,-4.3304,-4.348,-4.348,-4.3497,-4.3479,-4.3515,-4.3497,-4.3497,-4.3479,-4.2856,-4.2067,-4.1244,-4.0453,-3.9662,-3.8854,-3.8707,-3.8707,-3.8707,-3.8707,-3.8707,-3.8707,-3.8707,-3.8432,-3.7676,-3.7584,-3.7309,-3.6541,-3.6413,-3.6376,-3.6376,-3.4908,-3.3972,-3.3972,-3.3972,-3.3972,-3.3972,-3.3972,-3.3972,-3.3972,-3.3972,-3.4376,-3.5188,-3.6743,-3.7529,-3.7603,-3.834,-3.8483,-2.474,0.0,-2.8275,-2.7409,-2.7044,-2.6467,0.0,-2.3567,-2.2547,-2.1677,-2.135,-2.1273,-2.1466,-2.325,-2.4788,-2.4981,-2.7712,-3.0462,-3.2352,0.0,0.0,-4.4556,-4.53,-4.6407,-4.8709,-4.8831,-4.8945,-4.9318,-4.9104,-4.8767,-4.8325,-4.8306,-4.8012,-4.7388,-4.7369,-4.7369,-4.7369,-4.7975,-4.7975,-4.7388,-4.8012,-4.8306,-4.8306,-4.8306,-4.7957,-4.7369,-4.7369,-4.7021,-4.6507,-4.7131,-4.7369,-4.7443,-4.8067,-4.7443,-4.6177,-4.6177,-4.5168,-4.3773,-4.3773,-4.3644,-4.3515,-4.3515,-4.3393,-4.3178,-4.2902,-4.3032,-4.3268,-4.3268,-4.334,-4.3429,-4.3497,-4.3463,-4.3394,-4.3286,-4.2666,-4.1863,-4.1041,-4.0269,-3.953,-3.8839,-3.8707,-3.8707,-3.8707,-3.8707,-3.8707,-3.8707,-3.8707,-3.8634,-3.8432,-3.8414,-3.8358,-3.8157,-3.7588,-3.7217,-3.7217,-3.6285,-3.5716,-3.5716,-3.5716,-3.5716,-3.5716,-3.5716,-3.5716,-3.5716,-3.5716,-3.6101,-3.6923,-3.7309,-3.7823,-3.8414,-3.8615,-3.8483,-2.3144,-2.5067,-2.6601,-2.6115,-2.6,-2.5563,-2.3894,-2.2836,-2.1966,-2.1115,0.0,-2.1735,-2.2547,-2.4447,-2.6288,-2.7442,-2.9846,0.0,0.0,0.0,0.0,0.0,-4.6666,-4.7384,0.0,-4.934,-4.8994,-4.8596,-4.8379,-4.7957,-4.7242,-4.7205,-4.7003,-4.6544,-4.6562,-4.6562,-4.6562,-4.6985,-4.6985,-4.6562,-4.7003,-4.7205,-4.7205,-4.7205,-4.6966,-4.6562,-4.6562,-4.6305,-4.5957,-4.6764,-4.7094,-4.7186,-4.7975,-4.7315,-4.5902,-4.5902,-4.4874,-4.3515,-4.3515,-4.348,-4.3428,-4.3393,-4.316,-4.2862,-4.2498,-4.2478,-4.2653,-4.2901,-4.3087,-4.3269,-4.3444,-4.341,-4.3251,-4.3013,-4.2631,-4.1996,-4.0781,-4.0305,-3.982,-3.8881,-3.8707,-3.8707,-3.8707,-3.8707,-3.8707,-3.8707,-3.8707,-3.8707,-3.8707,-3.8707,-3.8707,-3.8707,-3.8303,-3.8046,-3.8046,-3.7643,-3.7092,-3.634,-3.6303,-3.6303,-3.6303,-3.6303,-3.6303,-3.6303,-3.6666,-3.707,-3.7492,-3.7878,-3.8267,-3.8707,-3.8707,-3.8483,-2.2528,-2.412,-2.55,-2.55,-2.55,-2.5096,-2.3543,0.0,0.0,0.0,0.0,0.0,-2.4163,-2.5967,0.0,0.0,0.0,0.0,-4.0227,-4.2854,-4.524,-4.7798,-4.7981,0.0,-4.9928,-4.9703,-4.8957,-4.7777,-4.7429,-4.687,-4.5957,-4.5902,-4.5847,-4.5718,-4.5718,-4.5663,-4.5535,-4.5773,-4.5847,-4.5718,-4.5847,-4.5902,-4.5902,-4.5902,-4.5828,-4.5718,0.0,0.0,-4.5608,-4.6526,-4.6911,-4.7003,-4.7938,-4.7315,-4.5902,-4.5902,-4.4874,-4.3515,-4.3515,-4.3428,-4.334,-4.3178,-4.2825,-4.2414,-4.1969,-4.1799,-4.186,-4.23,-4.2674,-4.2995,-4.3322,-4.325,-4.2995,-4.2655,-4.2596,-4.22,-4.067,-4.0456,-4.0249,-3.9103,-3.8781,-3.8707,-3.8707,-3.8707,-3.8707,-3.8707,-3.8707,-3.8707,-3.8707,-3.8707,-3.8707,-3.8707,-3.8707,-3.8707,-3.8707,-3.8707,-3.812,-3.6743,-3.667,-3.667,-3.667,-3.667,-3.667,-3.667,-3.7345,-3.7676,-3.7676,-3.8377,-3.8707,-3.8707,-3.8707,-3.8538,-2.2374,-2.4562,-2.6409,-2.6409,-2.6409,-2.6135,-2.5135,-2.4293,0.0,0.0,0.0,0.0,0.0,-2.8192,-3.0404,0.0,0.0,-3.9335,0.0,0.0,-4.524,-4.7798,0.0,-4.843,-4.9791,-4.9013,-4.8178,-4.7576,-4.6776,-4.6193,-4.592,-4.5902,-4.559,-4.4911,-4.4892,-4.4562,-4.3882,-4.5223,-4.5571,-4.4892,-4.5571,-4.5902,-4.5902,-4.5902,-4.5535,-4.4892,0.0,-4.4507,-4.3992,-4.5461,-4.6085,-4.6232,-4.7719,-4.7315,-4.5902,-4.5902,-4.4874,-4.3515,-4.3515,-4.3375,-4.3178,-4.2882,-4.2478,-4.1952,-4.1286,-4.1094,-4.1128,-4.1173,-4.181,-4.2575,-4.2901,-4.275,-4.2438,-4.2177,-4.2151,-4.1981,-4.1139,-4.0743,-4.0361,-3.9818,-3.9166,-3.8707,-3.8707,-3.8707,-3.8707,-3.8707,-3.8707,-3.8707,-3.8707,-3.8707,-3.8707,-3.8707,-3.8707,-3.8707,-3.8707,-3.8707,-3.8597,-3.8358,-3.834,-3.834,-3.834,-3.834,-3.834,-3.834,-3.845,-3.8524,-3.8524,-3.8634,-3.8707,-3.8707,-3.8707,-3.8848,-2.2331,-2.4312,-2.6115,-2.7063,-2.7621,-2.7601,-2.6288,-2.5351,-2.4639,0.0,0.0,0.0,0.0,0.0,-3.291,-3.643,0.0,-4.2412,-4.3585,-4.447,-4.5605,0.0,0.0,-4.7461,-4.8261,-4.7757,-4.7005,-4.606,-4.5587,-4.5129,-4.4617,-4.4599,-4.4433,-4.4066,-4.4048,-4.3864,-4.3515,-4.4232,-4.4415,-4.4066,-4.4415,-4.4599,-4.4599,-4.4599,-4.4397,-4.4048,0.0,-4.3828,-4.3589,-4.4764,-4.5516,-4.5975,-4.6709,-4.6544,-4.5792,-4.4911,-4.414,-4.3515,-4.3515,-4.334,-4.3068,-4.2673,-4.2213,-4.1644,-4.0955,-4.0731,-4.0741,-4.0737,-4.1258,-4.1888,-4.2221,-4.2118,-4.1825,-4.1486,-4.1561,-4.1558,-4.0961,-4.0909,-4.0782,-4.004,-3.9588,-3.9203,-3.8781,-3.8707,-3.8707,-3.8707,-3.8707,-3.8707,-3.8707,-3.8707,-3.8707,-3.8707,-3.8707,-3.8707,-3.8707,-3.8707,-3.8707,-3.8707,-3.8707,-3.8707,-3.8707,-3.8707,-3.8707,-3.8707,-3.8707,-3.8707,-3.8707,-3.8707,-3.8707,-3.8707,-3.9148,-3.9323,-2.2139,-2.387,-2.5615,-2.6967,-2.8203,-2.8819,-2.7736,-2.6827,-2.625,0.0,0.0,0.0,0.0,-3.2705,0.0,-4.0419,-4.2893,-4.4374,-4.4586,-4.519,-4.5913,-4.6797,-4.6655,-4.6622,-4.6979,-4.6648,-4.5948,-4.4781,-4.4544,-4.4158,-4.3533,-4.3515,-4.3515,-4.3515,-4.3515,-4.3515,-4.3515,-4.3515,-4.3515,-4.3515,-4.3515,-4.3515,-4.3515,-4.3515,-4.3515,-4.3515,-4.3515,-4.3515,-4.3552,-4.4378,-4.5057,-4.5645,-4.5828,-4.5773,-4.5443,-4.4011,-4.3515,-4.3515,-4.3515,-4.3304,-4.2974,-4.2438,-4.192,-4.1386,-4.0676,-4.0451,-4.0419,-4.0476,-4.0737,-4.1116,-4.1547,-4.1503,-4.1236,-4.0897,-4.1105,-4.1238,-4.0941,-4.1143,-4.1214,-4.0592,-4.0304,-3.9937,-3.9129,-3.8982,-3.8927,-3.8726,-3.8707,-3.8707,-3.8707,-3.8854,-3.8982,-3.8982,-3.9148,-3.9203,-3.9001,-3.8817,-3.8707,-3.8707,-3.8707,-3.8707,-3.8707,-3.8707,-3.8707,-3.8707,-3.8707,-3.8707,-3.8707,-3.8707,-3.8799,-3.9001,-3.9606,-3.9889,-2.1562,-2.3404,-2.5327,-2.5462,-2.7313,-2.928,-2.9962,-2.9448,-2.9063,-2.9865,0.0,0.0,0.0,-3.7187,-4.0612,-4.2585,-4.3682,-4.4586,-4.5402,0.0,-4.5913,-4.6797,-4.6655,-4.6622,-4.6979,-4.6138,-4.535,-4.4744,-4.4011,-4.3552,-4.3515,-4.3515,-4.3515,-4.3515,-4.3515,-4.3515,-4.3515,-4.3515,-4.3515,-4.3515,-4.3515,-4.3515,-4.3515,-4.3515,-4.3515,-4.3515,-4.3515,-4.3515,-4.3552,-4.4378,-4.4728,-4.4874,-4.5608,-4.5443,-4.4673,-4.3809,-4.3515,-4.3515,-4.3515,-4.325,-4.2806,-4.208,-4.1565,-4.1094,-4.037,-4.0121,-4.0121,-4.0121,-4.0171,-4.0353,-4.1053,-4.1036,-4.0825,-4.0659,-4.0877,-4.1226,-4.1629,-4.1538,-4.1539,-4.2038,-4.1534,-4.0763,-3.9955,-3.9808,-3.9551,-3.8817,-3.8707,-3.8707,-3.8707,-3.935,-3.9808,-3.9808,-4.0487,-4.0618,-3.9882,-3.9129,-3.8707,-3.8707,-3.8707,-3.8707,-3.8707,-3.8707,-3.8707,-3.8707,-3.8707,-3.8707,-3.8707,-3.8707,-3.9074,-3.9808,-3.9863,-4.0474,-2.297,-2.4197,-2.5558,-2.6659,-2.8429,-2.9981,-3.0327,-3.0948,-3.1718,-3.2583,-3.3192,0.0,0.0,0.0,-4.09,-4.2104,-4.3412,-4.4605,-4.5479,-4.5594,-4.5729,-4.6047,-4.5888,-4.57,-4.5519,-4.4998,-4.4479,-4.399,-4.3663,-4.3515,-4.3515,-4.3515,-4.3515,-4.3515,-4.3515,-4.3515,-4.3515,-4.3515,-4.3515,-4.3515,-4.3515,-4.3515,-4.3515,-4.3515,-4.3515,-4.3515,-4.3515,-4.3515,-4.3533,-4.3828,-4.425,-4.4728,-4.5039,-4.4654,-4.392,-4.3608,-4.3463,-4.3429,-4.334,-4.2995,-4.2478,-4.1828,-4.1321,-4.0825,-4.0254,-4.0096,-4.0096,-4.0096,-4.0096,-4.0171,-4.0451,-4.0451,-4.0353,-4.0303,-4.0655,-4.1134,-4.1678,-4.1986,-4.2171,-4.2277,-4.2047,-4.1589,-4.0781,-4.0653,-4.0377,-3.957,-3.9882,-4.001,-3.9515,-4.0157,-4.0653,-4.0653,-4.0912,-4.0967,-4.0671,-3.9918,-3.9441,-3.9441,-3.8982,-3.8707,-3.8707,-3.8707,-3.8707,-3.8707,-3.8707,-3.8707,-3.8707,-3.9203,-3.9588,-3.9918,-4.0928,-4.1497,-2.3528,-2.4298,-2.5274,-2.6717,-2.875,-3.0538,-3.1077,-3.25,-3.4045,-3.5161,-3.6084,-3.6949,-3.7757,0.0,0.0,0.0,-4.3624,-4.4921,-4.5518,-4.5577,-4.5568,-4.555,-4.533,-4.503,-4.4585,-4.4289,-4.3952,-4.3531,-4.3515,-4.3515,-4.3515,-4.3515,-4.3515,-4.3515,-4.3515,-4.3515,-4.3515,-4.3515,-4.3515,-4.3515,-4.3515,-4.3515,-4.3515,-4.3515,-4.3515,-4.3515,-4.3515,-4.3515,-4.3515,-4.3515,-4.3809,-4.4323,-4.4323,-4.3975,-4.3515,-4.3515,-4.3428,-4.3305,-4.3105,-4.2711,-4.2157,-4.1543,-4.1065,-4.0676,-4.0246,-4.0096,-4.0096,-4.0096,-4.0096,-4.0096,-4.0096,-4.0096,-4.0096,-4.0096,-4.0485,-4.0995,-4.1569,-4.2074,-4.2449,-4.2485,-4.2517,-4.2297,-4.1525,-4.1431,-4.1172,-4.0414,-4.0763,-4.0893,-4.0359,-4.0983,-4.1572,-4.1827,-4.1552,-4.1387,-4.1462,-4.0891,-4.0467,-4.0286,-3.9772,-3.9239,-3.8726,-3.8707,-3.8817,-3.9074,-3.9074,-3.9203,-3.946,-4.001,-4.0414,-4.0671,-4.1791,-4.2209,-2.2836,-2.3471,-2.4317,-2.5135,0.0,0.0,-3.2545,-3.4269,-3.6,-3.77,-3.8719,-3.9573,-4.0362,-4.1931,0.0,-4.3104,-4.4489,-4.5594,-4.5594,-4.5531,-4.5457,-4.541,-4.5154,-4.4839,-4.4443,-4.4166,-4.3862,-4.3532,-4.3515,-4.3515,-4.3515,-4.3515,-4.3515,-4.3515,-4.3515,-4.3515,-4.3515,-4.3515,-4.3515,-4.3515,-4.3515,-4.3515,-4.3515,-4.3515,-4.3515,-4.3515,-4.3515,-4.3515,-4.3515,-4.3515,-4.3515,-4.3515,-4.3497,-4.3497,-4.3497,-4.3479,-4.3375,-4.3142,-4.2807,-4.238,-4.1867,-4.1225,-4.0825,-4.0531,-4.0196,-4.0096,-4.0096,-4.0096,-4.0096,-4.0096,-4.0096,-4.0096,-4.0096,-4.0096,-4.0412,-4.083,-4.1388,-4.1817,-4.2249,-4.2787,-4.2994,-4.2868,-4.2121,-4.2118,-4.1966,-4.1207,-4.1113,-4.1113,-4.1113,-4.1827,-4.2616,-4.3423,-4.256,-4.2027,-4.2286,-4.2083,-4.168,-4.115,-4.1113,-4.038,-3.8799,-3.8726,-3.9093,-3.99,-3.9916,-4.0304,-4.1095,-4.1113,-4.1517,-4.2304,-4.2304,-4.2519,-2.5139,-2.5659,0.0,-2.8385,0.0,0.0,0.0,-3.6449,0.0,0.0,-4.1373,-4.1854,-4.1489,-4.2335,0.0,-4.3104,-4.3989,-4.4893,-4.5518,-4.5504,-4.5362,-4.5211,-4.495,-4.4599,-4.4165,-4.3999,-4.3816,-4.3513,-4.3515,-4.3515,-4.3515,-4.3515,-4.3515,-4.3515,-4.3515,-4.3515,-4.3515,-4.3515,-4.3515,-4.3515,-4.3515,-4.3515,-4.3515,-4.3515,-4.3515,-4.3515,-4.3515,-4.3515,-4.3515,-4.3515,-4.3463,-4.3411,-4.3322,-4.3251,-4.3215,-4.3105,-4.2883,-4.2595,-4.23,-4.1864,-4.1356,-4.0873,-4.0573,-4.0345,-4.0163,-4.0096,-4.0096,-4.0096,-4.0096,-4.0096,-4.0096,-4.0096,-4.0096,-4.0096,-4.0337,-4.0645,-4.1007,-4.1326,-4.1652,-4.2059,-4.232,-4.2483,-4.25,-4.2631,-4.2576,-4.2032,-4.2433,-4.2782,-4.2782,-4.3002,-4.3239,-4.3478,-4.3221,-4.3074,-4.313,-4.3074,-4.2947,-4.28,-4.1735,-4.0893,-4.0398,-4.038,-4.049,-4.0744,-4.0744,-4.0857,-4.1095,-4.168,-4.2066,-4.2304,-4.2873,-4.3067,-2.6043,-2.6851,0.0,-3.0269,-3.2442,-3.468,-3.7565,0.0,0.0,0.0,-4.2739,-4.3047,-4.2835,-4.322,0.0,-4.3585,-4.4259,-4.4998,-4.5537,-4.5476,-4.5301,-4.5052,-4.4763,-4.4411,-4.3992,-4.3844,-4.3701,-4.3496,-4.3515,-4.3515,-4.3515,-4.3515,-4.3515,-4.3515,-4.3515,-4.3515,-4.3515,-4.3515,-4.3515,-4.3515,-4.3515,-4.3515,-4.3515,-4.3515,-4.3515,-4.3515,-4.3515,-4.3515,-4.3515,-4.3515,-4.3428,-4.3305,-4.3087,-4.2938,-4.2786,-4.2557,-4.2282,-4.1994,-4.1678,-4.1298,-4.089,-4.0507,-4.032,-4.0213,-4.0121,-4.0096,-4.0096,-4.0096,-4.0096,-4.0096,-4.0096,-4.0096,-4.0096,-4.0096,-4.0246,-4.0493,-4.072,-4.1001,-4.1293,-4.1648,-4.2008,-4.2335,-4.2653,-4.2902,-4.3014,-4.2803,-4.3185,-4.3515,-4.3515,-4.3515,-4.3515,-4.3515,-4.3515,-4.3515,-4.3515,-4.3515,-4.3515,-4.3515,-4.2598,-4.2047,-4.2047,-4.1425,-4.1242,-4.1572,-4.1572,-4.1735,-4.2047,-4.2543,-4.2782,-4.2782,-4.3276,-4.3286,-2.6005,-2.7351,0.0,-3.1275,-3.3904,0.0,-3.9785,-4.1239,-4.2143,-4.2931,0.0,-4.3547,-4.4278,-4.4412,-4.4412,-4.4412,-4.5075,-4.5594,-4.5594,-4.5477,-4.5248,-4.4915,-4.4585,-4.425,-4.3897,-4.3701,-4.3565,-4.3496,-4.3515,-4.3515,-4.3515,-4.3515,-4.3515,-4.3515,-4.3515,-4.3515,-4.3515,-4.3515,-4.3515,-4.3515,-4.3515,-4.3515,-4.3515,-4.3515,-4.3515,-4.3515,-4.3515,-4.3497,-4.3497,-4.348,-4.3339,-4.3105,-4.2769,-4.2498,-4.2277,-4.1892,-4.1617,-4.137,-4.1013,-4.0744,-4.0507,-4.0196,-4.0096,-4.0096,-4.0096,-4.0096,-4.0096,-4.0096,-4.0096,-4.0096,-4.0096,-4.0096,-4.0096,-4.0096,-4.0188,-4.0337,-4.0507,-4.0789,-4.1071,-4.1475,-4.1892,-4.229,-4.2614,-4.2939,-4.3214,-4.3462,-4.3515,-4.3515,-4.3515,-4.3515,-4.3515,-4.3515,-4.3515,-4.3515,-4.3515,-4.3515,-4.3515,-4.3515,-4.3515,-4.3515,-4.3515,-4.2103,-4.1645,-4.2396,-4.2415,-4.2763,-4.3515,-4.3515,-4.3515,-4.3515,-4.3515,-4.3286,-2.6736,-2.8222,0.0,0.0,-3.6084,-3.8834,-4.0189,-4.17,-4.2874,-4.3066,-4.4143,-4.5114,-4.5287,-4.5325,-4.5325,-4.5325,-4.5479,-4.5594,-4.5594,-4.5429,-4.5162,-4.4714,-4.443,-4.4072,-4.3632,-4.3549,-4.3532,-4.3515,-4.3515,-4.3515,-4.3515,-4.3515,-4.3515,-4.3515,-4.3515,-4.3515,-4.3515,-4.3515,-4.3515,-4.3515,-4.3515,-4.3515,-4.3515,-4.3515,-4.3515,-4.3515,-4.3515,-4.3463,-4.3411,-4.3304,-4.305,-4.2689,-4.2297,-4.1987,-4.174,-4.144,-4.1174,-4.0926,-4.0713,-4.0531,-4.0337,-4.0163,-4.0096,-4.0096,-4.0096,-4.0096,-4.0096,-4.0096,-4.0096,-4.0096,-4.0096,-4.0096,-4.0096,-4.0096,-4.0138,-4.0146,-4.0196,-4.0419,-4.0693,-4.0984,-4.122,-4.1578,-4.234,-4.2595,-4.29,-4.341,-4.3515,-4.3515,-4.3515,-4.3515,-4.3515,-4.3515,-4.3515,-4.3515,-4.3515,-4.3515,-4.3515,-4.3515,-4.3515,-4.3515,-4.3515,-4.3167,-4.3057,-4.3239,-4.3239,-4.3331,-4.3515,-4.3515,-4.3515,-4.3515,-4.3515,-4.3286,-2.6972,0.0,0.0,-3.5591,0.0,-3.9977,-4.04,-4.1527,-4.2604,-4.3008,-4.4432,-4.5594,-4.5594,-4.5594,-4.5594,-4.5594,-4.5577,-4.5531,-4.5504,-4.53,-4.4995,-4.4559,-4.4279,-4.3955,-4.3531,-4.3515,-4.3515,-4.3515,-4.3515,-4.3515,-4.3515,-4.3515,-4.3515,-4.3515,-4.3515,-4.3515,-4.3515,-4.3515,-4.3515,-4.3515,-4.3515,-4.3515,-4.3515,-4.3515,-4.3515,-4.3515,-4.3515,-4.3428,-4.3287,-4.3068,-4.2692,-4.2274,-4.17,-4.1321,-4.1094,-4.0789,-4.058,-4.0458,-4.036,-4.0296,-4.0188,-4.0138,-4.0096,-4.0096,-4.0096,-4.0096,-4.0096,-4.0096,-4.0096,-4.0096,-4.0096,-4.0096,-4.0096,-4.0096,-4.0096,-4.0096,-4.0096,-4.0196,-4.0444,-4.0825,-4.1293,-4.1817,-4.2396,-4.2806,-4.3142,-4.3444,-4.3515,-4.3515,-4.3515,-4.3515,-4.3515,-4.3515,-4.3515,-4.3515,-4.3515,-4.3515,-4.3515,-4.3515,-4.3515,-4.3515,-4.3515,-4.3515,-4.3515,-4.3515,-4.3515,-4.3515,-4.3515,-4.3515,-4.3515,-4.3515,-4.3515,-4.3286,-2.6799,0.0,-3.3449,-3.795,-3.9785,0.0,-4.0496,-4.1162,-4.2047,-4.2912,-4.4316,-4.5421,-4.5575,-4.5594,-4.5594,-4.5594,-4.5522,-4.5448,-4.5352,-4.5132,-4.4795,-4.4383,-4.4117,-4.3862,-4.3513,-4.3515,-4.3515,-4.3515,-4.3515,-4.3515,-4.3515,-4.3515,-4.3515,-4.3515,-4.3515,-4.3515,-4.3515,-4.3515,-4.3515,-4.3515,-4.3515,-4.3515,-4.3515,-4.3515,-4.3515,-4.3515,-4.3515,-4.3393,-4.316,-4.2788,-4.236,-4.1864,-4.1127,-4.072,-4.0507,-4.0221,-4.0096,-4.0096,-4.0096,-4.0096,-4.0096,-4.0096,-4.0096,-4.0096,-4.0096,-4.0096,-4.0096,-4.0096,-4.0096,-4.0096,-4.0096,-4.0096,-4.0096,-4.0096,-4.0096,-4.0096,-4.0096,-4.0096,-4.0246,-4.0728,-4.1692,-4.2498,-4.2728,-4.3178,-4.3515,-4.3515,-4.3515,-4.3515,-4.3515,-4.3515,-4.3515,-4.3515,-4.3515,-4.3515,-4.3515,-4.3515,-4.3515,-4.3515,-4.3515,-4.3515,-4.3515,-4.3515,-4.3515,-4.3515,-4.3515,-4.3515,-4.3515,-4.3515,-4.3479,-4.348,-4.3463,-4.3232,0.0,0.0,-3.55,0.0,-3.9361,-4.0496,0.0,0.0,-4.2047,0.0,-4.3835,-4.4701,-4.546,-4.5594,-4.5594,-4.5594,-4.5495,-4.5342,-4.5169,-4.4915,-4.4572,-4.4121,-4.3968,-4.38,-4.3532,-4.3515,-4.3515,-4.3515,-4.3515,-4.3515,-4.3515,-4.3515,-4.3515,-4.3515,-4.3515,-4.3515,-4.3515,-4.3515,-4.3515,-4.3515,-4.3515,-4.3515,-4.3515,-4.3515,-4.3515,-4.3515,-4.3515,-4.334,-4.3086,-4.2632,-4.213,-4.1587,-4.0896,-4.0524,-4.0313,-4.0163,-4.0096,-4.0096,-4.0096,-4.0096,-4.0096,-4.0096,-4.0096,-4.0096,-4.0096,-4.0096,-4.0096,-4.0096,-4.0096,-4.0096,-4.0096,-4.0096,-4.0096,-4.0096,-4.0096,-4.0096,-4.0096,-4.0096,-4.0196,-4.0493,-4.2059,-4.3339,-4.3375,-4.3463,-4.3515,-4.3515,-4.3515,-4.3515,-4.3515,-4.3515,-4.3515,-4.3515,-4.3515,-4.3515,-4.3515,-4.3515,-4.3515,-4.3515,-4.3515,-4.3515,-4.3515,-4.3515,-4.3515,-4.3515,-4.3515,-4.3515,-4.3515,-4.3515,-4.3463,-4.3394,-4.3286,-4.2957,-2.7519,-3.1698,-3.5411,0.0,-3.9284,-3.9958,-4.04,0.0,-4.1316,-4.22,-4.3047,-4.4028,-4.5364,-4.5594,-4.5594,-4.5594,-4.5486,-4.5291,-4.503,-4.4726,-4.4402,-4.398,-4.3812,-4.3666,-4.3515,-4.3515,-4.3515,-4.3515,-4.3515,-4.3515,-4.3515,-4.3515,-4.3515,-4.3515,-4.3515,-4.3515,-4.3515,-4.3515,-4.3515,-4.3515,-4.3515,-4.3515,-4.3515,-4.3515,-4.3515,-4.3515,-4.3515,-4.3322,-4.2938,-4.232,-4.1799,-4.1318,-4.0597,-4.0271,-4.0188,-4.0138,-4.0096,-4.0096,-4.0096,-4.0096,-4.0096,-4.0096,-4.0096,-4.0096,-4.0096,-4.0096,-4.0096,-4.0096,-4.0096,-4.0096,-4.0096,-4.0096,-4.0096,-4.0096,-4.0096,-4.0096,-4.0096,-4.0096,-4.0121,-4.0246,-4.145,-4.2655,-4.3375,-4.3515,-4.3515,-4.3515,-4.3515,-4.3515,-4.3515,-4.3515,-4.3515,-4.3515,-4.3515,-4.3515,-4.3515,-4.3515,-4.3515,-4.3515,-4.3515,-4.3515,-4.3515,-4.3515,-4.3515,-4.3515,-4.3515,-4.3515,-4.3515,-4.3515,-4.3428,-4.3269,-4.3032,-4.2655,0.0,0.0,-3.4334,-3.7546,-3.8488,-3.8911,0.0,0.0,-4.0496,0.0,-4.2308,-4.3261,-4.4944,-4.5442,-4.5594,-4.5594,-4.5477,-4.5256,-4.4879,-4.4546,-4.4221,-4.383,-4.3684,-4.3548,-4.3496,-4.3515,-4.3515,-4.3515,-4.3515,-4.3515,-4.3515,-4.3515,-4.3515,-4.3515,-4.3515,-4.3515,-4.3515,-4.3515,-4.3515,-4.3515,-4.3515,-4.3515,-4.3515,-4.3515,-4.3462,-4.341,-4.341,-4.3196,-4.2711,-4.2018,-4.1477,-4.103,-4.0353,-4.0096,-4.0096,-4.0096,-4.0096,-4.0096,-4.0096,-4.0096,-4.0096,-4.0096,-4.0096,-4.0096,-4.0096,-4.0096,-4.0096,-4.0096,-4.0096,-4.0096,-4.0096,-4.0096,-4.0096,-4.0096,-4.0096,-4.0096,-4.0096,-4.0096,-4.0096,-4.0096,-4.083,-4.1809,-4.2995,-4.3286,-4.3375,-4.3479,-4.3515,-4.3515,-4.3515,-4.3515,-4.3515,-4.3515,-4.3515,-4.3515,-4.3515,-4.3515,-4.3515,-4.3515,-4.4268,-4.4709,-4.4709,-4.4709,-4.4709,-4.4709,-4.392,-4.3515,-4.3515,-4.3515,-4.3393,-4.316,-4.292,-4.2518,0.0,-2.989,0.0,-3.5058,0.0,0.0,0.0,0.0,0.0,0.0,-4.1783,-4.2279,-4.3962,-4.4994,-4.5594,-4.5594,-4.5429,-4.5132,-4.4688,-4.4388,-4.4045,-4.3582,-4.3515,-4.3496,-4.3515,-4.3515,-4.3515,-4.3515,-4.3515,-4.3515,-4.3515,-4.3515,-4.3515,-4.3515,-4.3515,-4.3515,-4.3515,-4.3515,-4.3515,-4.3515,-4.3515,-4.3515,-4.3515,-4.3515,-4.341,-4.3233,-4.3233,-4.292,-4.2378,-4.1782,-4.123,-4.0778,-4.0279,-4.0096,-4.0096,-4.0096,-4.0096,-4.0096,-4.0096,-4.0096,-4.0096,-4.0096,-4.0096,-4.0096,-4.0096,-4.0096,-4.0096,-4.0096,-4.0096,-4.0096,-4.0096,-4.0096,-4.0096,-4.0096,-4.0096,-4.0096,-4.0096,-4.0096,-4.0096,-4.0096,-4.0541,-4.1226,-4.2187,-4.2689,-4.305,-4.3444,-4.3515,-4.3515,-4.3515,-4.3515,-4.3515,-4.3515,-4.3515,-4.3515,-4.3515,-4.3515,-4.3515,-4.3515,-4.6361,-4.8049,-4.8049,-4.8049,-4.8049,-4.8049,-4.5039,-4.3515,-4.3515,-4.3515,-4.3358,-4.3104,-4.3105,-4.2692,0.0,0.0,0.0,-3.2429,-3.4083,-3.5545,0.0,-3.8488,-3.9477,-4.0065,-4.0952,-4.194,-4.2928,-4.3953,-4.4806,-4.5333,-4.5194,-4.4912,-4.4519,-4.425,-4.3923,-4.3566,-4.3515,-4.3515,-4.3515,-4.3515,-4.3515,-4.3515,-4.3515,-4.3515,-4.3515,-4.3515,-4.3515,-4.3515,-4.3515,-4.3515,-4.3515,-4.3515,-4.3515,-4.3515,-4.3515,-4.3515,-4.3515,-4.3515,-4.3358,-4.3123,-4.2825,-4.2478,-4.2095,-4.1397,-4.0938,-4.0635,-4.0254,-4.0096,-4.0096,-4.0096,-4.0096,-4.0096,-4.0096,-4.0096,-4.0096,-4.0096,-4.0096,-4.0096,-4.0096,-4.0096,-4.0096,-4.0096,-4.0096,-4.0096,-4.0096,-4.0096,-4.0096,-4.0096,-4.0096,-4.0096,-4.0096,-4.0096,-4.0096,-4.0096,-4.0263,-4.0493,-4.0843,-4.1534,-4.2396,-4.3357,-4.3515,-4.3515,-4.3515,-4.3515,-4.3515,-4.3515,-4.3515,-4.3515,-4.3515,-4.5388,-4.6581,-4.6581,-4.7664,-4.8306,-4.8306,-4.8306,-4.8306,-4.8306,-4.7168,-4.5553,-4.3515,-4.3515,-4.3357,-4.3105,-4.2788,-4.2733,-2.3432,0.0,0.0,0.0,0.0,-3.3449,-3.5411,0.0,-3.8277,-3.913,-4.0063,-4.1006,-4.19,-4.2595,-4.3482,-4.4828,-4.4869,-4.4623,-4.4313,-4.4087,-4.3846,-4.3549,-4.3515,-4.3515,-4.3515,-4.3515,-4.3515,-4.3515,-4.3515,0.0,-4.3515,-4.3515,-4.3515,-4.3515,-4.3239,-4.3094,-4.3094,-4.2818,-4.269,-4.269,-4.269,-4.269,-4.269,-4.269,-4.2664,-4.2594,-4.2024,-4.1822,-4.1817,-4.1099,-4.0689,-4.0476,-4.0196,-4.0096,-4.0096,-4.0096,-4.0096,-4.0096,-4.0096,-4.0096,-4.0096,-4.0096,-4.0096,-4.0096,-4.0096,-4.0096,-4.0096,-4.0096,-4.0096,-4.0096,-4.0096,-4.0096,-4.0096,-4.0096,-4.0096,-4.0096,-4.0096,-4.0096,-4.0096,-4.0096,-4.0096,-4.0096,-4.0096,-4.0931,-4.2044,-4.3303,-4.3515,-4.3515,-4.3515,-4.3515,-4.3515,-4.3515,-4.3515,-4.3955,-4.5021,-4.7076,-4.8306,-4.8306,-4.8306,-4.8306,-4.8306,-4.8306,-4.8306,-4.8306,-4.8306,-4.726,-4.5112,-4.4378,-4.3758,-4.3232,-4.2902,-4.3138,0.0,0.0,0.0,0.0,0.0,0.0,0.0,0.0,-3.6173,-3.87,-3.9098,-3.9451,-4.0921,-4.1018,-4.1674,-4.4095,-4.4409,-4.4261,-4.4031,-4.3936,-4.38,-4.3513,-4.3515,-4.3515,-4.3515,-4.3515,-4.3515,-4.3515,-4.3515,-4.3515,-4.3515,-4.3515,-4.3515,-4.3515,-4.2708,-4.2304,-4.2304,-4.1515,-4.1095,-4.1095,-4.1095,-4.1095,-4.1095,-4.1095,-4.1315,-4.165,-4.0902,-4.0986,-4.1538,-4.0866,-4.0476,-4.028,-4.0163,-4.0096,-4.0096,-4.0096,-4.0096,-4.0096,-4.0096,-4.0096,-4.0096,-4.0096,-4.0096,-4.0096,-4.0096,-4.0096,-4.0096,-4.0096,-4.0096,-4.0096,-4.0096,-4.0096,-4.0096,-4.0096,-4.0096,-4.0096,-4.0096,-4.0096,-4.0096,-4.0096,-4.018,-4.0231,-4.0231,-4.1069,-4.215,-4.3322,-4.3515,-4.3515,-4.3515,-4.3515,-4.3515,-4.3515,-4.3515,-4.48,-4.8031,-4.8306,-4.8306,-4.8306,-4.8306,-4.8306,-4.8306,-4.8306,-4.8306,-4.8306,-4.8306,-4.8306,-4.8306,-4.614,-4.4544,-4.3515,-4.3519,-4.3911,-2.1793,0.0,0.0,0.0,0.0,0.0,0.0,0.0,0.0,-3.7026,-3.826,-3.9395,-4.0666,-4.0735,-4.0923,-4.1908,-4.272,-4.339,-4.3846,-4.3798,-4.3651,-4.3496,-4.3515,-4.3515,-4.3515,-4.3515,-4.3515,0.0,-4.3515,-4.3515,-4.3515,-4.3515,-4.3515,-4.3515,-4.2708,-4.2304,-4.2304,-4.1515,-4.1095,-4.1095,-4.1095,-4.1095,-4.1095,-4.1095,-4.1315,-4.165,-4.0902,-4.0862,-4.1255,-4.0524,-4.0196,-4.0163,-4.0096,-4.0096,-4.0096,-4.0096,-4.0096,-4.0096,-4.0096,-4.0096,-4.0096,-4.0096,-4.0096,-4.0096,-4.0096,-4.0096,-4.0096,-4.0096,-4.0096,-4.0096,-4.0096,-4.0096,-4.0096,-4.0096,-4.0096,-4.0096,-4.0096,-4.0096,-4.0096,-4.0096,-4.1873,-4.3362,-4.3362,-4.4249,-4.4591,-4.3633,-4.3515,-4.3515,-4.3515,-4.3515,-4.3515,-4.3515,-4.3515,-4.48,-4.8031,-4.8306,-4.8306,-4.8306,-4.8306,-4.8306,-4.8306,-4.8306,-4.8306,-4.8306,-4.8306,-4.8306,-4.8306,-4.614,-4.4544,-4.3499,-4.4044,-4.4414,-2.2412,-2.3242,0.0,0.0,0.0,0.0,0.0,-3.0593,0.0,0.0,-3.6487,-3.768,-3.898,-3.9039,-3.905,-3.9522,-4.044,-4.1471,-4.2572,-4.2621,-4.2538,-4.2488,-4.2506,-4.2506,-4.2506,-4.2506,-4.2506,-4.2506,-4.28,-4.3149,-4.3478,-4.3515,-4.3515,-4.3515,-4.2396,-4.1809,-4.1809,-4.0655,-4.0086,-4.0086,-4.0086,-4.0086,-4.0086,-4.0086,-4.0493,-4.1161,-4.0422,-4.052,-4.1123,-4.0402,-4.0096,-4.0096,-4.0096,-4.0096,-4.0096,-4.0096,-4.0096,-4.0096,-4.0096,-4.0096,-4.0096,-4.0096,-4.0096,-4.0096,-4.0096,-4.0096,-4.0096,-4.0096,-4.0096,-4.0096,-4.0096,-4.0096,-4.0096,-4.0096,-4.0096,-4.0096,-4.0096,-4.0096,-4.0096,-4.0096,-4.255,-4.4615,-4.4615,-4.53,-4.5668,-4.5046,-4.5126,-4.5296,-4.548,-4.5498,-4.4984,-4.3643,-4.469,-4.6269,-4.8141,-4.8306,-4.8306,-4.8306,-4.8306,-4.8306,-4.8306,-4.8306,-4.8306,-4.8306,-4.8306,-4.8306,-4.8306,-4.704,-4.5937,-4.495,-4.4714,-4.4615,-2.3925,-2.4192,0.0,0.0,-2.571,0.0,-2.7224,-2.8662,-3.0579,0.0,0.0,-3.4991,-3.6314,-3.6491,-3.6576,-3.7022,-3.7753,-3.8912,-4.071,-4.104,-4.1095,-4.1095,-4.1095,-4.1095,-4.1095,-4.1095,-4.1095,-4.1095,-4.1864,-4.2598,-4.3331,-4.346,-4.3515,-4.3515,-4.2029,-4.1224,-4.1224,-3.9735,-3.8982,-3.8982,-3.8982,-3.8982,-3.8982,-3.8982,-3.9581,-4.0601,-3.985,-4.0169,-4.1123,-4.0402,-4.0096,-4.0096,-4.0096,-4.0096,-4.0096,-4.0096,-4.0096,-4.0096,-4.0096,-4.0096,-4.0096,-4.0096,-4.0096,-4.0096,-4.0096,-4.0096,-4.0096,-4.0096,-4.0096,-4.0096,-4.0096,-4.0096,-4.0096,-4.0096,-4.0096,-4.0096,-4.0096,-4.0367,-4.0603,-4.0603,-4.277,-4.4615,-4.4615,-4.5012,-4.5641,-4.659,-4.7205,-4.7723,-4.8229,-4.8306,-4.7205,-4.4341,-4.6599,-4.8306,-4.8306,-4.8306,-4.8306,-4.8306,-4.8306,-4.8306,-4.8306,-4.8306,-4.8306,-4.8306,-4.8306,-4.8248,-4.817,-4.817,-4.7708,-4.6795,-4.5283,-4.4615,-2.551,-2.6016,-2.6265,-2.5083,0.0,0.0,-2.5473,-2.665,-2.8396,0.0,-3.1692,-3.2899,-3.3716,-3.4318,-3.4648,-3.4527,-3.5202,-3.6747,-3.9717,-4.0689,-4.1095,-4.1095,-4.1095,-4.1095,-4.1095,-4.1095,-4.1095,-4.1095,-4.1864,-4.2378,-4.2525,-4.3149,-4.3515,-4.3515,-4.2561,-4.2066,-4.2066,-4.1095,-4.0618,-4.0618,-4.0618,-4.0618,-4.0618,-4.0618,-4.0932,-4.1415,-4.0689,-4.0678,-4.1123,-4.0402,-4.0096,-4.0096,-4.0096,-4.0096,-4.0096,-4.0096,-4.0096,-4.0096,-4.0096,-4.0096,-4.0096,-4.0096,-4.0096,-4.0096,-4.0096,-4.0096,-4.0096,-4.0096,-4.0096,-4.0096,-4.0096,-4.0096,-4.0096,-4.0096,-4.0096,-4.0096,-4.0096,-4.2008,-4.3718,-4.3718,-4.4209,-4.4615,-4.4615,-4.4682,-4.4848,-4.5032,-4.5862,-4.6926,-4.8132,-4.8306,-4.8067,-4.7425,-4.7939,-4.8306,-4.8306,-4.8306,-4.8306,-4.8306,-4.8306,-4.8306,-4.8306,-4.8306,-4.8306,-4.8306,-4.8306,-4.7953,-4.7254,-4.7254,-4.6713,-4.5693,-4.494,-4.4615,-2.8174,-2.7978,-2.7509,-2.6655,0.0,0.0,0.0,0.0,-2.7029,0.0,0.0,0.0,0.0,0.0,-3.2804,-3.2621,-3.3293,-3.4509,-3.656,-3.8267,-3.9441,-3.9863,-3.9884,-3.9884,-3.9884,-3.9884,-4.0068,-4.0469,-4.0873,-4.1277,-4.168,-4.2084,-4.2488,-4.2892,-4.2121,-4.1901,-4.2304,-4.1515,-4.1095,-4.1095,-4.1095,-4.1095,-4.1095,-4.1095,-4.1315,-4.165,-4.0902,-4.084,-4.1123,-4.0402,-4.0096,-4.0096,-4.0096,-4.0096,-4.0096,-4.0096,-4.0096,-4.0096,-4.0096,-4.0096,-4.0096,-4.0096,-4.0096,-4.0096,-4.0096,-4.0096,-4.0096,-4.0096,-4.0096,-4.0096,-4.0096,-4.0096,-4.0096,-4.0096,-4.0096,-4.0096,-4.0096,-4.2482,-4.4615,-4.4615,-4.4615,-4.4615,-4.4615,-4.4615,-4.4615,-4.4615,-4.5291,-4.6259,-4.7478,-4.785,-4.809,-4.8287,-4.8306,-4.8306,-4.8306,-4.8306,-4.8306,-4.8306,-4.8306,-4.8306,-4.8306,-4.8306,-4.8306,-4.8306,-4.8306,-4.7872,-4.6998,-4.6186,-4.552,-4.4995,-4.4709,-4.4615,0.0,0.0,0.0,0.0,0.0,-2.5893,0.0,0.0,0.0,0.0,0.0,0.0,0.0,0.0,0.0,0.0,0.0,0.0,0.0,-3.5092,0.0,-3.8102,-3.8248,-3.8303,-3.845,-3.8469,-3.867,-3.9166,-3.9478,-3.9955,-4.06,-4.093,-4.1462,-4.2268,-4.168,-4.1735,-4.2525,-4.1901,-4.157,-4.157,-4.157,-4.1554,-4.1537,-4.1521,-4.1628,-4.181,-4.1093,-4.0915,-4.1053,-4.0377,-4.0096,-4.0096,-4.0096,-4.0096,-4.0096,-4.0096,-4.0096,-4.0096,-4.0096,-4.0096,-4.0096,-4.0096,-4.0096,-4.0096,-4.0096,-4.0096,-4.0096,-4.0096,-4.0096,-4.0096,-4.0096,-4.0096,-4.0096,-4.0096,-4.0096,-4.0096,-4.0096,-4.2482,-4.4615,-4.4615,-4.4615,-4.4615,-4.4615,-4.4615,-4.4615,-4.4615,-4.4985,-4.5563,-4.6447,-4.7053,-4.7621,-4.8229,-4.8306,-4.8306,-4.8306,-4.8306,-4.8306,-4.8306,-4.8306,-4.8306,-4.8306,-4.8306,-4.8306,-4.8306,-4.8306,-4.7872,-4.6998,-4.5389,-4.4615,-4.4615,-4.4615,-4.4615,0.0,0.0,0.0,0.0,-2.8246,0.0,0.0,0.0,0.0,-2.5692,0.0,0.0,0.0,0.0,0.0,0.0,0.0,0.0,0.0,0.0,0.0,-3.6303,-3.656,-3.6853,-3.7566,-3.7639,-3.7382,-3.6762,-3.8028,-3.8891,-3.8982,-4.0325,-4.1462,-4.2268,-4.2213,-4.2543,-4.3368,-4.3276,-4.3222,-4.3222,-4.3222,-4.3206,-4.3137,-4.3031,-4.2721,-4.2293,-4.1662,-4.1188,-4.0802,-4.0303,-4.0096,-4.0096,-4.0096,-4.0096,-4.0096,-4.0096,-4.0096,-4.0096,-4.0096,-4.0096,-4.0096,-4.0096,-4.0096,-4.0096,-4.0096,-4.0096,-4.0096,-4.0096,-4.0096,-4.0096,-4.0096,-4.0096,-4.0096,-4.0096,-4.0096,-4.0096,-4.0096,-4.2482,-4.4615,-4.4615,-4.4615,-4.4615,-4.4615,-4.4615,-4.4615,-4.4615,-4.4654,-4.4737,-4.4858,-4.5752,-4.6858,-4.8152,-4.8306,-4.8306,-4.8306,-4.8306,-4.8306,-4.8306,-4.8306,-4.8306,-4.8306,-4.8306,-4.8306,-4.8306,-4.8306,-4.7872,-4.6998,-4.5389,-4.4615,-4.4615,-4.4615,-4.4615,0.0,0.0,0.0,0.0,0.0,0.0,-2.5448,0.0,-2.6227,0.0,0.0,0.0,0.0,0.0,0.0,0.0,-2.8356,0.0,0.0,0.0,0.0,0.0,0.0,0.0,-3.6028,-3.5624,-3.5404,-3.5536,-3.616,-3.6982,-3.7936,-3.9093,-4.0288,-4.157,-4.159,-4.2213,-4.3496,-4.3515,-4.3515,-4.3515,-4.3515,-4.3428,-4.3287,-4.3013,-4.2635,-4.2136,-4.1442,-4.0961,-4.0635,-4.0254,-4.0096,-4.0096,-4.0096,-4.0096,-4.0096,-4.0096,-4.0096,-4.0096,-4.0096,-4.0096,-4.0096,-4.0096,-4.0096,-4.0096,-4.0096,-4.0096,-4.0096,-4.0096,-4.0096,-4.0096,-4.0096,-4.0096,-4.0096,-4.0096,-4.0096,-4.0096,-4.0096,-4.2482,-4.4615,-4.4615,-4.4615,-4.4615,-4.4615,-4.4615,-4.4615,-4.4615,-4.4615,-4.4615,-4.4615,-4.5247,-4.6211,-4.741,-4.7557,-4.7557,-4.7557,-4.7788,-4.805,-4.8287,-4.8306,-4.8306,-4.8306,-4.8306,-4.819,-4.7949,-4.7684,-4.7062,-4.6055,-4.5086,-4.4615,-4.4615,-4.4615,-4.4615,-3.7,0.0,0.0,0.0,0.0,0.0,0.0,0.0,0.0,0.0,0.0,0.0,0.0,0.0,0.0,0.0,0.0,-2.7842,0.0,0.0,0.0,0.0,0.0,0.0,0.0,-3.388,-3.3954,-3.4307,-3.4747,-3.5628,-3.7088,-3.8138,-3.935,-4.0728,-4.0985,-4.1772,-4.3149,-4.3404,-4.3497,-4.3463,-4.3445,-4.3286,-4.3013,-4.2673,-4.2239,-4.1739,-4.1099,-4.0696,-4.05,-4.0221,-4.0096,-4.0096,-4.0096,-4.0096,-4.0096,-4.0096,-4.0096,-4.0096,-4.0096,-4.0096,-4.0096,-4.0096,-4.0096,-4.0096,-4.0096,-4.0096,-4.0096,-4.0096,-4.0096,-4.0096,-4.0096,-4.0096,-4.0096,-4.0096,-4.0739,-4.1331,-4.1331,-4.3058,-4.4615,-4.4615,-4.4615,-4.4615,-4.4615,-4.4615,-4.4615,-4.4615,-4.4615,-4.4615,-4.4615,-4.494,-4.5485,-4.6259,-4.6332,-4.6332,-4.6332,-4.6939,-4.7578,-4.8267,-4.8306,-4.8306,-4.8306,-4.8306,-4.8052,-4.7529,-4.6737,-4.5955,-4.5184,-4.4793,-4.4615,-4.4615,-4.4615,-4.4615,0.0,0.0,0.0,-3.2186,0.0,0.0,0.0,0.0,-2.7989,0.0,0.0,0.0,0.0,0.0,0.0,-2.8062,0.0,0.0,0.0,0.0,0.0,0.0,0.0,0.0,0.0,-3.2889,-3.3495,0.0,-3.4124,-3.5389,-3.6285,-3.7845,-3.9074,-3.99,-4.0689,-4.1515,-4.2323,-4.3112,-4.3463,-4.3412,-4.3269,-4.2994,-4.2609,-4.2195,-4.1735,-4.1192,-4.0795,-4.05,-4.0288,-4.0163,-4.0096,-4.0096,-4.0096,-4.0096,-4.0096,-4.0096,-4.0096,-4.0096,-4.0096,-4.0096,-4.0096,-4.0096,-4.0096,-4.0096,-4.0096,-4.0096,-4.0096,-4.0096,-4.0096,-4.0096,-4.0096,-4.0096,-4.0096,-4.0096,-4.233,-4.4462,-4.4462,-4.453,-4.4615,-4.4615,-4.4615,-4.4615,-4.4615,-4.4615,-4.4615,-4.4615,-4.4615,-4.4615,-4.4615,-4.4615,-4.4626,-4.4682,-4.4682,-4.4682,-4.4682,-4.5624,-4.6835,-4.821,-4.8306,-4.8306,-4.8306,-4.8306,-4.7893,-4.7043,-4.5477,-4.4654,-4.4643,-4.4598,-4.4615,-4.4615,-4.4615,-4.4615,0.0,0.0,-3.6427,-3.3678,0.0,0.0,0.0,0.0,0.0,0.0,0.0,0.0,0.0,0.0,-3.1262,-2.9641,-2.8484,0.0,0.0,0.0,0.0,0.0,0.0,0.0,0.0,0.0,0.0,0.0,-3.2302,0.0,-3.6156,-3.7327,-3.8521,-3.9861,-4.0157,-4.0946,-4.2286,-4.2561,-4.2879,-4.3269,-4.2995,-4.2653,-4.2175,-4.1569,-4.1099,-4.0772,-4.0427,-4.0221,-4.0163,-4.0138,-4.0096,-4.0096,-4.0096,-4.0096,-4.0096,-4.0096,-4.0096,-4.0096,-4.0096,-4.0096,-4.0096,-4.0096,-4.0096,-4.0096,-4.0096,-4.0096,-4.0096,-4.0096,-4.0096,-4.0096,-4.0096,-4.0096,-4.0096,-4.0096,-4.2398,-4.4615,-4.4615,-4.4615,-4.4615,-4.4615,-4.4615,-4.4615,-4.4615,-4.4615,-4.4615,-4.4615,-4.4615,-4.4615,-4.4615,-4.4615,-4.4615,-4.4615,-4.4615,-4.4615,-4.4615,-4.5912,-4.6916,-4.7407,-4.745,-4.745,-4.745,-4.745,-4.6989,-4.5955,-4.5076,-4.4615,-4.4615,-4.4615,-4.4615,-4.4615,-4.4615,-4.4615,-4.0338,-3.935,0.0,-3.5661,-3.489,0.0,-3.095,0.0,-3.232,0.0,0.0,0.0,0.0,0.0,0.0,-3.1317,-2.9457,0.0,0.0,-2.5723,0.0,0.0,0.0,0.0,0.0,0.0,-2.9849,-3.0889,-3.125,0.0,0.0,-3.6483,-3.7676,-3.8998,-3.9882,-4.0818,-4.1864,-4.2433,-4.2863,-4.316,-4.2787,-4.2338,-4.1839,-4.1116,-4.0672,-4.0476,-4.0221,-4.0096,-4.0096,-4.0096,-4.0096,-4.0096,-4.0096,-4.0096,-4.0096,-4.0096,-4.0096,-4.0096,-4.0096,-4.0096,-4.0096,-4.0096,-4.0096,-4.0096,-4.0096,-4.0096,-4.018,-4.0536,-4.0383,-4.035,-4.1416,-4.1704,-4.1704,-4.1704,-4.3193,-4.4615,-4.4615,-4.4615,-4.4615,-4.4615,-4.4615,-4.4615,-4.4615,-4.4615,-4.4615,-4.4615,-4.4615,-4.4615,-4.4615,-4.4615,-4.4615,-4.4615,-4.4615,-4.4615,-4.4615,-4.5555,-4.6137,-4.6137,-4.6137,-4.6137,-4.6137,-4.6137,-4.5811,-4.513,-4.4765,-4.4615,-4.4615,-4.4615,-4.4615,-4.4615,-4.4615,-4.4615]},{"header":{"parameterUnit":"m.s-1","parameterCategory":1,"la1":30.6,"la2":29.2853,"lo1":-89.7004,"lo2":-87.6739,"dy":0.0162,"dx":0.0183,"nx":112,"ny":82,"refTime":"2026-05-18T12:00:00:Z","depth":0,"parameterNumber":3,"parameterNumberName":"V-component_of_WINDS"},"data":[0.0,0.0,0.0,0.0,0.0,0.0,0.0,0.0,0.0,0.0,0.0,0.0,0.0,0.0,0.0,0.0,0.0,0.0,0.0,0.0,0.0,0.0,0.0,0.0,0.0,0.0,0.0,0.0,0.0,0.0,0.0,0.0,0.0,0.0,0.0,0.0,0.0,0.0,0.0,0.0,0.0,0.0,0.0,0.0,0.0,0.0,0.0,0.0,0.0,0.0,0.0,0.0,0.0,0.0,0.0,0.0,0.0,0.0,0.0,0.0,0.0,0.0,0.0,0.0,0.0,0.0,0.0,0.0,0.0,0.0,0.0,0.0,0.0,0.0,0.0,0.0,0.0,0.0,0.0,0.0,0.0,0.0,0.0,0.0,0.0,0.0,0.0,0.0,0.0,0.0,0.7108,0.8072,0.9364,1.0125,0.9959,1.0409,1.048,0.9969,0.0,0.0,0.0,0.0,0.0,0.0,0.0,0.0,0.0,0.0,0.0,0.0,0.0,0.0,0.0,0.0,0.0,0.0,0.0,0.0,0.0,0.0,0.0,0.0,0.0,0.0,0.0,0.0,0.0,0.0,0.0,0.0,0.0,0.0,0.0,0.0,0.0,0.0,0.0,0.0,0.0,0.0,0.0,0.0,0.0,0.0,0.0,0.0,0.0,0.0,0.0,0.0,0.0,0.0,0.0,0.0,0.0,0.0,0.0,0.0,0.0,0.0,0.0,0.0,0.0,0.0,0.0,0.0,0.0,0.0,0.0,0.0,0.0,0.0,0.0,0.0,0.0,0.0,0.0,0.0,0.0,0.0,0.0,0.0,0.0,0.0,0.0,0.0,0.0,0.0,0.0,0.0,0.0,0.0,0.0,0.0,0.0,0.0,0.0,0.0,0.0,0.0,0.0,0.0,0.7893,0.9265,1.0097,1.0407,1.0114,1.0471,1.0367,0.9632,0.0,0.0,0.0,0.0,0.0,0.0,0.0,0.0,0.0,0.0,0.0,0.0,0.0,0.0,0.0,0.0,0.0,0.0,0.0,0.0,0.0,0.0,0.0,0.0,0.0,0.0,0.0,0.0,0.0,0.0,0.0,0.0,0.0,0.0,0.0,0.0,0.0,0.0,0.0,0.0,0.0,0.0,0.0,0.0,0.0,0.0,0.0,0.0,0.0,0.0,0.0,0.0,0.0,0.0,0.0,0.0,0.0,0.0,0.0,0.0,0.0,0.0,0.0,0.0,0.0,0.0,0.0,0.0,0.0,0.0,0.0,0.0,0.0,0.0,0.0,0.0,0.0,0.0,0.0,0.0,0.0,0.0,0.0,0.0,0.0,0.0,0.0,0.0,0.0,0.0,0.0,0.0,0.0,0.0,0.0,0.0,0.0,0.0,0.0,0.0,0.0,0.0,0.0,0.7695,0.8751,0.9621,1.0238,1.0444,1.0046,1.0165,0.9973,0.933,0.8949,0.0,0.0,0.0,0.0,0.0,0.0,0.0,0.0,0.0,0.0,0.0,0.0,0.0,0.0,0.0,0.0,0.0,0.0,0.0,0.0,0.0,0.0,0.0,0.0,0.0,0.0,0.0,0.0,0.0,0.0,0.0,0.0,0.0,0.0,0.0,0.0,0.0,0.0,0.0,0.0,0.0,0.0,0.0,0.0,0.0,0.0,0.0,0.0,0.0,0.0,0.0,0.0,0.0,0.0,0.0,0.0,0.0,0.0,0.0,0.0,0.0,0.0,0.0,0.0,0.0,0.0,0.0,0.0,0.0,0.0,0.0,0.0,0.0,0.0,0.0,0.0,0.0,0.0,0.0,0.0,0.0,0.0,0.0,0.0,0.0,0.0,0.0,0.0,0.0,0.0,0.0,0.0,0.0,0.0,0.0,0.0,0.0,0.0,0.0,0.0,0.0,0.0,0.8611,0.9404,0.9688,1.0238,1.0413,0.9901,0.9764,0.9475,0.8898,0.848,0.0,0.0,0.0,0.0,0.0,0.0,0.0,0.0,0.0,0.0,0.0,0.0,0.0,0.0,0.0,0.0,0.0,0.0,0.0,0.0,0.0,0.0,0.0,0.0,0.0,0.0,0.0,0.0,0.0,0.0,0.0,0.0,0.0,0.0,0.0,0.0,0.0,0.0,0.0,0.0,0.0,0.0,0.0,0.0,0.0,0.0,0.0,0.0,0.0,0.0,0.0,0.0,0.0,0.0,0.0,0.0,0.0,0.0,0.0,0.0,0.0,0.0,0.0,0.0,0.0,0.0,0.0,0.0,0.0,0.0,0.0,0.0,0.0,0.0,0.0,0.0,0.0,0.0,0.0,0.0,0.0,0.0,0.0,0.0,0.0,0.0,0.0,0.0,0.0,0.0,0.0,0.0,0.0,0.0,0.0,0.0,0.0,0.0,0.0,0.0,0.0,0.0,0.8925,0.9659,0.9708,1.0238,1.0352,0.9762,0.944,0.8947,0.8214,0.7967,0.0,0.0,0.0,0.0,0.0,0.0,0.0,0.0,0.0,0.0,0.0,0.0,0.0,0.0,0.0,0.0,0.0,0.0,0.0,0.0,0.0,0.0,0.0,0.0,0.0,0.0,0.0,0.0,0.0,0.0,0.0,0.0,0.0,0.0,0.0,0.0,0.0,0.0,0.0,0.0,0.0,0.0,0.0,0.0,0.0,0.0,0.0,0.0,0.0,0.0,0.0,0.0,0.0,0.0,0.0,0.0,0.0,0.0,0.0,0.0,0.0,0.0,0.0,0.0,0.0,0.0,0.0,0.0,0.0,0.0,0.0,0.0,0.0,0.0,0.0,0.0,0.0,0.0,0.0,0.0,0.0,0.0,0.0,0.0,0.0,0.0,0.0,0.0,0.0,0.0,0.0,0.0,0.0,0.0,0.0,0.0,0.0,0.0,0.0,0.0,0.0,0.0,0.9072,0.9753,0.0,1.0352,1.0352,0.9762,0.9245,0.8672,0.8014,0.0,0.0,0.0,0.0,0.0,0.0,0.0,0.0,0.0,0.0,0.0,0.0,0.0,0.0,0.0,0.0,0.0,0.0,0.0,0.0,0.0,0.0,0.0,0.0,0.0,0.0,0.0,0.0,0.0,0.0,0.0,0.0,0.0,0.0,0.0,0.0,0.0,0.0,0.0,0.0,0.0,0.0,0.0,0.0,0.0,0.0,0.0,0.0,0.0,0.0,0.0,0.0,0.0,0.0,0.0,0.0,0.0,0.0,0.0,0.0,0.0,0.0,0.0,0.0,0.0,0.0,0.0,0.0,0.0,0.0,0.0,0.0,0.0,0.0,0.0,0.0,0.0,0.0,0.0,0.0,0.0,0.0,0.0,0.0,0.0,0.0,0.0,0.0,0.0,0.0,0.0,0.0,0.0,0.0,0.0,0.0,0.0,0.0,0.0,0.0,0.0,0.0,0.8255,0.9172,0.9793,0.0,1.0412,1.0352,0.9762,0.9232,0.8626,0.7873,0.0,0.0,0.0,0.0,0.0,0.0,0.0,0.0,0.0,0.0,0.0,0.0,0.0,0.0,0.0,0.0,0.0,0.0,0.0,0.0,0.0,0.0,0.0,0.0,0.0,0.0,0.0,0.0,0.0,0.0,0.0,0.0,0.0,0.0,0.0,0.0,0.0,0.0,0.0,0.0,0.0,0.0,0.0,0.0,0.0,0.0,0.0,0.0,0.0,0.0,0.0,0.0,0.0,0.0,0.0,0.0,0.0,0.0,0.0,0.0,0.0,0.0,0.0,0.0,0.0,0.0,0.0,0.0,0.0,0.0,0.0,0.0,0.0,0.0,0.0,0.0,0.0,0.0,0.0,0.0,0.0,0.0,0.0,0.0,0.0,0.0,0.0,0.0,0.0,0.0,0.0,0.0,0.0,0.0,0.0,0.0,0.0,0.0,0.0,0.0,0.0,0.0,0.8288,0.9172,0.98,1.0094,1.0388,1.0352,0.9762,0.9384,0.8783,0.0,0.0,0.0,0.0,0.0,0.0,0.0,0.0,0.0,0.0,0.0,0.0,0.0,0.0,0.0,0.0,0.0,0.0,0.0,0.0,0.0,0.0,0.0,0.0,0.0,0.0,0.0,0.0,0.0,0.0,0.0,0.0,0.0,0.0,0.0,0.0,0.0,0.0,0.0,0.0,0.0,0.0,0.0,0.0,0.0,0.0,0.0,0.0,0.0,0.0,0.0,0.0,0.0,0.0,0.0,0.0,0.0,0.0,0.0,0.0,0.0,0.0,0.0,0.0,0.0,0.0,0.0,0.0,0.0,0.0,0.0,0.0,0.0,0.0,0.0,0.0,0.0,0.0,0.0,0.0,0.0,0.0,0.0,0.0,0.0,0.0,0.0,0.0,0.0,0.0,0.0,0.0,0.0,0.0,0.0,0.0,0.0,0.0,0.0,0.0,0.0,0.0,0.0,0.8564,0.9446,1.01,1.0432,1.0539,1.0352,0.9762,0.9384,0.8757,0.7707,0.0,0.0,0.0,0.0,0.0,0.0,0.0,0.0,0.0,0.0,0.0,0.0,0.0,0.0,0.0,0.0,0.0,0.0,0.0,0.0,0.0,0.0,0.0,0.0,0.0,0.0,0.0,0.0,0.0,0.0,0.0,0.0,0.0,0.0,0.0,0.0,0.0,0.0,0.0,0.0,0.0,0.0,0.0,0.0,0.0,0.0,0.0,0.0,0.0,0.0,0.0,0.0,0.0,0.0,0.0,0.0,0.0,0.0,0.0,0.0,0.0,0.0,0.0,0.0,0.0,0.0,0.0,0.0,0.0,0.0,0.0,0.0,0.0,0.0,0.0,0.0,0.0,0.0,0.0,0.0,0.0,0.0,0.0,0.0,0.0,0.0,0.0,0.0,0.0,0.0,0.0,0.0,0.0,0.0,0.0,0.0,0.0,0.0,0.0,0.0,0.0,0.0,0.8691,0.9573,1.0234,1.0559,1.0593,1.0399,0.99,0.9586,0.8965,0.7974,0.0,0.0,0.0,0.0,0.0,0.0,0.0,0.0,0.0,0.0,0.0,0.0,0.0,0.0,0.0,0.0,0.0,0.0,0.0,0.0,0.0,0.0,0.0,0.0,0.0,0.0,0.0,0.0,0.0,0.0,0.0,0.0,0.0,0.0,0.0,0.0,0.0,0.0,0.0,0.0,0.0,0.0,0.0,0.0,0.0,0.0,0.0,0.0,0.0,0.0,0.0,0.0,0.0,0.0,0.0,0.0,0.0,0.0,0.0,0.0,0.0,0.0,0.0,0.0,0.0,0.0,0.0,0.0,0.0,0.0,0.0,0.0,0.0,0.0,0.0,0.0,0.0,0.0,0.0,0.0,0.0,0.0,0.0,0.0,0.0,0.0,0.0,0.0,0.0,0.0,0.0,0.0,0.0,0.0,0.0,0.0,0.0,0.0,0.0,0.0,0.0,0.0,0.8697,0.9599,1.0261,1.0566,1.0593,1.0472,1.014,0.9846,0.934,0.8456,0.0,0.0,0.0,0.0,0.0,0.0,0.0,0.0,0.0,0.0,0.0,0.0,0.0,0.0,0.0,0.0,0.0,0.0,0.0,0.0,0.0,0.0,0.0,0.0,0.0,0.0,0.0,0.0,0.0,0.0,0.0,0.0,0.0,0.0,0.0,0.0,0.0,0.0,0.0,0.0,0.0,0.0,0.0,0.0,0.0,0.0,0.0,0.0,0.0,0.0,0.0,0.0,0.0,0.0,0.0,0.0,0.0,0.0,0.0,0.0,0.8951,0.0,0.0,0.0,0.0,0.0,0.0,0.0,0.0,0.0,0.0,0.0,0.0,0.0,0.0,0.0,0.0,0.0,0.0,0.0,0.0,0.0,0.0,0.0,0.0,0.0,0.0,0.0,0.0,0.0,0.0,0.0,0.0,0.0,0.0,0.0,0.0,0.0,0.0,0.0,0.0,0.0,0.8724,0.978,1.0519,1.0586,1.0593,1.0472,1.014,0.9846,0.934,0.8456,0.7276,0.0,0.0,0.0,0.0,0.0,0.0,0.0,0.0,0.0,0.0,0.0,0.0,0.0,0.0,0.0,0.0,0.0,0.0,0.0,0.0,0.0,0.0,0.0,0.0,0.0,0.0,0.0,0.0,0.0,0.0,0.0,0.0,0.0,0.0,0.0,0.0,0.0,0.0,0.0,0.0,0.0,0.0,0.0,0.0,0.0,0.0,0.0,0.0,0.0,0.0,0.0,0.0,0.0,0.0,0.0,0.0,0.0,0.0,0.0,0.0,0.9653,0.0,0.0,0.0,0.0,0.0,0.0,0.0,0.0,0.0,0.0,0.0,0.0,0.0,0.0,0.0,0.0,0.0,0.0,0.0,0.0,0.0,0.0,0.0,0.0,0.0,0.0,0.0,0.0,0.0,0.0,0.0,0.0,0.0,0.0,0.0,0.0,0.0,0.0,0.0,0.0,0.8911,0.992,1.0593,1.0593,1.0593,1.0526,1.0372,0.9963,0.9426,0.8831,0.7692,0.0,0.0,0.0,0.0,0.0,0.0,0.0,0.0,0.0,0.0,0.0,0.0,0.0,0.0,0.0,0.0,0.0,0.0,0.0,0.0,0.0,0.0,0.0,0.0,0.0,0.0,0.0,0.0,0.0,0.0,0.0,0.0,0.0,0.0,0.0,0.0,0.0,0.0,0.0,0.0,0.0,0.0,0.0,0.0,0.0,0.0,0.0,0.0,0.0,0.0,0.0,0.0,0.0,1.1488,1.1969,1.1826,1.2144,1.2288,1.2254,1.1578,1.1136,1.0874,1.0548,0.0,0.0,0.0,0.0,0.0,0.0,0.0,0.0,0.0,0.0,0.0,0.0,0.0,0.0,0.0,0.0,0.0,0.0,0.0,0.0,0.0,0.0,0.0,0.0,0.9517,0.9304,0.8532,0.0,0.0,0.0,0.0,0.0,0.0,0.0,0.0,0.0,0.0,0.0,0.9138,1.0013,1.0593,1.0593,1.0593,1.0593,1.0593,1.0057,0.9559,0.9231,0.8123,0.7357,0.0,0.0,0.0,0.0,0.0,0.0,0.0,0.0,0.0,0.0,0.0,0.0,0.0,0.0,0.0,0.0,0.0,0.0,0.0,0.0,0.0,0.0,0.0,0.0,0.0,0.0,0.0,0.0,0.0,0.0,0.0,0.0,0.3076,0.3229,0.0,0.0,0.0,0.0,0.0,0.0,0.0,0.0,0.0,0.0,0.0,0.0,0.0,0.7351,0.8,0.9073,1.0104,1.1066,1.2237,1.2986,1.3398,1.3692,1.3794,1.3801,1.3941,0.0,1.2051,1.1792,0.0,0.0,0.0,0.0,0.0,0.0,0.0,0.0,0.0,0.0,0.0,0.0,0.0,0.0,0.0,0.0,0.0,0.0,0.0,0.0,0.0,0.0,1.0808,1.0768,1.0762,1.0661,0.0,0.9606,0.8878,0.8382,0.8214,0.0,0.0,0.0,0.0,0.0,0.0,0.0,0.9138,1.0013,1.0593,1.0593,1.0593,1.0593,1.0593,1.0057,0.9559,0.9231,0.8123,0.7357,0.7013,0.6445,0.0,0.0,0.0,0.0,0.0,0.0,0.0,0.0,0.0,0.0,0.0,0.0,0.0,0.0,0.0,0.0,0.0,0.0,0.0,0.0,0.0,0.0,0.0,0.0,0.0,0.0,0.0,0.0,0.0,0.3169,0.3563,0.3778,0.389,0.3985,0.0,0.0,0.0,0.0,0.0,0.0,0.0,0.0,0.0,0.6248,0.663,0.7188,0.7918,0.8875,0.9928,1.0978,1.2302,1.3243,1.3768,1.4351,1.4626,1.4633,1.4716,1.4402,1.3748,1.3126,1.2345,1.1517,0.0,0.0,0.0,0.0,1.0575,1.0762,1.1056,1.1156,1.1176,1.1303,0.0,0.0,0.0,0.0,0.0,0.0,0.0,0.0,0.0,0.0,1.1236,1.1236,1.1236,1.1202,1.1069,1.0742,1.0217,0.0,0.9085,0.8684,0.8099,0.0,0.0,0.0,0.0,0.9044,0.963,1.0221,1.0593,1.0593,1.0593,1.0593,1.0593,1.0057,0.9626,0.9499,0.8563,0.794,0.7789,0.7047,0.6466,0.0,0.0,0.0,0.0,0.0,0.0,0.0,0.0,0.0,0.0,0.0,0.0,0.0,0.0,0.0,0.0,0.0,0.0,0.0,0.0,0.0,0.0,0.0,0.0,0.0,0.0,0.0,0.0,0.368,0.4077,0.4358,0.4395,0.4503,0.0,0.0,0.0,0.0,0.0,0.0,0.5719,0.5813,0.6081,0.6573,0.6689,0.7094,0.7841,0.8675,0.9607,1.0641,1.212,1.3124,1.3642,1.4441,1.4865,1.4917,1.5008,1.5007,1.492,1.4159,1.3427,1.2699,1.2111,1.1837,1.1764,1.1764,1.1904,1.2174,1.2432,1.2532,1.2545,1.2619,1.2245,1.1657,1.1102,0.0,0.0,0.0,0.0,1.1343,1.1457,1.1603,1.1764,1.1764,1.1764,1.1724,1.157,1.1543,1.1276,0.0,0.988,0.9404,0.8971,0.0,0.0,0.0,0.0,0.9511,1.0023,1.0374,1.0593,1.0593,1.0593,1.0593,1.0593,1.0057,0.9715,0.9715,0.8884,0.8402,0.8402,0.7575,0.7001,0.6707,0.0,0.0,0.0,0.0,0.0,0.0,0.0,0.0,0.0,0.0,0.0,0.0,0.0,0.0,0.0,0.0,0.0,0.0,0.0,0.0,0.0,0.0,0.0,0.0,0.0,0.0,0.0,0.0,0.0,0.482,0.4972,0.0,0.0,0.0,0.0,0.5725,0.5888,0.6128,0.661,0.6641,0.6851,0.7347,0.7368,0.7541,0.7894,0.8621,0.9375,1.0144,1.1674,1.2694,1.3182,1.3962,1.4453,1.4746,1.4991,1.5068,1.4996,1.459,1.4289,1.3941,1.3353,1.2939,1.2717,1.2717,1.2723,1.2784,1.3053,1.316,1.3213,1.3447,1.3166,1.261,1.202,1.1819,0.0,0.0,1.2004,1.2298,1.2623,1.271,1.2717,1.2717,1.2717,1.2563,1.2007,1.1879,1.1625,0.0,1.0546,1.0251,0.9337,0.0,0.9158,0.9184,0.9472,0.9773,1.0043,1.0374,1.0593,1.0593,1.0593,1.0593,1.0593,1.0057,0.9715,0.9715,0.8884,0.8402,0.8402,0.7799,0.7323,0.6986,0.6121,0.0,0.0,0.0,0.0,0.0,0.0,0.0,0.0,0.0,0.0,0.0,0.0,0.0,0.0,0.0,0.0,0.0,0.0,0.0,0.0,0.0,0.0,0.0,0.0,0.0,0.0,0.0,0.0,0.545,0.5585,0.0,0.5962,0.585,0.5956,0.6349,0.6522,0.6763,0.7112,0.7227,0.7394,0.7645,0.7655,0.7774,0.7976,0.8227,0.8645,0.9274,1.036,1.1121,1.1658,1.2387,1.3022,1.3463,1.404,1.4518,1.481,1.5166,1.5084,1.466,1.4208,1.4102,1.4191,1.3955,1.405,1.4231,1.4345,1.4215,1.4008,1.3693,1.3333,1.3006,1.2799,1.263,1.2516,1.2672,1.2806,1.2913,1.3019,1.3046,1.3046,1.3046,1.2931,1.2723,1.2516,1.2321,1.1997,1.1531,1.1129,1.0742,1.0421,1.0053,0.9837,1.006,1.002,1.0067,1.0399,1.0526,1.0593,1.0593,1.0593,1.0593,1.0593,1.0057,0.9715,0.9715,0.9038,0.8651,0.8651,0.8083,0.7692,0.7586,0.6734,0.6157,0.0,0.0,0.0,0.0,0.0,0.0,0.0,0.0,0.0,0.0,0.0,0.0,0.0,0.0,0.0,0.0,0.0,0.0,0.0,0.0,0.0,0.0,0.0,0.0,0.0,0.0,0.5694,0.5993,0.6207,0.6373,0.6478,0.6485,0.6607,0.6905,0.7068,0.7261,0.7506,0.7614,0.7736,0.7882,0.794,0.8014,0.8116,0.8163,0.839,0.8845,0.948,1.0045,1.0487,1.111,1.176,1.2398,1.3258,1.3992,1.464,1.5445,1.5605,1.5224,1.493,1.4937,1.5122,1.4776,1.4796,1.5008,1.5008,1.4836,1.4603,1.4215,1.3895,1.3654,1.3654,1.344,1.328,1.3447,1.3507,1.3507,1.3507,1.3507,1.348,1.334,1.3126,1.2911,1.2804,1.2549,1.2245,1.2051,1.1658,1.1256,1.1156,1.0815,1.0588,1.0727,1.0541,1.0448,1.0579,1.0593,1.0593,1.0593,1.0593,1.0593,1.0593,1.0057,0.9715,0.9715,0.9132,0.8804,0.8804,0.8343,0.8076,0.8076,0.7194,0.6493,0.6023,0.0,0.0,0.0,0.0,0.0,0.0,0.0,0.0,0.0,0.0,0.0,0.0,0.0,0.0,0.0,0.0,0.0,0.0,0.0,0.0,0.0,0.0,0.0,0.5388,0.5769,0.6166,0.6497,0.6763,0.6906,0.6906,0.721,0.7426,0.7433,0.7522,0.7668,0.7811,0.7818,0.7889,0.7992,0.8194,0.8323,0.833,0.8414,0.8643,0.8912,0.9208,0.9482,0.9782,1.0157,1.0766,1.1595,1.2651,1.3522,1.4346,1.5397,1.5784,1.5751,1.5518,1.5411,1.5378,1.5142,1.5035,1.5035,1.5028,1.5022,1.5022,1.5015,1.477,1.4536,1.4536,1.4335,1.4115,1.4102,1.4102,1.4095,1.4088,1.4088,1.4015,1.3686,1.3393,1.314,1.2864,1.2563,1.2311,1.2305,1.2078,1.1826,1.1455,1.1395,1.1295,1.1049,1.1002,0.0,1.064,1.06,1.0593,1.0593,1.0593,1.0593,1.0593,1.0057,0.9715,0.9715,0.9132,0.8804,0.8804,0.853,0.8395,0.8382,0.7488,0.6593,0.5734,0.0,0.0,0.0,0.0,0.0,0.0,0.0,0.0,0.0,0.0,0.0,0.0,0.0,0.0,0.0,0.0,0.0,0.0,0.0,0.0,0.0,0.5265,0.5633,0.5674,0.6257,0.6707,0.6936,0.7227,0.7417,0.7417,0.7489,0.758,0.7682,0.7729,0.7818,0.7921,0.7928,0.8048,0.8204,0.8248,0.8371,0.8421,0.8462,0.8535,0.8587,0.8594,0.868,0.8879,0.8882,0.9412,1.036,1.184,1.2932,1.3854,1.5201,1.5784,1.5771,1.5745,1.5712,1.5698,1.5618,1.5591,1.5565,1.5351,1.5277,1.5244,1.5075,1.4955,1.4843,1.4843,1.4834,1.4676,1.4462,1.4402,1.4355,1.4142,1.4088,1.4068,1.3981,1.37,1.34,1.3146,1.2878,1.2596,1.2345,1.2238,1.2091,1.1797,1.157,1.1362,1.1282,1.1129,0.0,1.0882,1.072,1.0593,1.0593,1.0593,1.0593,1.0593,1.0057,0.9715,0.9715,0.9132,0.8804,0.8804,0.853,0.8277,0.8032,0.7589,0.7121,0.0,0.0,0.0,0.0,0.0,0.0,0.0,0.0,0.0,0.0,0.0,0.0,0.0,0.0,0.0,0.0,0.0,0.0,0.0,0.0,0.0,0.0,0.5884,0.622,0.6342,0.6697,0.7028,0.7221,0.7506,0.7689,0.7689,0.7804,0.7916,0.7997,0.8058,0.813,0.8221,0.8225,0.8265,0.8357,0.8421,0.8492,0.8577,0.8642,0.8672,0.8672,0.8526,0.8604,0.8782,0.8789,0.9381,1.0595,1.1963,1.3095,1.4103,1.53,1.5784,0.0,0.0,0.0,0.0,0.0,1.5784,1.5758,1.5631,1.5578,1.5551,1.5384,1.5244,1.5189,1.5189,1.5109,1.4948,1.4603,1.4522,1.4449,1.4162,1.4088,1.4088,1.4088,1.382,1.3553,1.3387,1.3053,1.273,1.2556,1.2385,0.0,1.2078,1.1904,1.175,1.163,1.1363,1.1129,1.1009,1.0774,1.0593,1.0593,1.0593,1.0593,1.0593,1.0164,0.0,0.0,0.0,0.8904,0.8811,0.8644,0.0,0.0,0.0,0.0,0.0,0.0,0.0,0.0,0.7085,0.7562,0.0,0.0,0.0,0.0,0.0,0.0,0.0,0.0,0.0,0.0,0.0,0.0,0.0,0.0,0.0,0.0,0.6447,0.6841,0.7058,0.7139,0.7223,0.7404,0.7668,0.7838,0.7838,0.8099,0.8323,0.8323,0.8404,0.8482,0.8482,0.0,0.0,0.0,0.0,0.872,0.8737,0.8814,0.8885,0.8881,0.8784,0.8878,0.9266,0.947,1.0329,1.1667,1.2739,1.3845,1.4863,1.556,1.5811,1.5784,1.5784,1.5784,1.5784,1.5784,1.5784,1.5784,1.5784,0.0,0.0,1.5784,1.5658,1.5444,1.5444,1.5264,1.5035,1.4663,1.4569,1.4496,1.4168,1.4088,1.4088,1.4088,1.3881,1.3646,1.3613,1.32,1.2831,1.279,1.2543,1.2305,1.2305,1.2305,1.2218,1.1993,1.1637,1.1295,1.1076,1.0787,1.0593,1.0593,0.0,0.0,1.0593,1.0287,1.0007,0.9746,0.9424,0.9151,0.8918,0.8905,0.8784,0.8556,0.8549,0.839,0.8105,0.8397,0.8549,0.8543,0.8553,0.896,0.0,0.0,0.0,0.0,0.0,0.0,0.0,0.0,0.0,0.0,0.0,0.0,0.0,0.0,0.0,0.6194,0.6688,0.7031,0.7088,0.7405,0.7692,0.7723,0.7885,0.7944,0.7944,0.8163,0.8323,0.8323,0.8404,0.8482,0.8482,0.8482,0.8537,0.8662,0.8696,0.8771,0.8838,0.8868,0.8885,0.8881,0.0,0.0,0.9706,1.0329,1.1252,1.237,1.3923,1.493,1.5451,1.6012,1.6046,1.5784,1.5784,1.5784,1.5784,1.5784,1.5784,1.5784,1.5784,1.5784,1.5784,1.5784,1.5744,1.5698,1.5698,1.5705,0.0,1.5023,1.4877,1.48,1.4229,1.4088,1.4088,1.4088,1.4041,1.3935,1.3653,1.3367,1.3046,1.2837,1.2543,1.2305,1.2305,1.2305,1.2285,1.2225,1.1764,1.1369,1.1315,1.0882,1.0593,1.0593,1.0593,1.0593,1.0593,1.0287,1.0094,1.004,0.976,0.9573,0.9519,0.9512,0.9514,0.9461,0.9461,0.9406,0.9345,0.9406,0.9461,0.9454,0.9452,0.9729,0.0,0.0,0.0,0.0,0.0,0.0,0.0,0.0,0.0,0.0,0.0,0.5081,0.5464,0.0,0.6261,0.6637,0.7014,0.7305,0.7409,0.7668,0.7811,0.7811,0.7897,0.7988,0.7988,0.8245,0.8377,0.8377,0.8584,0.871,0.871,0.871,0.8747,0.8821,0.8825,0.8807,0.8885,0.8885,0.8992,0.9158,0.9242,0.9734,1.0743,1.1558,1.2583,1.3811,1.4949,1.5712,1.6145,1.6414,1.64,1.6253,1.6106,1.5959,1.5784,1.5784,1.5784,1.5784,1.5784,1.5784,1.5784,1.5784,1.5784,1.5784,1.5784,1.5784,1.5738,1.5304,1.5122,1.4908,1.4416,1.4195,1.4088,1.4088,1.4088,1.4048,1.3901,1.352,1.3166,1.3013,1.2612,1.2305,1.2305,1.2305,1.2305,1.2305,1.1931,1.1597,1.1409,1.1049,1.0754,1.0606,1.0593,1.0593,1.0593,1.0287,1.0083,1.0083,0.984,0.9715,0.9715,0.9715,0.9715,0.9715,0.9715,0.9715,0.9715,0.9826,0.99,0.99,1.013,1.0479,0.0,0.0,0.0,0.0,0.0,0.0,0.0,0.0,0.4486,0.4961,0.5304,0.562,0.604,0.6359,0.6688,0.7034,0.7295,0.7509,0.7773,0.7838,0.7855,0.7855,0.7914,0.7988,0.7988,0.8309,0.8482,0.8482,0.8764,0.8885,0.8885,0.8885,0.8885,0.8885,0.8885,0.8885,0.8885,0.8885,0.9103,0.9489,0.9868,1.0688,1.1891,1.2911,1.4089,1.5269,1.5959,1.6471,1.6774,1.6793,1.676,1.6687,1.6446,1.6172,1.5905,1.5804,1.5784,1.5784,1.5784,1.5784,1.5784,1.5784,1.5784,1.5784,1.5784,1.5784,1.5718,1.5478,1.519,1.4941,1.4596,1.4302,1.4088,1.4088,1.4088,1.4088,1.4088,1.3667,1.328,1.322,1.2766,1.2371,1.2311,1.2305,1.2305,1.2305,1.2058,1.1784,1.1543,1.1209,1.0935,1.07,1.0626,1.0593,1.0593,1.0341,1.02,1.02,0.998,0.9883,0.9883,0.9883,0.9883,0.9883,0.9883,0.9883,0.9883,1.0087,1.02,1.0207,1.0627,1.1027,0.3967,0.4161,0.4419,0.4436,0.4528,0.4633,0.0,0.0,0.4975,0.5583,0.5837,0.6051,0.6363,0.6671,0.6893,0.7068,0.7383,0.7631,0.7787,0.788,0.7965,0.7965,0.7978,0.7988,0.7988,0.8309,0.8482,0.8482,0.8764,0.8885,0.8885,0.8885,0.8885,0.8885,0.8885,0.8885,0.8885,0.8885,0.9213,0.9761,1.057,1.1601,1.2802,1.4406,1.5476,1.6187,1.7068,1.7336,1.7148,1.7166,1.6991,1.67,1.6667,1.648,1.6192,1.5925,1.5784,1.5784,1.5784,1.5784,1.5784,1.5784,1.5784,1.5784,1.5784,1.5784,1.5718,1.5478,1.519,1.4941,1.4596,1.4302,1.4088,1.4088,1.4088,1.4088,1.4088,1.3828,1.3473,1.326,1.2933,1.265,1.2345,1.2305,1.2305,1.2305,1.2058,1.1893,1.1859,1.1336,1.0982,1.0949,1.0747,1.0593,1.0593,1.0566,1.0546,1.0546,1.0512,1.0492,1.0492,1.0492,1.0492,1.0492,1.0492,1.0492,1.0492,1.0526,1.0546,1.0546,1.0841,1.1216,0.451,0.4694,0.4894,0.0,0.523,0.5376,0.5497,0.5637,0.5793,0.6125,0.6383,0.6549,0.6715,0.6866,0.7085,0.0,0.7516,0.7682,0.7913,0.7874,0.7891,0.7978,0.7911,0.7891,0.7982,0.8309,0.8482,0.8482,0.8764,0.8885,0.8885,0.8885,0.8885,0.8885,0.8885,0.8885,0.8885,0.8885,0.9213,0.9816,1.0684,1.1823,1.3181,1.4739,1.6027,1.71,1.7424,1.7515,1.7454,1.7454,1.7328,1.7201,1.7027,1.6938,1.6777,1.6259,1.5979,1.5784,1.5784,1.5784,1.5784,1.5784,1.5784,1.5784,1.5784,1.5784,1.5758,1.5678,1.5317,1.4981,1.481,1.4436,1.4088,1.4088,1.4088,1.4088,1.4088,1.3854,1.3513,1.3267,1.2998,1.269,1.2351,1.2305,1.2305,1.2305,1.2198,1.2094,1.1926,1.1692,1.1404,1.1029,1.0767,1.0593,1.0593,1.0593,1.0593,1.0593,1.0593,1.0593,1.0593,1.0593,1.0593,1.0593,1.0593,1.0593,1.0593,1.0593,1.068,1.0847,1.0935,1.1276,0.4979,0.5114,0.0,0.5572,0.5755,0.5905,0.6057,0.621,0.6399,0.6545,0.6712,0.6836,0.6879,0.697,0.7136,0.7489,0.757,0.7689,0.7891,0.7916,0.7916,0.7975,0.7891,0.787,0.7978,0.8309,0.8482,0.8482,0.8764,0.8885,0.8885,0.8885,0.8885,0.8885,0.8885,0.8885,0.8885,0.8885,0.9213,0.9816,1.0688,1.1828,1.3236,1.4959,1.6411,1.7582,1.7582,1.7582,1.7582,1.7582,1.7582,1.7562,1.7407,1.7273,1.7152,1.6723,1.6273,1.5939,1.5811,1.5784,1.5784,1.5784,1.5784,1.5784,1.5784,1.5784,1.5784,1.5784,1.5471,1.5109,1.5028,1.4633,1.4188,1.4108,1.4088,1.4088,1.4088,1.3915,1.364,1.3387,1.308,1.2817,1.2478,1.2358,1.2305,1.2305,1.2305,1.2225,1.2053,1.1953,1.1678,1.1056,1.0841,1.068,1.06,1.0593,1.0593,1.0593,1.0593,1.0593,1.0593,1.0593,1.0593,1.0593,1.0593,1.0593,1.0593,1.0673,1.0821,1.0995,1.1162,1.1463,0.5262,0.0,0.5457,0.5722,0.5911,0.6064,0.6255,0.6402,0.6549,0.6661,0.6702,0.6753,0.6859,0.6889,0.7034,0.7329,0.7502,0.7651,0.7797,0.7891,0.7985,0.7988,0.7985,0.7985,0.7988,0.8309,0.8482,0.8482,0.8764,0.8885,0.8885,0.8885,0.8885,0.8885,0.8885,0.8885,0.8885,0.8885,0.9213,0.9816,1.0676,1.1764,1.2965,1.5274,1.6776,1.7582,1.7582,1.7582,1.7582,1.7582,1.7582,1.7582,1.7569,1.7454,1.7199,1.7186,1.6804,1.6219,1.5925,1.5784,1.5784,1.5784,1.5784,1.5784,1.5784,1.5784,1.5784,1.5784,1.5611,1.5317,1.5082,1.4736,1.4436,1.4155,1.4088,1.4088,1.4088,1.4082,1.3988,1.3646,1.3353,1.3093,1.2824,1.2529,1.2305,1.2305,1.2305,1.2298,1.2291,1.2044,1.1678,1.1056,1.0982,1.0868,1.062,1.0593,1.0593,1.0593,1.0593,1.0593,1.0593,1.0593,1.0593,1.0593,1.0593,1.0593,1.0593,1.0874,1.0982,1.1009,1.1611,1.1886,0.53,0.0,0.5854,0.6095,0.6369,0.66,0.6692,0.6742,0.679,0.6841,0.6692,0.6597,0.6749,0.6695,0.6756,0.7153,0.7346,0.7533,0.7777,0.7855,0.7877,0.7978,0.7901,0.0,0.7978,0.8309,0.0,0.8482,0.8764,0.8885,0.8885,0.8885,0.8885,0.8885,0.8885,0.8885,0.8885,0.8885,0.9213,0.9816,1.166,1.3285,1.4696,1.598,1.6942,1.7582,1.7582,1.7582,1.7582,1.7582,1.7582,1.7582,1.7582,1.7522,1.7467,1.7273,1.6951,1.652,1.6226,1.5999,1.5784,1.5784,1.5784,1.5784,1.5784,1.5784,1.5784,1.5784,1.5618,1.5378,1.5277,1.4883,1.4496,1.4396,1.4229,1.4088,1.4088,1.4088,1.4001,1.366,1.3367,1.3113,1.2837,1.2536,1.2305,1.2305,1.2305,1.2305,1.2305,1.2087,1.1826,1.1631,1.1396,1.1243,1.1142,1.1136,1.1136,1.1136,1.0955,1.0881,1.0881,1.0693,1.068,1.0842,1.0881,1.0942,1.1136,1.1229,1.1383,1.1618,1.1812,1.2013,0.5607,0.5895,0.6162,0.6405,0.6634,0.6848,0.6848,0.6848,0.6817,0.6712,0.6532,0.6467,0.6525,0.6504,0.6542,0.695,0.7238,0.7455,0.7702,0.7828,0.788,0.7978,0.7904,0.788,0.0,0.0,0.0,0.8482,0.8764,0.8885,0.8885,0.8885,0.8885,0.8885,0.8885,0.8885,0.8885,0.8885,0.9375,1.03,1.2205,1.3986,1.5494,1.6246,1.6942,1.7582,1.7582,1.7582,1.7582,1.7582,1.7582,1.7582,1.7582,1.7582,1.7562,1.7427,1.7048,1.666,1.6373,1.6079,1.5784,1.5784,1.5784,1.5784,1.5784,1.5784,1.5784,1.5784,1.5698,1.5524,1.5424,1.5117,1.4776,1.4569,1.4382,1.4215,1.4108,1.4088,1.4035,1.3841,1.3527,1.3267,1.3005,1.2572,1.2305,1.2305,1.2305,1.2305,1.2305,1.2138,1.202,1.1913,1.1697,1.1543,1.1395,1.1389,1.1389,1.1389,1.1249,1.1102,1.0995,1.0915,1.0909,1.0995,1.1096,1.1236,1.1389,1.153,1.1683,1.1906,1.2013,1.2124,0.6143,0.6317,0.6402,0.663,0.6705,0.6709,0.6702,0.6688,0.66,0.6358,0.6276,0.6259,0.6272,0.0,0.6416,0.6831,0.716,0.7414,0.7577,0.7851,0.7988,0.0,0.0,0.0,0.0,0.0,0.0,0.8492,0.0,0.8885,0.8885,0.8885,0.8885,0.8885,0.8885,0.8885,0.8937,0.8992,0.9754,1.1219,1.2417,1.3873,1.547,1.6074,1.6776,1.7582,1.7582,1.7582,1.7582,1.7582,1.7582,1.7582,1.7582,1.7582,1.7582,1.7582,1.7221,1.6687,1.6393,1.6092,1.5784,1.5784,1.5784,1.5784,1.5784,1.5784,1.5784,1.5784,1.5784,1.5718,1.5491,1.5404,1.5251,1.4676,1.4529,1.4442,1.4148,1.4088,1.4088,1.4088,1.3834,1.3487,1.324,1.2692,1.2305,1.2305,1.2305,1.2305,1.2305,1.2305,1.2198,1.1953,1.1926,1.1777,1.1462,1.1435,1.1435,1.1435,1.1422,1.1323,1.1049,1.1255,1.1303,1.1042,1.1309,1.1422,1.1435,1.1757,1.1926,1.1933,1.2171,1.2305,0.6228,0.6505,0.6749,0.6712,0.6787,0.6841,0.6725,0.6529,0.6392,0.6317,0.5938,0.5692,0.5878,0.583,0.0,0.6498,0.6932,0.0,0.7563,0.7851,0.0,0.7988,0.0,0.8035,0.8201,0.8377,0.0,0.0,0.8828,0.8885,0.8885,0.8885,0.8885,0.8885,0.8885,0.8995,0.9268,1.0363,1.145,1.2472,1.3825,1.5007,1.6074,1.6683,1.7219,1.7582,1.7582,1.7582,1.7582,1.7582,1.7582,1.7582,1.7582,1.7582,1.7582,1.7582,1.74,1.7045,1.67,1.6259,1.5784,1.5784,1.5784,1.5784,1.5784,1.5784,1.5784,1.5784,1.5784,1.5764,1.5738,1.5558,1.5304,1.4981,1.4683,1.4442,1.4148,1.4088,1.4088,1.4088,1.3674,1.322,1.2958,1.2552,1.2305,1.2305,1.2305,1.2305,1.2305,1.2305,1.2271,1.2204,1.2191,1.2158,1.2084,1.2078,1.2078,1.2078,1.1877,1.1759,1.1685,1.1503,1.1496,1.1678,1.1752,1.1864,1.2078,1.2151,1.2191,1.2191,1.2265,1.2305,0.6393,0.6685,0.6866,0.682,0.6814,0.6773,0.6556,0.6313,0.6061,0.5928,0.5576,0.5332,0.5566,0.5576,0.0,0.0,0.0,0.0,0.7448,0.7753,0.7914,0.0,0.8099,0.0,0.8313,0.8459,0.8618,0.0,0.8797,0.8885,0.8885,0.8885,0.8885,0.8885,0.8885,0.932,1.0135,1.1505,1.2802,1.4035,1.506,1.6027,1.6882,1.7219,1.7483,1.7582,0.0,1.7582,1.7582,1.7582,1.7582,1.7582,1.7582,1.7582,1.7582,1.7582,1.7454,1.7179,1.6954,1.6513,1.6005,1.5872,1.5784,1.5784,1.5784,1.5784,1.5784,1.5784,1.5784,1.5784,1.5784,1.5712,1.5511,1.5224,1.493,1.4636,1.4342,1.4175,1.4088,1.4088,1.3714,1.3307,1.3006,1.2737,1.2452,1.2318,1.2305,1.2305,1.2305,1.2305,1.2305,1.2305,1.2305,1.2305,1.2305,1.2305,1.2305,1.2305,1.2151,1.2004,1.1906,1.183,1.183,1.1906,1.2033,1.2138,1.2305,1.2305,1.2305,1.2305,1.2305,1.2305,0.6658,0.6827,0.6879,0.6862,0.677,0.6566,0.6306,0.5945,0.5633,0.5392,0.0,0.5036,0.5272,0.5306,0.5511,0.6136,0.0,0.6827,0.7278,0.7611,0.7862,0.7944,0.8163,0.833,0.8347,0.855,0.872,0.8737,0.8807,0.8885,0.8885,0.8885,0.8937,0.8992,0.9158,0.9919,1.1324,1.258,1.3981,1.5524,1.6133,1.6829,1.7582,1.7582,1.7582,1.7582,1.7582,1.7582,1.7582,1.7582,1.7582,1.7582,1.7582,1.7582,1.7582,1.7582,1.7474,1.7253,1.7213,1.6844,1.6279,1.5985,1.5865,1.5784,1.5784,1.5784,1.5784,1.5784,1.5784,1.5784,1.5784,1.5784,1.5711,1.5464,1.5223,1.4928,1.4583,1.4295,1.4088,1.4088,1.3848,1.3527,1.3273,1.3013,1.2744,1.2405,1.2365,1.2345,1.2305,1.2305,1.2305,1.2305,1.2305,1.2305,1.2305,1.2305,1.2305,1.2305,1.2305,1.2191,1.1973,1.2171,1.2184,1.1966,1.2171,1.2305,1.2305,1.2305,1.2305,1.2305,1.2305,1.2305,0.6841,0.6866,0.6856,0.6773,0.6536,0.6296,0.5952,0.5552,0.0,0.0,0.4651,0.4456,0.4758,0.4806,0.5043,0.5766,0.0,0.0,0.0,0.0,0.7821,0.0,0.0,0.0,0.0,0.0,0.0,0.0,0.8868,0.8885,0.8885,0.8885,0.9103,0.9651,1.0637,1.1614,1.258,1.3932,1.5114,1.6127,1.6736,1.7219,1.7582,1.7582,1.7582,1.7582,1.7582,0.0,1.7582,1.7582,1.7582,1.7582,1.7582,1.7582,1.7582,1.7582,1.7549,1.7475,1.7286,1.6971,1.658,1.6286,1.6032,1.5784,1.5784,1.5784,1.5784,1.5784,1.5784,1.5784,1.5784,1.5784,1.5711,1.5464,1.5223,1.4928,1.4583,1.4295,1.4088,1.4088,1.3848,1.3586,1.354,1.3327,1.3026,1.2757,1.2703,1.2616,1.2338,1.2305,1.2305,1.2305,1.2305,1.2305,1.2305,1.2305,1.2305,1.2305,1.2305,1.2278,1.2231,1.2278,1.2278,1.2225,1.2278,1.2305,1.2305,1.2305,1.2305,1.2305,1.2305,1.2305,0.679,0.6868,0.6849,0.6739,0.6478,0.6197,0.5779,0.0,0.0,0.0,0.4385,0.4193,0.4545,0.46,0.0,0.0,0.0,0.0,0.0,0.0,0.0,0.0,0.0,0.0,0.0,0.0,0.0,0.8878,0.8885,0.8885,0.8885,0.9213,0.9702,1.046,1.1664,1.2911,1.4191,1.5162,1.6133,1.6995,1.7272,1.7483,1.7582,1.7582,1.7582,1.7582,1.7582,1.7582,1.7582,1.7582,1.7582,1.7582,1.7582,1.7582,1.7582,1.7582,1.7582,1.7562,1.7474,1.7081,1.6687,1.6547,1.6199,1.5784,1.5784,1.5784,1.5784,1.5784,1.5784,1.5784,1.5784,1.5784,1.5792,1.5658,1.5284,1.4881,1.4389,1.4182,1.4088,1.4088,1.3975,1.378,1.3626,1.3487,1.3333,1.3033,1.2891,1.273,1.2589,1.2398,1.2305,1.2305,1.2305,1.2305,1.2305,1.2305,1.2305,1.2305,1.2305,1.2305,1.2305,1.2305,1.2305,1.2305,1.2305,1.2305,1.2305,1.2305,1.2305,1.2305,1.2305,1.2305,0.6742,0.6814,0.6851,0.6729,0.643,0.6091,0.5672,0.5169,0.0,0.0,0.4131,0.4005,0.4296,0.0,0.4545,0.0,0.5528,0.0,0.0,0.0,0.0,0.0,0.0,0.0,0.0,0.0,0.0,0.0,0.8992,0.9103,0.9103,0.9816,1.0574,1.1433,1.2689,1.4089,1.5583,1.6187,1.6889,1.7582,1.7582,1.7582,1.7582,1.7582,1.7582,1.7582,1.7582,1.7582,1.7582,1.7582,1.7582,1.7582,1.7582,1.7582,1.7582,1.7582,1.7582,1.7582,1.7582,1.7201,1.6707,1.6707,1.6306,1.5784,1.5784,1.5784,1.5784,1.5784,1.5784,1.5784,1.5784,1.5784,1.5751,1.5671,1.5297,1.4847,1.4215,1.4088,1.4088,1.4088,1.4088,1.4015,1.374,1.37,1.36,1.3347,1.3093,1.2931,1.2804,1.2583,1.2371,1.2311,1.2305,1.2305,1.2305,1.2305,1.2305,1.2305,1.2305,1.2305,1.2305,1.2305,1.2305,1.2305,1.2305,1.2305,1.2305,1.2305,1.2305,1.2305,1.2305,1.2305,0.6829,0.6817,0.6719,0.6705,0.6268,0.5762,0.5487,0.0,0.0,0.4121,0.3826,0.3692,0.3826,0.3853,0.405,0.4653,0.515,0.5648,0.0,0.0,0.0,0.0,0.0,0.0,0.0,0.0,0.0,0.8885,0.9434,0.9706,0.9706,1.0802,1.1832,1.2694,1.4094,1.5274,1.6187,1.6849,1.7272,1.7582,1.7582,1.7582,1.7582,1.7582,1.7582,1.7582,1.7582,1.7582,0.0,1.7582,1.7582,1.7582,1.7582,1.7582,1.7582,1.7582,1.7582,1.7582,1.7582,1.7201,1.6707,1.6707,1.6306,1.5784,1.5784,1.5784,1.5784,1.5784,1.5784,1.5784,1.5784,1.5784,1.5698,1.517,1.5048,1.4847,1.4215,1.4088,1.4088,1.4088,1.4088,1.4082,1.4048,1.4048,1.3948,1.3606,1.354,1.336,1.2857,1.2764,1.2643,1.2331,1.2305,1.2305,1.2305,1.2305,1.2305,1.2305,1.2305,1.2305,1.2305,1.2305,1.2305,1.2305,1.2305,1.2305,1.2305,1.2305,1.2305,1.2305,1.2305,1.2305,0.6614,0.661,0.6542,0.6497,0.6115,0.5698,0.5311,0.0,0.4406,0.408,0.3785,0.3648,0.3765,0.3792,0.3958,0.4498,0.4857,0.5304,0.5901,0.0,0.0,0.0,0.0,0.0,0.0,0.0,0.0,0.9427,1.0363,1.1126,1.1664,1.21,1.3014,1.4352,1.5322,1.6187,1.7047,1.7318,1.7483,1.7582,1.7582,1.7582,1.7582,1.7582,1.7582,1.7582,1.7582,1.7582,0.0,1.7582,1.7582,1.7582,1.7582,1.7582,1.7582,1.7582,1.7521,1.7373,1.7373,1.6934,1.6446,1.6446,1.6166,1.5784,1.5784,1.5784,1.5784,1.5784,1.5784,1.5784,1.5784,1.5784,1.5732,1.5317,1.5135,1.4894,1.4436,1.4208,1.4088,1.4088,1.4088,1.4088,1.4088,1.4088,1.4048,1.3928,1.372,1.3453,1.308,1.2898,1.267,1.2338,1.2305,1.2305,1.2305,1.2305,1.2305,1.2305,1.2305,1.2305,1.2305,1.2305,1.2305,1.2305,1.2305,1.2305,1.2305,1.2305,1.2305,1.2305,1.2522,1.2603,0.6409,0.648,0.6477,0.6334,0.6033,0.5633,0.0,0.4752,0.4328,0.4048,0.3785,0.3631,0.3733,0.3765,0.391,0.43,0.4663,0.5111,0.5661,0.6254,0.0,0.0,0.0,0.0,0.0,0.0,0.9309,1.0123,1.1286,1.2481,1.3604,1.3825,1.4465,1.5636,1.624,1.6889,1.7582,1.7582,1.7582,1.7582,1.7582,1.7582,1.7582,1.7582,1.7582,1.7582,1.7582,1.7582,0.0,1.7582,1.7582,1.7582,1.7582,1.7582,1.7582,1.7582,1.7454,1.7199,1.7199,1.6817,1.6321,1.6321,1.6072,1.5784,1.5784,1.5784,1.5784,1.5784,1.5784,1.5784,1.5784,1.5784,1.5711,1.5464,1.5223,1.4928,1.4583,1.4295,1.4088,1.4088,1.4088,1.4088,1.4088,1.4088,1.4088,1.4088,1.3908,1.3641,1.326,1.3058,1.277,1.2345,1.2305,1.2305,1.2305,1.2305,1.2305,1.2305,1.2305,1.2305,1.2305,1.2305,1.2305,1.2305,1.2305,1.2305,1.2305,1.2305,1.2345,1.2438,1.269,1.3031,0.6259,0.6405,0.6477,0.6334,0.5962,0.5511,0.5167,0.4645,0.4153,0.4028,0.3785,0.3604,0.3604,0.372,0.3843,0.3974,0.45,0.5077,0.5528,0.6139,0.0,0.0,0.0,0.0,0.0,0.0,1.0004,1.0983,1.22,0.0,1.5257,1.5962,1.6293,1.6293,1.6902,1.7331,1.7582,1.7582,1.7582,1.7582,1.7582,1.7582,1.7582,1.7582,1.7582,1.7582,1.7582,1.7582,0.0,1.7582,1.7582,1.7582,1.7582,1.7582,1.7582,1.7582,1.7454,1.7199,1.7199,1.6817,1.6321,1.6321,1.6072,1.5784,1.5784,1.5784,1.5784,1.5784,1.5784,1.5784,1.5784,1.5784,1.5711,1.5464,1.5223,1.4928,1.4583,1.4295,1.4088,1.4088,1.4088,1.4088,1.4088,1.4088,1.4088,1.4088,1.4082,1.3874,1.3287,1.3206,1.2973,1.2365,1.2305,1.2305,1.2305,1.2305,1.2305,1.2305,1.2305,1.2305,1.2305,1.2305,1.2305,1.2305,1.2305,1.2305,1.2305,1.2305,1.2452,1.2777,1.2784,1.3567,0.5798,0.5905,0.5956,0.5743,0.5573,0.5361,0.4921,0.45,0.4153,0.4028,0.3785,0.3604,0.3604,0.372,0.3843,0.3971,0.444,0.4921,0.0,0.0,0.0,0.0,0.0,0.0,0.0,0.0,1.031,1.1629,1.3019,1.4422,1.5914,1.6571,1.7001,1.7206,1.7371,1.7529,1.7582,1.7582,1.7582,1.7582,1.7582,1.7582,1.7582,1.7582,1.7582,1.7582,1.7582,1.7582,1.7582,1.7582,1.7582,1.7582,1.7582,1.7514,1.734,1.734,1.7025,1.6603,1.6603,1.6299,1.5972,1.5972,1.5905,1.5784,1.5784,1.5784,1.5784,1.5784,1.5784,1.5784,1.5784,1.5784,1.5758,1.5712,1.5317,1.4981,1.4843,1.4436,1.4088,1.4088,1.4088,1.4088,1.4088,1.4088,1.4088,1.4088,1.4088,1.3948,1.352,1.3467,1.332,1.2966,1.2732,1.2563,1.2318,1.2305,1.2305,1.2305,1.2305,1.2305,1.2305,1.2305,1.2305,1.2305,1.2305,1.2305,1.2305,1.2543,1.2866,1.336,1.336,1.4047,0.5345,0.5521,0.5579,0.5335,0.5233,0.5122,0.4723,0.4375,0.4092,0.394,0.3744,0.3617,0.3672,0.3778,0.3927,0.4055,0.4456,0.4935,0.0,0.0,0.0,0.0,0.0,0.0,0.0,0.9429,1.0743,1.2384,1.3717,1.5179,1.6723,1.716,1.743,1.7582,1.7582,1.7582,1.7582,1.7582,1.7582,1.7582,1.7582,1.7582,1.7582,1.7582,1.7582,1.7582,1.7582,1.7582,0.0,1.7582,1.7582,1.7582,1.7582,1.746,1.7199,1.7199,1.6831,1.6321,1.6321,1.6079,1.5784,1.5784,1.5879,1.5974,1.6069,1.5967,1.5784,1.5784,1.5784,1.5784,1.5784,1.5784,1.5784,1.5784,1.5471,1.5142,1.5035,1.4633,1.4215,1.4108,1.4088,1.4088,1.4088,1.4088,1.4088,1.4088,1.4088,1.3981,1.364,1.36,1.3493,1.324,1.3033,1.2884,1.2665,1.2432,1.2305,1.2305,1.2305,1.2305,1.2305,1.2305,1.2305,1.2305,1.2305,1.2358,1.2472,1.2886,1.328,1.3606,1.372,1.4358,0.0,0.5196,0.5324,0.5106,0.4968,0.4823,0.4545,0.4226,0.0,0.3822,0.3709,0.3658,0.3768,0.3934,0.4072,0.4213,0.4621,0.5104,0.0,0.6057,0.0,0.0,0.0,0.0,0.8521,0.9788,1.134,1.3195,1.4411,1.5814,1.7529,1.7582,1.7569,1.7555,1.7549,1.7549,1.7549,1.7569,1.7569,1.7555,1.7569,1.7582,1.7582,1.7582,1.7569,0.0,1.7549,1.7542,1.7522,1.7542,1.7549,1.7555,1.7575,1.744,1.7166,1.7166,1.6797,1.6239,1.6239,1.6059,1.5784,1.5784,1.5981,1.6265,1.6588,1.6298,1.5879,1.5879,1.5832,1.5825,1.5784,1.5832,1.5832,1.5825,1.5651,1.5363,1.5113,1.4774,1.4436,1.4142,1.4088,1.4088,1.4088,1.4088,1.4088,1.4088,1.4088,1.3988,1.3666,1.3633,1.3533,1.33,1.3253,1.324,1.324,1.2705,1.2365,1.2365,1.2365,1.2365,1.2365,1.2365,1.2365,1.2365,1.2365,1.2512,1.2851,1.3373,1.3613,1.364,1.3955,1.458,0.4335,0.0,0.4986,0.4833,0.4769,0.4667,0.0,0.4129,0.395,0.3822,0.3765,0.3751,0.3785,0.4126,0.4399,0.4433,0.4917,0.5405,0.5705,0.0,0.0,0.7806,0.8192,0.8653,0.9303,1.0658,1.2147,1.3793,1.5013,1.6258,1.7529,1.7582,1.7534,1.7306,1.73,1.73,1.73,1.7521,1.7521,1.7306,1.7475,1.7582,1.7582,1.7582,1.7514,1.73,1.73,1.7172,1.6927,1.7213,1.73,1.7326,1.7495,1.7268,1.6807,1.6807,1.644,1.5932,1.5932,1.5885,1.5784,1.5784,1.6116,1.6629,1.7225,1.6951,1.6393,1.6393,1.6258,1.6076,1.5832,1.5927,1.617,1.6346,1.6218,1.5913,1.56,1.5156,1.4681,1.4184,1.4088,1.4088,1.4088,1.4088,1.4088,1.4088,1.4088,1.4062,1.3988,1.3981,1.3961,1.3888,1.3681,1.35,1.35,1.3206,1.2999,1.2999,1.2999,1.2999,1.2999,1.2999,1.2999,1.2999,1.2999,1.314,1.3393,1.3533,1.372,1.3981,1.4055,1.458,0.4055,0.4392,0.4691,0.4634,0.4614,0.4507,0.4186,0.4001,0.3873,0.3747,0.0,0.3832,0.395,0.4311,0.4665,0.487,0.5296,0.0,0.0,0.0,0.0,0.0,0.8649,0.9264,0.0,1.1505,1.2899,1.4395,1.537,1.6279,1.7136,1.7181,1.7108,1.6998,1.6947,1.6947,1.6947,1.7101,1.7101,1.6947,1.7108,1.7181,1.7181,1.7181,1.7094,1.6947,1.6947,1.6854,1.6727,1.7079,1.7199,1.7233,1.7521,1.7221,1.6707,1.6707,1.6333,1.5784,1.5784,1.5879,1.6021,1.6116,1.6676,1.7426,1.8149,1.8195,1.7831,1.7279,1.6864,1.6447,1.592,1.6069,1.6494,1.6998,1.7008,1.6755,1.6321,1.5826,1.5186,1.4296,1.4088,1.4088,1.4088,1.4088,1.4088,1.4088,1.4088,1.4088,1.4088,1.4088,1.4088,1.4088,1.3941,1.3848,1.3848,1.3701,1.35,1.3227,1.3213,1.3213,1.3213,1.3213,1.3213,1.3213,1.33,1.3447,1.36,1.374,1.3928,1.4088,1.4088,1.458,0.3947,0.4253,0.4525,0.4525,0.4525,0.4453,0.4151,0.0,0.0,0.0,0.0,0.0,0.4233,0.4579,0.0,0.0,0.0,0.0,0.7048,0.7556,0.7977,0.8428,0.9055,0.0,1.1126,1.2335,1.3635,1.5007,1.564,1.6196,1.667,1.6707,1.6687,1.664,1.664,1.662,1.6573,1.666,1.6687,1.664,1.6687,1.6707,1.6707,1.6707,1.668,1.664,0.0,0.0,1.66,1.6991,1.7132,1.7166,1.7507,1.7221,1.6707,1.6707,1.6333,1.5784,1.5784,1.6021,1.6312,1.6683,1.7466,1.8442,1.9293,1.9658,1.9575,1.8557,1.7731,1.7044,1.6251,1.644,1.7044,1.7777,1.7917,1.775,1.7106,1.6551,1.5753,1.4426,1.4115,1.4088,1.4088,1.4088,1.4088,1.4088,1.4088,1.4088,1.4088,1.4088,1.4088,1.4088,1.4088,1.4088,1.4088,1.4088,1.3874,1.3373,1.3347,1.3347,1.3347,1.3347,1.3347,1.3347,1.3547,1.3666,1.3666,1.3968,1.4088,1.4088,1.4088,1.4601,0.392,0.4331,0.4657,0.4657,0.4657,0.4638,0.446,0.4284,0.0,0.0,0.0,0.0,0.0,0.5003,0.5395,0.0,0.0,0.6936,0.0,0.0,0.7977,0.8428,0.0,1.0294,1.1724,1.2904,1.4157,1.5631,1.6049,1.6358,1.6657,1.6707,1.6593,1.6346,1.6339,1.6219,1.5917,1.646,1.6587,1.6339,1.6587,1.6707,1.6707,1.6707,1.6573,1.6339,0.0,1.6199,1.5957,1.6547,1.6774,1.6827,1.7368,1.7221,1.6707,1.6707,1.6333,1.5784,1.5784,1.6109,1.6629,1.7326,1.8195,1.9285,2.0584,2.1051,2.1069,2.0809,1.9497,1.8017,1.7279,1.7598,1.8288,1.8834,1.8988,1.8746,1.7995,1.7033,1.595,1.469,1.4255,1.4088,1.4088,1.4088,1.4088,1.4088,1.4088,1.4088,1.4088,1.4088,1.4088,1.4088,1.4088,1.4088,1.4088,1.4088,1.4048,1.3961,1.3955,1.3955,1.3955,1.3955,1.3955,1.3955,1.3995,1.4021,1.4021,1.4062,1.4088,1.4088,1.4088,1.4718,0.3938,0.4287,0.4634,0.4772,0.487,0.4867,0.4665,0.447,0.4345,0.0,0.0,0.0,0.0,0.0,0.5803,0.6424,0.0,0.7478,0.7685,0.7841,0.8041,0.0,0.0,1.0522,1.2145,1.3357,1.4595,1.6029,1.6255,1.6259,1.6239,1.6233,1.6172,1.6039,1.6032,1.5965,1.5784,1.6099,1.6166,1.6039,1.6166,1.6233,1.6233,1.6233,1.6159,1.6032,0.0,1.5952,1.5865,1.6293,1.6567,1.6734,1.7001,1.6941,1.6667,1.6346,1.6066,1.5784,1.5784,1.6258,1.6965,1.7785,1.885,2.0031,2.132,2.1828,2.1891,2.1774,2.0683,1.9422,1.8688,1.8918,1.9559,2.0178,2.0158,1.9711,1.8775,1.7788,1.6529,1.4821,1.4409,1.4269,1.4115,1.4088,1.4088,1.4088,1.4088,1.4088,1.4088,1.4088,1.4088,1.4088,1.4088,1.4088,1.4088,1.4088,1.4088,1.4088,1.4088,1.4088,1.4088,1.4088,1.4088,1.4088,1.4088,1.4088,1.4088,1.4088,1.4088,1.4088,1.4249,1.4898,0.3904,0.4209,0.4545,0.4755,0.4941,0.5049,0.4891,0.476,0.4658,0.0,0.0,0.0,0.0,0.573,0.0,0.7082,0.7563,0.7824,0.7862,0.7917,0.8096,0.8252,0.9227,1.0603,1.2423,1.3542,1.4763,1.6188,1.6213,1.6072,1.5791,1.5784,1.5784,1.5784,1.5784,1.5784,1.5784,1.5784,1.5784,1.5784,1.5784,1.5784,1.5784,1.5784,1.5784,1.5784,1.5784,1.5784,1.5852,1.6152,1.64,1.6613,1.668,1.666,1.654,1.6019,1.5784,1.5784,1.5784,1.6353,1.7254,1.8288,1.9492,2.069,2.1971,2.2422,2.252,2.2378,2.1774,2.1006,2.0096,2.0187,2.0728,2.1346,2.1114,2.0504,1.9418,1.8372,1.7019,1.5076,1.4669,1.4536,1.4242,1.4188,1.4168,1.4095,1.4088,1.4088,1.4088,1.4142,1.4188,1.4188,1.4249,1.4269,1.4195,1.4128,1.4088,1.4088,1.4088,1.4088,1.4088,1.4088,1.4088,1.4088,1.4088,1.4088,1.4088,1.4088,1.4122,1.4195,1.4416,1.5113,0.3802,0.4153,0.4494,0.4518,0.4816,0.513,0.5317,0.5192,0.5125,0.53,0.0,0.0,0.0,0.6515,0.7115,0.7509,0.7702,0.7862,0.7955,0.0,0.8096,0.8252,0.9227,1.0603,1.2423,1.3339,1.4517,1.6175,1.6019,1.5852,1.5784,1.5784,1.5784,1.5784,1.5784,1.5784,1.5784,1.5784,1.5784,1.5784,1.5784,1.5784,1.5784,1.5784,1.5784,1.5784,1.5784,1.5784,1.5852,1.6152,1.6335,1.6333,1.66,1.654,1.6315,1.5945,1.5784,1.5784,1.5784,1.644,1.7512,1.8956,2.0104,2.1221,2.2608,2.3047,2.3047,2.3047,2.296,2.2599,2.1257,2.1248,2.165,2.1961,2.1678,2.1006,1.9745,1.8494,1.7153,1.5613,1.5117,1.4836,1.4543,1.4489,1.4396,1.4128,1.4088,1.4088,1.4088,1.4322,1.4489,1.4489,1.4736,1.4834,1.4516,1.4242,1.4088,1.4088,1.4088,1.4088,1.4088,1.4088,1.4088,1.4088,1.4088,1.4088,1.4088,1.4088,1.4222,1.4489,1.4509,1.5334,0.4024,0.4267,0.4535,0.4701,0.5013,0.532,0.5382,0.5457,0.5593,0.5745,0.589,0.0,0.0,0.0,0.7166,0.7424,0.7655,0.7865,0.7968,0.7988,0.8012,0.8119,0.9076,1.0341,1.1984,1.3062,1.4291,1.5848,1.5892,1.5784,1.5784,1.5784,1.5784,1.5784,1.5784,1.5784,1.5784,1.5784,1.5784,1.5784,1.5784,1.5784,1.5784,1.5784,1.5784,1.5784,1.5784,1.5784,1.5791,1.5952,1.6106,1.6335,1.6393,1.6253,1.5985,1.5872,1.5927,1.6076,1.6258,1.7044,1.8195,1.9505,2.0602,2.165,2.2775,2.3091,2.3091,2.3091,2.3091,2.296,2.2422,2.2422,2.2599,2.2687,2.2132,2.1186,1.9824,1.8639,1.7414,1.5754,1.5304,1.5137,1.4843,1.4796,1.4696,1.4402,1.4516,1.4563,1.4382,1.4616,1.4796,1.4796,1.4941,1.4961,1.4803,1.4529,1.4355,1.4355,1.4188,1.4088,1.4088,1.4088,1.4088,1.4088,1.4088,1.4088,1.4088,1.4269,1.4409,1.4529,1.4897,1.5722,0.4122,0.4257,0.4457,0.4711,0.5102,0.5419,0.5515,0.5767,0.6003,0.62,0.6363,0.6515,0.6658,0.0,0.0,0.0,0.7692,0.787,0.7975,0.8088,0.8137,0.8237,0.9274,1.0551,1.1999,1.3119,1.4334,1.5683,1.5784,1.5784,1.5784,1.5784,1.5784,1.5784,1.5784,1.5784,1.5784,1.5784,1.5784,1.5784,1.5784,1.5784,1.5784,1.5784,1.5784,1.5784,1.5784,1.5784,1.5784,1.5784,1.5945,1.6132,1.6132,1.6005,1.5784,1.5784,1.6021,1.6407,1.6817,1.7692,1.888,2.015,2.115,2.1971,2.2828,2.3091,2.3091,2.3091,2.3091,2.3091,2.3091,2.3091,2.3091,2.3091,2.2441,2.1454,2.0051,1.9063,1.7964,1.6309,1.5949,1.5814,1.5422,1.5285,1.5138,1.471,1.4836,1.4934,1.4689,1.4917,1.5182,1.5224,1.5124,1.5064,1.5142,1.4883,1.4679,1.4663,1.4476,1.4282,1.4095,1.4088,1.4128,1.4222,1.4222,1.4269,1.4362,1.4563,1.471,1.4803,1.5211,1.5991,0.4001,0.4112,0.426,0.446,0.0,0.0,0.5739,0.6081,0.6388,0.6647,0.6827,0.6933,0.7071,0.7394,0.0,0.76,0.7845,0.7988,0.7988,0.8233,0.8528,0.8775,1.001,1.1336,1.2587,1.3661,1.4729,1.5737,1.5784,1.5784,1.5784,1.5784,1.5784,1.5784,1.5784,1.5784,1.5784,1.5784,1.5784,1.5784,1.5784,1.5784,1.5784,1.5784,1.5784,1.5784,1.5784,1.5784,1.5784,1.5784,1.5784,1.5784,1.5832,1.5832,1.5832,1.5825,1.6163,1.6723,1.7458,1.8373,1.9467,2.0836,2.165,2.2236,2.2916,2.3091,2.3091,2.3091,2.3091,2.3091,2.3091,2.3091,2.3091,2.3091,2.2574,2.1767,2.0466,1.9666,1.8866,1.7559,1.7153,1.6832,1.6221,1.5957,1.5638,1.51,1.5015,1.5015,1.5015,1.5224,1.5511,1.5751,1.5438,1.5245,1.5391,1.5265,1.517,1.5028,1.5015,1.4747,1.4122,1.4095,1.4229,1.4522,1.4479,1.4669,1.5008,1.5015,1.5162,1.5398,1.5398,1.6056,0.4433,0.4524,0.0,0.5037,0.0,0.0,0.0,0.6427,0.0,0.0,0.7295,0.738,0.7316,0.7465,0.0,0.76,0.7756,0.7916,0.7975,0.8382,0.892,0.9558,1.0636,1.195,1.3397,1.419,1.4927,1.573,1.5784,1.5784,1.5784,1.5784,1.5784,1.5784,1.5784,1.5784,1.5784,1.5784,1.5784,1.5784,1.5784,1.5784,1.5784,1.5784,1.5784,1.5784,1.5784,1.5784,1.5784,1.5784,1.5927,1.6123,1.6305,1.6494,1.6643,1.6817,1.7271,1.7971,1.8557,1.9521,2.0619,2.1561,2.2201,2.2652,2.3013,2.3091,2.3091,2.3091,2.3091,2.3091,2.3091,2.3091,2.3091,2.3091,2.2706,2.2069,2.1177,2.0548,1.9923,1.9001,1.8511,1.8033,1.7333,1.6901,1.6344,1.5402,1.5444,1.5571,1.5571,1.5651,1.5684,1.5771,1.5678,1.5624,1.5698,1.5624,1.5631,1.5578,1.519,1.4934,1.4754,1.4747,1.4787,1.483,1.483,1.4921,1.5008,1.517,1.5311,1.5398,1.5605,1.6263,0.4592,0.4735,0.0,0.5371,0.5757,0.6115,0.6624,0.0,0.0,0.0,0.7536,0.759,0.7553,0.7621,0.0,0.7685,0.7804,0.7884,0.7978,0.8531,0.932,1.0194,1.1317,1.263,1.4082,1.4723,1.5261,1.5778,1.5784,1.5784,1.5784,1.5784,1.5784,1.5784,1.5784,1.5784,1.5784,1.5784,1.5784,1.5784,1.5784,1.5784,1.5784,1.5784,1.5784,1.5784,1.5784,1.5784,1.5784,1.5784,1.6021,1.6407,1.6864,1.7239,1.7613,1.801,1.8549,1.9193,1.9824,2.0647,2.157,2.228,2.2696,2.2925,2.3047,2.3091,2.3091,2.3091,2.3091,2.3091,2.3091,2.3091,2.3091,2.3091,2.2828,2.2388,2.1765,2.123,2.0701,1.9977,1.9255,1.8573,1.7831,1.7225,1.6565,1.5685,1.5718,1.5784,1.5784,1.5784,1.5784,1.5784,1.5784,1.5784,1.5784,1.5784,1.5784,1.5784,1.5504,1.5304,1.5304,1.5129,1.5062,1.5182,1.5182,1.519,1.5304,1.5484,1.5571,1.5571,1.5698,1.6346,0.4585,0.4823,0.0,0.5515,0.6016,0.0,0.697,0.7272,0.7431,0.757,0.0,0.7678,0.7807,0.7831,0.7831,0.7831,0.7897,0.7988,0.7988,0.8737,0.9669,1.0783,1.1999,1.3318,1.4688,1.5261,1.5588,1.5778,1.5784,1.5784,1.5784,1.5784,1.5784,1.5784,1.5784,1.5784,1.5784,1.5784,1.5784,1.5784,1.5784,1.5784,1.5784,1.5784,1.5784,1.5784,1.5784,1.5832,1.5832,1.5879,1.6204,1.6817,1.7552,1.8149,1.8657,1.9368,1.9906,2.0458,2.1123,2.1721,2.228,2.2916,2.3091,2.3091,2.3091,2.3091,2.3091,2.3091,2.3091,2.3091,2.3091,2.3091,2.3091,2.3091,2.2969,2.2706,2.228,2.1802,2.1266,2.051,1.9646,1.8773,1.7924,1.7185,1.6534,1.5872,1.5784,1.5784,1.5784,1.5784,1.5784,1.5784,1.5784,1.5784,1.5784,1.5784,1.5784,1.5784,1.5784,1.5784,1.5784,1.5324,1.5209,1.5431,1.5438,1.5565,1.5784,1.5784,1.5784,1.5784,1.5784,1.6346,0.4714,0.4945,0.0,0.0,0.6363,0.6848,0.7041,0.7353,0.756,0.7594,0.7784,0.7904,0.7934,0.7941,0.7941,0.7941,0.7968,0.7988,0.7988,0.8882,1.0064,1.1512,1.2635,1.3896,1.5397,1.5689,1.5737,1.5784,1.5784,1.5784,1.5784,1.5784,1.5784,1.5784,1.5784,1.5784,1.5784,1.5784,1.5784,1.5784,1.5784,1.5784,1.5784,1.5784,1.5784,1.5784,1.5784,1.5927,1.6123,1.6353,1.6958,1.7846,1.8611,1.9301,1.9965,2.0492,2.0979,2.1418,2.1819,2.2236,2.2706,2.3013,2.3091,2.3091,2.3091,2.3091,2.3091,2.3091,2.3091,2.3091,2.3091,2.3091,2.3091,2.3091,2.3057,2.3003,2.2916,2.252,2.198,2.1221,2.0889,2.0167,1.8465,1.7971,1.7333,1.6015,1.5784,1.5784,1.5784,1.5784,1.5784,1.5784,1.5784,1.5784,1.5784,1.5784,1.5784,1.5784,1.5784,1.5784,1.5784,1.5712,1.5671,1.5684,1.5684,1.5718,1.5784,1.5784,1.5784,1.5784,1.5784,1.6346,0.4726,0.0,0.0,0.6236,0.0,0.7004,0.7078,0.7322,0.7512,0.7584,0.7834,0.7988,0.7988,0.7988,0.7988,0.7988,0.8088,0.8233,0.8382,0.9422,1.0699,1.2096,1.3221,1.4388,1.5683,1.5784,1.5784,1.5784,1.5784,1.5784,1.5784,1.5784,1.5784,1.5784,1.5784,1.5784,1.5784,1.5784,1.5784,1.5784,1.5784,1.5784,1.5784,1.5784,1.5784,1.5784,1.5784,1.6021,1.6454,1.6911,1.7738,1.8711,1.9778,2.0602,2.1221,2.1802,2.2148,2.2369,2.2545,2.274,2.2969,2.3057,2.3091,2.3091,2.3091,2.3091,2.3091,2.3091,2.3091,2.3091,2.3091,2.3091,2.3091,2.3091,2.3091,2.3091,2.3091,2.2916,2.2476,2.165,2.0701,1.9666,1.8434,1.7512,1.6723,1.592,1.5784,1.5784,1.5784,1.5784,1.5784,1.5784,1.5784,1.5784,1.5784,1.5784,1.5784,1.5784,1.5784,1.5784,1.5784,1.5784,1.5784,1.5784,1.5784,1.5784,1.5784,1.5784,1.5784,1.5784,1.5784,1.6346,0.4695,0.0,0.5898,0.6692,0.697,0.0,0.7095,0.7258,0.7414,0.7567,0.7814,0.7958,0.7985,0.7988,0.7988,0.7988,0.8283,0.8577,0.897,1.0109,1.1429,1.2727,1.3752,1.4729,1.573,1.5784,1.5784,1.5784,1.5784,1.5784,1.5784,1.5784,1.5784,1.5784,1.5784,1.5784,1.5784,1.5784,1.5784,1.5784,1.5784,1.5784,1.5784,1.5784,1.5784,1.5784,1.5784,1.6116,1.673,1.7505,1.8419,1.9521,2.0899,2.1765,2.228,2.2872,2.3091,2.3091,2.3091,2.3091,2.3091,2.3091,2.3091,2.3091,2.3091,2.3091,2.3091,2.3091,2.3091,2.3091,2.3091,2.3091,2.3091,2.3091,2.3091,2.3091,2.3091,2.3091,2.2828,2.1998,1.9886,1.8149,1.7753,1.6629,1.5784,1.5784,1.5784,1.5784,1.5784,1.5784,1.5784,1.5784,1.5784,1.5784,1.5784,1.5784,1.5784,1.5784,1.5784,1.5784,1.5784,1.5784,1.5784,1.5784,1.5784,1.5784,1.5784,1.5784,1.5825,1.5879,1.5927,1.6487,0.0,0.0,0.63,0.0,0.6896,0.7095,0.0,0.0,0.7414,0.0,0.7729,0.7882,0.7965,0.7988,0.7988,0.7988,0.8432,0.9019,0.9756,1.0783,1.2047,1.3542,1.4286,1.4975,1.5737,1.5784,1.5784,1.5784,1.5784,1.5784,1.5784,1.5784,1.5784,1.5784,1.5784,1.5784,1.5784,1.5784,1.5784,1.5784,1.5784,1.5784,1.5784,1.5784,1.5784,1.5784,1.5784,1.6258,1.7026,1.7932,1.9034,2.0283,2.1516,2.229,2.275,2.3013,2.3091,2.3091,2.3091,2.3091,2.3091,2.3091,2.3091,2.3091,2.3091,2.3091,2.3091,2.3091,2.3091,2.3091,2.3091,2.3091,2.3091,2.3091,2.3091,2.3091,2.3091,2.3091,2.2916,2.2388,1.9001,1.6204,1.6109,1.5927,1.5784,1.5784,1.5784,1.5784,1.5784,1.5784,1.5784,1.5784,1.5784,1.5784,1.5784,1.5784,1.5784,1.5784,1.5784,1.5784,1.5784,1.5784,1.5784,1.5784,1.5784,1.5784,1.5784,1.5784,1.5927,1.617,1.64,1.7138,0.4883,0.5589,0.6244,0.0,0.6883,0.7001,0.7078,0.0,0.7285,0.7441,0.759,0.7763,0.7948,0.7988,0.7988,0.7988,0.8584,0.9369,1.0293,1.1463,1.2732,1.4184,1.4819,1.5302,1.5784,1.5784,1.5784,1.5784,1.5784,1.5784,1.5784,1.5784,1.5784,1.5784,1.5784,1.5784,1.5784,1.5784,1.5784,1.5784,1.5784,1.5784,1.5784,1.5784,1.5784,1.5784,1.5784,1.6305,1.7239,1.8511,1.9658,2.0826,2.2157,2.2784,2.2969,2.3057,2.3091,2.3091,2.3091,2.3091,2.3091,2.3091,2.3091,2.3091,2.3091,2.3091,2.3091,2.3091,2.3091,2.3091,2.3091,2.3091,2.3091,2.3091,2.3091,2.3091,2.3091,2.3091,2.3047,2.2828,2.0385,1.7777,1.6109,1.5784,1.5784,1.5784,1.5784,1.5784,1.5784,1.5784,1.5784,1.5784,1.5784,1.5784,1.5784,1.5784,1.5784,1.5784,1.5784,1.5784,1.5784,1.5784,1.5784,1.5784,1.5784,1.5784,1.5784,1.5784,1.6021,1.6447,1.6951,1.7777,0.0,0.0,0.6054,0.662,0.6787,0.6861,0.0,0.0,0.7095,0.0,0.7508,0.7725,0.8077,0.8064,0.7988,0.7988,0.8737,0.9723,1.093,1.2145,1.3414,1.4825,1.5309,1.5635,1.5778,1.5784,1.5784,1.5784,1.5784,1.5784,1.5784,1.5784,1.5784,1.5784,1.5784,1.5784,1.5784,1.5784,1.5784,1.5784,1.5784,1.5784,1.5784,1.5784,1.5872,1.6015,1.6015,1.6581,1.7692,1.9093,2.0286,2.1302,2.2599,2.3091,2.3091,2.3091,2.3091,2.3091,2.3091,2.3091,2.3091,2.3091,2.3091,2.3091,2.3091,2.3091,2.3091,2.3091,2.3091,2.3091,2.3091,2.3091,2.3091,2.3091,2.3091,2.3091,2.3091,2.3091,2.3091,2.3091,2.1767,1.9774,1.7044,1.6346,1.6109,1.5825,1.5784,1.5784,1.5784,1.5784,1.5784,1.5784,1.5784,1.5784,1.5784,1.5784,1.5784,1.5784,1.6112,1.6273,1.6273,1.6273,1.6273,1.6273,1.5985,1.5784,1.5784,1.5784,1.6116,1.673,1.7232,1.8102,0.0,0.527,0.0,0.6221,0.0,0.0,0.0,0.0,0.0,0.0,0.7556,0.7884,0.8446,0.8238,0.7988,0.7988,0.8882,1.0109,1.1609,1.278,1.4046,1.554,1.5784,1.5778,1.5784,1.5784,1.5784,1.5784,1.5784,1.5784,1.5784,1.5784,1.5784,1.5784,1.5784,1.5784,1.5784,1.5784,1.5784,1.5784,1.5784,1.5784,1.5784,1.5784,1.6069,1.6541,1.6541,1.7232,1.8427,1.965,2.0782,2.1739,2.2731,2.3091,2.3091,2.3091,2.3091,2.3091,2.3091,2.3091,2.3091,2.3091,2.3091,2.3091,2.3091,2.3091,2.3091,2.3091,2.3091,2.3091,2.3091,2.3091,2.3091,2.3091,2.3091,2.3091,2.3091,2.3091,2.3091,2.3091,2.2299,2.1006,1.9004,1.7846,1.6904,1.592,1.5784,1.5784,1.5784,1.5784,1.5784,1.5784,1.5784,1.5784,1.5784,1.5784,1.5784,1.5784,1.6874,1.7488,1.7488,1.7488,1.7488,1.7488,1.6393,1.5784,1.5784,1.5784,1.6211,1.6979,1.6871,1.7738,0.0,0.0,0.0,0.5718,0.601,0.6268,0.0,0.6787,0.6916,0.7065,0.7544,0.82,0.9027,0.8892,0.8709,0.8966,0.9916,1.1042,1.2242,1.3318,1.4484,1.5642,1.5784,1.5784,1.5784,1.5784,1.5784,1.5784,1.5784,1.5784,1.5784,1.5784,1.5784,1.5784,1.5784,1.5784,1.5784,1.5784,1.5784,1.5784,1.5784,1.5784,1.5784,1.5784,1.6211,1.6878,1.7466,1.8195,1.9018,2.0359,2.1311,2.2006,2.2775,2.3091,2.3091,2.3091,2.3091,2.3091,2.3091,2.3091,2.3091,2.3091,2.3091,2.3091,2.3091,2.3091,2.3091,2.3091,2.3091,2.3091,2.3091,2.3091,2.3091,2.3091,2.3091,2.3091,2.3091,2.3091,2.3091,2.3091,2.2838,2.2388,2.1659,2.0257,1.8434,1.6157,1.5784,1.5784,1.5784,1.5784,1.5784,1.5784,1.5784,1.5784,1.5784,1.652,1.6954,1.6954,1.7348,1.7582,1.7582,1.7582,1.7582,1.7582,1.7168,1.658,1.5784,1.5784,1.6157,1.6871,1.7505,1.9026,0.4105,0.0,0.0,0.0,0.0,0.5898,0.6244,0.0,0.6749,0.6856,0.7516,0.8389,0.9433,0.9638,0.9789,1.0298,1.1135,1.2009,1.2969,1.3848,1.4777,1.5689,1.5784,1.5784,1.5784,1.5784,1.5784,1.5784,1.5784,0.0,1.5784,1.5784,1.5784,1.5784,1.5684,1.5685,1.5685,1.5585,1.5538,1.5538,1.5538,1.5538,1.5538,1.5538,1.6058,1.7047,1.8164,1.9004,1.9666,2.0998,2.1863,2.2378,2.2916,2.3091,2.3091,2.3091,2.3091,2.3091,2.3091,2.3091,2.3091,2.3091,2.3091,2.3091,2.3091,2.3091,2.3091,2.3091,2.3091,2.3091,2.3091,2.3091,2.3091,2.3091,2.3091,2.3091,2.3091,2.3091,2.3091,2.3091,2.3091,2.3091,2.3091,2.1535,1.9271,1.6244,1.5784,1.5784,1.5784,1.5784,1.5784,1.5784,1.5784,1.5944,1.6386,1.7134,1.7582,1.7582,1.7582,1.7582,1.7582,1.7582,1.7582,1.7582,1.7582,1.7201,1.642,1.6152,1.6143,1.6487,1.7171,1.9602,0.0,0.0,0.0,0.0,0.0,0.0,0.0,0.0,0.6419,0.6824,0.7467,0.8385,0.9683,1.0513,1.1167,1.1867,1.242,1.3006,1.383,1.4382,1.4975,1.573,1.5784,1.5784,1.5784,1.5784,1.5784,1.5784,1.5784,1.5784,1.5784,1.5784,1.5784,1.5784,1.5545,1.5398,1.5398,1.511,1.5008,1.5008,1.5008,1.5008,1.5008,1.5008,1.5704,1.6986,1.8479,1.955,2.0428,2.1615,2.2378,2.2847,2.3013,2.3091,2.3091,2.3091,2.3091,2.3091,2.3091,2.3091,2.3091,2.3091,2.3091,2.3091,2.3091,2.3091,2.3091,2.3091,2.3091,2.3091,2.3091,2.3091,2.3091,2.3091,2.3091,2.3091,2.3091,2.3091,2.3091,2.3091,2.314,2.3169,2.3169,2.1607,1.932,1.6251,1.5784,1.5784,1.5784,1.5784,1.5784,1.5784,1.5784,1.6306,1.7482,1.7582,1.7582,1.7582,1.7582,1.7582,1.7582,1.7582,1.7582,1.7582,1.7582,1.7582,1.7582,1.6794,1.6213,1.5784,1.6001,1.955,0.3843,0.0,0.0,0.0,0.0,0.0,0.0,0.0,0.0,0.6529,0.748,0.8734,1.047,1.1488,1.2511,1.3921,1.3829,1.3785,1.4405,1.4921,1.5404,1.5778,1.5784,1.5784,1.5784,1.5784,1.5784,0.0,1.5784,1.5784,1.5784,1.5784,1.5784,1.5784,1.5545,1.5398,1.5398,1.511,1.5008,1.5008,1.5008,1.5008,1.5008,1.5008,1.5704,1.6986,1.8479,1.9764,2.0907,2.229,2.2916,2.3013,2.3091,2.3091,2.3091,2.3091,2.3091,2.3091,2.3091,2.3091,2.3091,2.3091,2.3091,2.3091,2.3091,2.3091,2.3091,2.3091,2.3091,2.3091,2.3091,2.3091,2.3091,2.3091,2.3091,2.3091,2.3091,2.3091,2.3091,2.3091,2.4114,2.4972,2.4972,2.3281,2.0557,1.6422,1.5784,1.5784,1.5784,1.5784,1.5784,1.5784,1.5784,1.6306,1.7482,1.7582,1.7582,1.7582,1.7582,1.7582,1.7582,1.7582,1.7582,1.7582,1.7582,1.7582,1.7582,1.6794,1.6213,1.594,2.0714,2.3927,0.4357,0.4491,0.0,0.0,0.0,0.0,0.0,0.5774,0.0,0.0,0.7672,0.8959,1.0581,1.1657,1.2735,1.419,1.4172,1.4179,1.4763,1.5093,1.5325,1.5464,1.5471,1.5471,1.5471,1.5471,1.5471,1.5471,1.5578,1.5705,1.5771,1.5784,1.5784,1.5784,1.5431,1.5217,1.5217,1.4847,1.464,1.464,1.464,1.464,1.464,1.464,1.5392,1.6787,1.8262,1.9708,2.1123,2.2511,2.3091,2.3091,2.3091,2.3091,2.3091,2.3091,2.3091,2.3091,2.3091,2.3091,2.3091,2.3091,2.3091,2.3091,2.3091,2.3091,2.3091,2.3091,2.3091,2.3091,2.3091,2.3091,2.3091,2.3091,2.3091,2.3091,2.3091,2.3091,2.3091,2.3091,2.4504,2.5693,2.5693,2.4341,2.2028,1.8486,1.7548,1.7105,1.661,1.656,1.6373,1.5831,1.6266,1.684,1.7522,1.7582,1.7582,1.7582,1.7582,1.7582,1.7582,1.7582,1.7582,1.7582,1.7582,1.7582,1.7582,1.7121,1.7232,1.8047,2.3277,2.5693,0.5331,0.5391,0.0,0.0,0.567,0.0,0.588,0.6158,0.6535,0.0,0.0,0.909,1.0327,1.1243,1.2194,1.3292,1.3741,1.4211,1.4867,1.4988,1.5008,1.5008,1.5008,1.5008,1.5008,1.5008,1.5008,1.5008,1.5237,1.5504,1.5718,1.5764,1.5784,1.5784,1.5297,1.5055,1.5055,1.4462,1.4188,1.4188,1.4188,1.4188,1.4188,1.4188,1.5045,1.661,1.8056,1.9537,2.1123,2.2511,2.3091,2.3091,2.3091,2.3091,2.3091,2.3091,2.3091,2.3091,2.3091,2.3091,2.3091,2.3091,2.3091,2.3091,2.3091,2.3091,2.3091,2.3091,2.3091,2.3091,2.3091,2.3091,2.3091,2.3091,2.3091,2.3091,2.3091,2.3247,2.3383,2.3383,2.4631,2.5693,2.5693,2.4951,2.3696,2.1725,2.0403,1.916,1.7793,1.7582,1.7181,1.6084,1.6961,1.7582,1.7582,1.7582,1.7582,1.7582,1.7582,1.7582,1.7582,1.7582,1.7582,1.7582,1.7582,1.774,1.795,1.795,1.9094,2.1326,2.4332,2.5693,0.6746,0.6971,0.6946,0.6604,0.0,0.0,0.6499,0.6706,0.7047,0.0,0.8196,0.9124,1.0027,1.0862,1.1677,1.2439,1.2812,1.342,1.4456,1.481,1.5008,1.5008,1.5008,1.5008,1.5008,1.5008,1.5008,1.5008,1.5237,1.5424,1.5478,1.5705,1.5784,1.5784,1.5491,1.5311,1.5311,1.5008,1.4834,1.4834,1.4834,1.4834,1.4834,1.4834,1.5559,1.689,1.8382,1.9785,2.1123,2.2511,2.3091,2.3091,2.3091,2.3091,2.3091,2.3091,2.3091,2.3091,2.3091,2.3091,2.3091,2.3091,2.3091,2.3091,2.3091,2.3091,2.3091,2.3091,2.3091,2.3091,2.3091,2.3091,2.3091,2.3091,2.3091,2.3091,2.3091,2.4192,2.5177,2.5177,2.546,2.5693,2.5693,2.5538,2.5245,2.4833,2.3179,2.0893,1.7996,1.7582,1.7495,1.7261,1.7448,1.7582,1.7582,1.7582,1.7582,1.7582,1.7582,1.7582,1.7582,1.7582,1.7582,1.7582,1.7582,1.8468,2.0241,2.0241,2.1412,2.3596,2.5039,2.5693,0.8245,0.8287,0.8083,0.7801,0.0,0.0,0.0,0.0,0.7559,0.0,0.0,0.0,0.0,0.0,1.1335,1.1793,1.2118,1.2603,1.3307,1.3928,1.4355,1.4509,1.4566,1.4566,1.4566,1.4566,1.4633,1.473,1.4877,1.5023,1.517,1.5317,1.5464,1.5611,1.5331,1.5251,1.5398,1.511,1.5008,1.5008,1.5008,1.5008,1.5008,1.5008,1.5704,1.6986,1.8479,1.9809,2.1123,2.2511,2.3091,2.3091,2.3091,2.3091,2.3091,2.3091,2.3091,2.3091,2.3091,2.3091,2.3091,2.3091,2.3091,2.3091,2.3091,2.3091,2.3091,2.3091,2.3091,2.3091,2.3091,2.3091,2.3091,2.3091,2.3091,2.3091,2.3091,2.4465,2.5693,2.5693,2.5693,2.5693,2.5693,2.5693,2.5693,2.5693,2.4399,2.2375,1.9606,1.8788,1.822,1.7635,1.7582,1.7582,1.7582,1.7582,1.7582,1.7582,1.7582,1.7582,1.7582,1.7582,1.7582,1.7582,1.7582,1.8677,2.0925,2.2526,2.3886,2.4941,2.5489,2.5693,0.0,0.0,0.0,0.0,0.0,0.8288,0.0,0.0,0.0,0.0,0.0,0.0,0.0,0.0,0.0,0.0,0.0,0.0,0.0,1.2772,0.0,1.3868,1.3921,1.3941,1.3995,1.4001,1.4075,1.4255,1.4369,1.4543,1.4827,1.4948,1.5142,1.5384,1.517,1.519,1.5478,1.5251,1.513,1.513,1.513,1.5176,1.5221,1.5266,1.598,1.7265,1.8673,2.0011,2.1257,2.2555,2.3091,2.3091,2.3091,2.3091,2.3091,2.3091,2.3091,2.3091,2.3091,2.3091,2.3091,2.3091,2.3091,2.3091,2.3091,2.3091,2.3091,2.3091,2.3091,2.3091,2.3091,2.3091,2.3091,2.3091,2.3091,2.3091,2.3091,2.4465,2.5693,2.5693,2.5693,2.5693,2.5693,2.5693,2.5693,2.5693,2.5,2.3845,2.203,2.0704,1.9361,1.7793,1.7582,1.7582,1.7582,1.7582,1.7582,1.7582,1.7582,1.7582,1.7582,1.7582,1.7582,1.7582,1.7582,1.8677,2.0925,2.4134,2.5693,2.5693,2.5693,2.5693,0.0,0.0,0.0,0.0,1.0107,0.0,0.0,0.0,0.0,0.9129,0.0,0.0,0.0,0.0,0.0,0.0,0.0,0.0,0.0,0.0,0.0,1.3213,1.3307,1.3414,1.3626,1.3653,1.356,1.338,1.3841,1.4155,1.4188,1.4727,1.5142,1.5384,1.5364,1.5484,1.5731,1.5698,1.5732,1.5732,1.5732,1.5833,1.6075,1.6303,1.7098,1.828,1.9538,2.0648,2.1695,2.2687,2.3091,2.3091,2.3091,2.3091,2.3091,2.3091,2.3091,2.3091,2.3091,2.3091,2.3091,2.3091,2.3091,2.3091,2.3091,2.3091,2.3091,2.3091,2.3091,2.3091,2.3091,2.3091,2.3091,2.3091,2.3091,2.3091,2.3091,2.4465,2.5693,2.5693,2.5693,2.5693,2.5693,2.5693,2.5693,2.5693,2.5586,2.544,2.5186,2.3438,2.1046,1.7943,1.7582,1.7582,1.7582,1.7582,1.7582,1.7582,1.7582,1.7582,1.7582,1.7582,1.7582,1.7582,1.7582,1.8677,2.0925,2.4134,2.5693,2.5693,2.5693,2.5693,0.0,0.0,0.0,0.0,0.0,0.0,0.9231,0.0,0.9546,0.0,0.0,0.0,0.0,0.0,0.0,0.0,1.0321,0.0,0.0,0.0,0.0,0.0,0.0,0.0,1.3113,1.2966,1.2886,1.2978,1.3206,1.346,1.3808,1.4229,1.4713,1.513,1.5189,1.5364,1.5778,1.5784,1.5784,1.5784,1.5784,1.6021,1.6454,1.6998,1.7824,1.8926,2.0268,2.1266,2.2006,2.2775,2.3091,2.3091,2.3091,2.3091,2.3091,2.3091,2.3091,2.3091,2.3091,2.3091,2.3091,2.3091,2.3091,2.3091,2.3091,2.3091,2.3091,2.3091,2.3091,2.3091,2.3091,2.3091,2.3091,2.3091,2.3091,2.3091,2.3091,2.4465,2.5693,2.5693,2.5693,2.5693,2.5693,2.5693,2.5693,2.5693,2.5693,2.5693,2.5693,2.444,2.2476,1.982,1.9517,1.9517,1.9517,1.8945,1.8325,1.7635,1.7582,1.7582,1.7582,1.7582,1.7898,1.8586,1.9205,2.0585,2.2837,2.4735,2.5693,2.5693,2.5693,2.5693,1.3239,0.0,0.0,0.0,0.0,0.0,0.0,0.0,0.0,0.0,0.0,0.0,0.0,0.0,0.0,0.0,0.0,1.0134,0.0,0.0,0.0,0.0,0.0,0.0,0.0,1.2331,1.2358,1.2529,1.269,1.3012,1.3453,1.3881,1.4322,1.4874,1.4968,1.5204,1.5705,1.5744,1.5832,1.5927,1.5974,1.6346,1.7052,1.7785,1.8696,1.9741,2.0998,2.181,2.2334,2.2872,2.3091,2.3091,2.3091,2.3091,2.3091,2.3091,2.3091,2.3091,2.3091,2.3091,2.3091,2.3091,2.3091,2.3091,2.3091,2.3091,2.3091,2.3091,2.3091,2.3091,2.3091,2.3091,2.3091,2.3091,2.3461,2.3803,2.3803,2.4797,2.5693,2.5693,2.5693,2.5693,2.5693,2.5693,2.5693,2.5693,2.5693,2.5693,2.5693,2.5039,2.3994,2.2375,2.2224,2.2224,2.2224,2.096,1.9465,1.7687,1.7582,1.7582,1.7582,1.7582,1.8265,1.9687,2.1361,2.3038,2.4597,2.5342,2.5693,2.5693,2.5693,2.5693,0.0,0.0,0.0,1.1675,0.0,0.0,0.0,0.0,1.0187,0.0,0.0,0.0,0.0,0.0,0.0,1.0214,0.0,0.0,0.0,0.0,0.0,0.0,0.0,0.0,0.0,1.1971,1.2191,0.0,1.2462,1.2924,1.3206,1.3774,1.4222,1.4522,1.481,1.511,1.5404,1.5691,1.5927,1.6177,1.6447,1.7099,1.8087,1.8842,1.9795,2.0988,2.1748,2.2334,2.2794,2.3013,2.3091,2.3091,2.3091,2.3091,2.3091,2.3091,2.3091,2.3091,2.3091,2.3091,2.3091,2.3091,2.3091,2.3091,2.3091,2.3091,2.3091,2.3091,2.3091,2.3091,2.3091,2.3091,2.3091,2.3091,2.4378,2.5606,2.5606,2.5645,2.5693,2.5693,2.5693,2.5693,2.5693,2.5693,2.5693,2.5693,2.5693,2.5693,2.5693,2.5693,2.5635,2.5538,2.5538,2.5538,2.5538,2.3687,2.1097,1.7786,1.7582,1.7582,1.7582,1.7582,1.8624,2.0822,2.3926,2.5586,2.5645,2.5684,2.5693,2.5693,2.5693,2.5693,0.0,0.0,1.3214,1.2258,0.0,0.0,0.0,0.0,0.0,0.0,0.0,0.0,0.0,0.0,1.1417,1.0788,1.0367,0.0,0.0,0.0,0.0,0.0,0.0,0.0,0.0,0.0,0.0,0.0,1.1757,0.0,1.316,1.354,1.3973,1.4459,1.4616,1.4903,1.5391,1.5491,1.5872,1.6447,1.7044,1.7831,1.8888,2.0051,2.0998,2.1793,2.2467,2.2872,2.3013,2.3057,2.3091,2.3091,2.3091,2.3091,2.3091,2.3091,2.3091,2.3091,2.3091,2.3091,2.3091,2.3091,2.3091,2.3091,2.3091,2.3091,2.3091,2.3091,2.3091,2.3091,2.3091,2.3091,2.3091,2.3091,2.4417,2.5693,2.5693,2.5693,2.5693,2.5693,2.5693,2.5693,2.5693,2.5693,2.5693,2.5693,2.5693,2.5693,2.5693,2.5693,2.5693,2.5693,2.5693,2.5693,2.5693,2.3079,2.1011,1.9879,1.9776,1.9776,1.9776,1.9776,2.0798,2.3038,2.4794,2.5693,2.5693,2.5693,2.5693,2.5693,2.5693,2.5693,1.4632,1.4322,0.0,1.2979,1.2699,0.0,1.1303,0.0,1.1764,0.0,0.0,0.0,0.0,0.0,0.0,1.1437,1.0722,0.0,0.0,0.9331,0.0,0.0,0.0,0.0,0.0,0.0,1.0901,1.1243,1.1335,0.0,0.0,1.3234,1.3666,1.4146,1.4516,1.4856,1.5237,1.5444,1.5972,1.673,1.7559,1.8519,1.9621,2.1006,2.1854,2.2378,2.2872,2.3091,2.3091,2.3091,2.3091,2.3091,2.3091,2.3091,2.3091,2.3091,2.3091,2.3091,2.3091,2.3091,2.3091,2.3091,2.3091,2.3091,2.3091,2.3091,2.314,2.3344,2.3257,2.3237,2.3851,2.4017,2.4017,2.4017,2.4875,2.5693,2.5693,2.5693,2.5693,2.5693,2.5693,2.5693,2.5693,2.5693,2.5693,2.5693,2.5693,2.5693,2.5693,2.5693,2.5693,2.5693,2.5693,2.5693,2.5693,2.3777,2.2627,2.2627,2.2627,2.2627,2.2627,2.2627,2.3279,2.4695,2.5391,2.5693,2.5693,2.5693,2.5693,2.5693,2.5693,2.5693]}]]